<?xml version="1.0" encoding="UTF-8" standalone="no" ?>
<gpx xmlns="http://www.topografix.com/GPX/1/1" xmlns:xsi="http://www.w3.org/2001/XMLSchema-instance" xsi:schemaLocation="http://www.topografix.com/GPX/1/1 http://www.topografix.com/GPX/1/1/gpx.xsd" version="1.1" creator="VisuGPX - https://www.visugpx.com">
  <metadata>
    <name>Tour du Hussard à cheval</name>
    <desc><![CDATA[Sur ces Itinéraires, vous serez sur les traces d'Angelo: Manosque, Forcalquier, la Montagne de Lure, etc..

De vastes espaces préservés, des bergeries de pierres sèches, des odeurs de thym soulevées par les sabots des chevaux, et l'air, surtout de l'air....]]></desc>
  </metadata>
  <trk>
    <name><![CDATA[5806243-Tour du Hussard à cheval]]></name>
    <trkseg>
      <trkpt lat="43.82779" lon="5.77444">
        <ele>396</ele>
        <time>2018-05-16T12:40:51Z</time>
      </trkpt>
      <trkpt lat="43.82433" lon="5.76915">
        <ele>447</ele>
        <time>2018-05-16T12:41:51Z</time>
      </trkpt>
      <trkpt lat="43.82395" lon="5.76765">
        <ele>459</ele>
        <time>2018-05-16T12:42:51Z</time>
      </trkpt>
      <trkpt lat="43.82218" lon="5.76611">
        <ele>457</ele>
        <time>2018-05-16T12:43:51Z</time>
      </trkpt>
      <trkpt lat="43.8206" lon="5.76491">
        <ele>448</ele>
        <time>2018-05-16T12:44:51Z</time>
      </trkpt>
      <trkpt lat="43.8194" lon="5.76392">
        <ele>434</ele>
        <time>2018-05-16T12:45:51Z</time>
      </trkpt>
      <trkpt lat="43.8185" lon="5.76341">
        <ele>425</ele>
        <time>2018-05-16T12:46:51Z</time>
      </trkpt>
      <trkpt lat="43.81872" lon="5.76289">
        <ele>424</ele>
        <time>2018-05-16T12:47:51Z</time>
      </trkpt>
      <trkpt lat="43.81714" lon="5.76126">
        <ele>403</ele>
        <time>2018-05-16T12:48:51Z</time>
      </trkpt>
      <trkpt lat="43.81689" lon="5.7607">
        <ele>401</ele>
        <time>2018-05-16T12:49:51Z</time>
      </trkpt>
      <trkpt lat="43.81676" lon="5.76049">
        <ele>400</ele>
        <time>2018-05-16T12:50:51Z</time>
      </trkpt>
      <trkpt lat="43.81522" lon="5.75963">
        <ele>377</ele>
        <time>2018-05-16T12:51:51Z</time>
      </trkpt>
      <trkpt lat="43.81426" lon="5.76031">
        <ele>363</ele>
        <time>2018-05-16T12:52:51Z</time>
      </trkpt>
      <trkpt lat="43.8136" lon="5.75954">
        <ele>354</ele>
        <time>2018-05-16T12:53:51Z</time>
      </trkpt>
      <trkpt lat="43.81212" lon="5.75027">
        <ele>423</ele>
        <time>2018-05-16T12:54:51Z</time>
      </trkpt>
      <trkpt lat="43.81236" lon="5.74817">
        <ele>431</ele>
        <time>2018-05-16T12:55:51Z</time>
      </trkpt>
      <trkpt lat="43.81094" lon="5.74667">
        <ele>430</ele>
        <time>2018-05-16T12:56:51Z</time>
      </trkpt>
      <trkpt lat="43.81032" lon="5.74628">
        <ele>422</ele>
        <time>2018-05-16T12:57:51Z</time>
      </trkpt>
      <trkpt lat="43.80986" lon="5.74705">
        <ele>419</ele>
        <time>2018-05-16T12:58:51Z</time>
      </trkpt>
      <trkpt lat="43.8088" lon="5.7459">
        <ele>408</ele>
        <time>2018-05-16T12:59:51Z</time>
      </trkpt>
      <trkpt lat="43.80905" lon="5.74598">
        <ele>411</ele>
        <time>2018-05-16T13:00:51Z</time>
      </trkpt>
      <trkpt lat="43.80949" lon="5.74547">
        <ele>411</ele>
        <time>2018-05-16T13:01:51Z</time>
      </trkpt>
      <trkpt lat="43.8108" lon="5.74156">
        <ele>368</ele>
        <time>2018-05-16T13:02:51Z</time>
      </trkpt>
      <trkpt lat="43.80928" lon="5.73787">
        <ele>380</ele>
        <time>2018-05-16T13:03:51Z</time>
      </trkpt>
      <trkpt lat="43.80813" lon="5.73478">
        <ele>364</ele>
        <time>2018-05-16T13:04:51Z</time>
      </trkpt>
      <trkpt lat="43.80674" lon="5.73242">
        <ele>371</ele>
        <time>2018-05-16T13:05:51Z</time>
      </trkpt>
      <trkpt lat="43.80646" lon="5.73053">
        <ele>358</ele>
        <time>2018-05-16T13:06:51Z</time>
      </trkpt>
      <trkpt lat="43.80771" lon="5.72981">
        <ele>355</ele>
        <time>2018-05-16T13:07:51Z</time>
      </trkpt>
      <trkpt lat="43.80754" lon="5.72706">
        <ele>342</ele>
        <time>2018-05-16T13:08:51Z</time>
      </trkpt>
      <trkpt lat="43.80699" lon="5.72607">
        <ele>343</ele>
        <time>2018-05-16T13:09:51Z</time>
      </trkpt>
      <trkpt lat="43.80823" lon="5.72487">
        <ele>355</ele>
        <time>2018-05-16T13:10:51Z</time>
      </trkpt>
      <trkpt lat="43.81963" lon="5.71916">
        <ele>405</ele>
        <time>2018-05-16T13:11:51Z</time>
      </trkpt>
      <trkpt lat="43.82287" lon="5.71053">
        <ele>450</ele>
        <time>2018-05-16T13:12:51Z</time>
      </trkpt>
      <trkpt lat="43.82284" lon="5.71058">
        <ele>449</ele>
        <time>2018-05-16T13:13:51Z</time>
      </trkpt>
      <trkpt lat="43.82461" lon="5.70912">
        <ele>476</ele>
        <time>2018-05-16T13:14:51Z</time>
      </trkpt>
      <trkpt lat="43.8264" lon="5.70865">
        <ele>490</ele>
        <time>2018-05-16T13:15:51Z</time>
      </trkpt>
      <trkpt lat="43.82687" lon="5.7065">
        <ele>510</ele>
        <time>2018-05-16T13:16:51Z</time>
      </trkpt>
      <trkpt lat="43.82793" lon="5.70525">
        <ele>518</ele>
        <time>2018-05-16T13:17:51Z</time>
      </trkpt>
      <trkpt lat="43.82891" lon="5.70084">
        <ele>557</ele>
        <time>2018-05-16T13:18:51Z</time>
      </trkpt>
      <trkpt lat="43.83293" lon="5.69706">
        <ele>591</ele>
        <time>2018-05-16T13:19:51Z</time>
      </trkpt>
      <trkpt lat="43.83854" lon="5.69263">
        <ele>658</ele>
        <time>2018-05-16T13:20:51Z</time>
      </trkpt>
      <trkpt lat="43.84052" lon="5.69268">
        <ele>649</ele>
        <time>2018-05-16T13:21:51Z</time>
      </trkpt>
      <trkpt lat="43.84061" lon="5.69132">
        <ele>648</ele>
        <time>2018-05-16T13:22:51Z</time>
      </trkpt>
      <trkpt lat="43.84395" lon="5.68929">
        <ele>623</ele>
        <time>2018-05-16T13:23:51Z</time>
      </trkpt>
      <trkpt lat="43.84473" lon="5.69002">
        <ele>614</ele>
        <time>2018-05-16T13:24:51Z</time>
      </trkpt>
      <trkpt lat="43.84445" lon="5.68895">
        <ele>613</ele>
        <time>2018-05-16T13:25:51Z</time>
      </trkpt>
      <trkpt lat="43.84408" lon="5.6886">
        <ele>614</ele>
        <time>2018-05-16T13:26:51Z</time>
      </trkpt>
      <trkpt lat="43.84392" lon="5.68783">
        <ele>617</ele>
        <time>2018-05-16T13:27:51Z</time>
      </trkpt>
      <trkpt lat="43.84519" lon="5.68787">
        <ele>613</ele>
        <time>2018-05-16T13:28:51Z</time>
      </trkpt>
      <trkpt lat="43.84603" lon="5.68277">
        <ele>642</ele>
        <time>2018-05-16T13:29:51Z</time>
      </trkpt>
      <trkpt lat="43.84637" lon="5.67839">
        <ele>627</ele>
        <time>2018-05-16T13:30:51Z</time>
      </trkpt>
      <trkpt lat="43.84702" lon="5.67551">
        <ele>615</ele>
        <time>2018-05-16T13:31:51Z</time>
      </trkpt>
      <trkpt lat="43.84733" lon="5.67474">
        <ele>614</ele>
        <time>2018-05-16T13:32:51Z</time>
      </trkpt>
      <trkpt lat="43.84751" lon="5.67187">
        <ele>615</ele>
        <time>2018-05-16T13:33:51Z</time>
      </trkpt>
      <trkpt lat="43.8477" lon="5.66994">
        <ele>607</ele>
        <time>2018-05-16T13:34:51Z</time>
      </trkpt>
      <trkpt lat="43.84804" lon="5.66908">
        <ele>603</ele>
        <time>2018-05-16T13:35:51Z</time>
      </trkpt>
      <trkpt lat="43.84739" lon="5.6659">
        <ele>608</ele>
        <time>2018-05-16T13:36:51Z</time>
      </trkpt>
      <trkpt lat="43.84705" lon="5.662">
        <ele>601</ele>
        <time>2018-05-16T13:37:51Z</time>
      </trkpt>
      <trkpt lat="43.8472" lon="5.65732">
        <ele>578</ele>
        <time>2018-05-16T13:38:51Z</time>
      </trkpt>
      <trkpt lat="43.8477" lon="5.65633">
        <ele>581</ele>
        <time>2018-05-16T13:39:51Z</time>
      </trkpt>
      <trkpt lat="43.84742" lon="5.65543">
        <ele>579</ele>
        <time>2018-05-16T13:40:51Z</time>
      </trkpt>
      <trkpt lat="43.84767" lon="5.65049">
        <ele>563</ele>
        <time>2018-05-16T13:41:51Z</time>
      </trkpt>
      <trkpt lat="43.84798" lon="5.64955">
        <ele>565</ele>
        <time>2018-05-16T13:42:51Z</time>
      </trkpt>
      <trkpt lat="43.8477" lon="5.64513">
        <ele>563</ele>
        <time>2018-05-16T13:43:51Z</time>
      </trkpt>
      <trkpt lat="43.84801" lon="5.63848">
        <ele>553</ele>
        <time>2018-05-16T13:44:51Z</time>
      </trkpt>
      <trkpt lat="43.84822" lon="5.63517">
        <ele>549</ele>
        <time>2018-05-16T13:45:51Z</time>
      </trkpt>
      <trkpt lat="43.84856" lon="5.63131">
        <ele>532</ele>
        <time>2018-05-16T13:46:51Z</time>
      </trkpt>
      <trkpt lat="43.84841" lon="5.62723">
        <ele>527</ele>
        <time>2018-05-16T13:47:51Z</time>
      </trkpt>
      <trkpt lat="43.84853" lon="5.62221">
        <ele>509</ele>
        <time>2018-05-16T13:48:51Z</time>
      </trkpt>
      <trkpt lat="43.84903" lon="5.61758">
        <ele>485</ele>
        <time>2018-05-16T13:49:51Z</time>
      </trkpt>
      <trkpt lat="43.84955" lon="5.61663">
        <ele>489</ele>
        <time>2018-05-16T13:50:51Z</time>
      </trkpt>
      <trkpt lat="43.84996" lon="5.61475">
        <ele>475</ele>
        <time>2018-05-16T13:51:51Z</time>
      </trkpt>
      <trkpt lat="43.85064" lon="5.61449">
        <ele>455</ele>
        <time>2018-05-16T13:52:51Z</time>
      </trkpt>
      <trkpt lat="43.85119" lon="5.61251">
        <ele>440</ele>
        <time>2018-05-16T13:53:51Z</time>
      </trkpt>
      <trkpt lat="43.85135" lon="5.61127">
        <ele>432</ele>
        <time>2018-05-16T13:54:51Z</time>
      </trkpt>
      <trkpt lat="43.85271" lon="5.60668">
        <ele>404</ele>
        <time>2018-05-16T13:55:51Z</time>
      </trkpt>
      <trkpt lat="43.85364" lon="5.60286">
        <ele>388</ele>
        <time>2018-05-16T13:56:51Z</time>
      </trkpt>
      <trkpt lat="43.85324" lon="5.6017">
        <ele>380</ele>
        <time>2018-05-16T13:57:51Z</time>
      </trkpt>
      <trkpt lat="43.85327" lon="5.60058">
        <ele>374</ele>
        <time>2018-05-16T13:58:51Z</time>
      </trkpt>
      <trkpt lat="43.8533" lon="5.59882">
        <ele>382</ele>
        <time>2018-05-16T13:59:51Z</time>
      </trkpt>
      <trkpt lat="43.85457" lon="5.59702">
        <ele>384</ele>
        <time>2018-05-16T14:00:51Z</time>
      </trkpt>
      <trkpt lat="43.85553" lon="5.59659">
        <ele>377</ele>
        <time>2018-05-16T14:01:51Z</time>
      </trkpt>
      <trkpt lat="43.85676" lon="5.59513">
        <ele>377</ele>
        <time>2018-05-16T14:02:51Z</time>
      </trkpt>
      <trkpt lat="43.85732" lon="5.5935">
        <ele>376</ele>
        <time>2018-05-16T14:03:51Z</time>
      </trkpt>
      <trkpt lat="43.85772" lon="5.59389">
        <ele>373</ele>
        <time>2018-05-16T14:04:51Z</time>
      </trkpt>
      <trkpt lat="43.85875" lon="5.59458">
        <ele>366</ele>
        <time>2018-05-16T14:05:51Z</time>
      </trkpt>
      <trkpt lat="43.85924" lon="5.59449">
        <ele>366</ele>
        <time>2018-05-16T14:06:51Z</time>
      </trkpt>
      <trkpt lat="43.85955" lon="5.59522">
        <ele>367</ele>
        <time>2018-05-16T14:07:51Z</time>
      </trkpt>
      <trkpt lat="43.85949" lon="5.59642">
        <ele>366</ele>
        <time>2018-05-16T14:08:51Z</time>
      </trkpt>
      <trkpt lat="43.8597" lon="5.59749">
        <ele>370</ele>
        <time>2018-05-16T14:09:51Z</time>
      </trkpt>
      <trkpt lat="43.85939" lon="5.5981">
        <ele>370</ele>
        <time>2018-05-16T14:10:51Z</time>
      </trkpt>
      <trkpt lat="43.85915" lon="5.60303">
        <ele>370</ele>
        <time>2018-05-16T14:11:51Z</time>
      </trkpt>
      <trkpt lat="43.85946" lon="5.60393">
        <ele>372</ele>
        <time>2018-05-16T14:12:51Z</time>
      </trkpt>
      <trkpt lat="43.85918" lon="5.60363">
        <ele>370</ele>
        <time>2018-05-16T14:13:51Z</time>
      </trkpt>
      <trkpt lat="43.86039" lon="5.6041">
        <ele>376</ele>
        <time>2018-05-16T14:14:51Z</time>
      </trkpt>
      <trkpt lat="43.86091" lon="5.60436">
        <ele>378</ele>
        <time>2018-05-16T14:15:51Z</time>
      </trkpt>
      <trkpt lat="43.86298" lon="5.60483">
        <ele>389</ele>
        <time>2018-05-16T14:16:51Z</time>
      </trkpt>
      <trkpt lat="43.86376" lon="5.60526">
        <ele>395</ele>
        <time>2018-05-16T14:17:51Z</time>
      </trkpt>
      <trkpt lat="43.86475" lon="5.60625">
        <ele>405</ele>
        <time>2018-05-16T14:18:51Z</time>
      </trkpt>
      <trkpt lat="43.86602" lon="5.60754">
        <ele>415</ele>
        <time>2018-05-16T14:19:51Z</time>
      </trkpt>
      <trkpt lat="43.86804" lon="5.60681">
        <ele>425</ele>
        <time>2018-05-16T14:20:51Z</time>
      </trkpt>
      <trkpt lat="43.87054" lon="5.60715">
        <ele>452</ele>
        <time>2018-05-16T14:21:51Z</time>
      </trkpt>
      <trkpt lat="43.87159" lon="5.61264">
        <ele>468</ele>
        <time>2018-05-16T14:22:51Z</time>
      </trkpt>
      <trkpt lat="43.8711" lon="5.6138">
        <ele>461</ele>
        <time>2018-05-16T14:23:51Z</time>
      </trkpt>
      <trkpt lat="43.87091" lon="5.61548">
        <ele>459</ele>
        <time>2018-05-16T14:24:51Z</time>
      </trkpt>
      <trkpt lat="43.87162" lon="5.61779">
        <ele>453</ele>
        <time>2018-05-16T14:25:51Z</time>
      </trkpt>
      <trkpt lat="43.87274" lon="5.61663">
        <ele>462</ele>
        <time>2018-05-16T14:26:51Z</time>
      </trkpt>
      <trkpt lat="43.87364" lon="5.61625">
        <ele>470</ele>
        <time>2018-05-16T14:27:51Z</time>
      </trkpt>
      <trkpt lat="43.87494" lon="5.61603">
        <ele>469</ele>
        <time>2018-05-16T14:28:51Z</time>
      </trkpt>
      <trkpt lat="43.87531" lon="5.61518">
        <ele>471</ele>
        <time>2018-05-16T14:29:51Z</time>
      </trkpt>
      <trkpt lat="43.87763" lon="5.61397">
        <ele>489</ele>
        <time>2018-05-16T14:30:51Z</time>
      </trkpt>
      <trkpt lat="43.87794" lon="5.61337">
        <ele>493</ele>
        <time>2018-05-16T14:31:51Z</time>
      </trkpt>
      <trkpt lat="43.87985" lon="5.61324">
        <ele>496</ele>
        <time>2018-05-16T14:32:51Z</time>
      </trkpt>
      <trkpt lat="43.88022" lon="5.61346">
        <ele>498</ele>
        <time>2018-05-16T14:33:51Z</time>
      </trkpt>
      <trkpt lat="43.88186" lon="5.61324">
        <ele>504</ele>
        <time>2018-05-16T14:34:51Z</time>
      </trkpt>
      <trkpt lat="43.88261" lon="5.61277">
        <ele>503</ele>
        <time>2018-05-16T14:35:51Z</time>
      </trkpt>
      <trkpt lat="43.88307" lon="5.6126">
        <ele>496</ele>
        <time>2018-05-16T14:36:51Z</time>
      </trkpt>
      <trkpt lat="43.8836" lon="5.61299">
        <ele>487</ele>
        <time>2018-05-16T14:37:51Z</time>
      </trkpt>
      <trkpt lat="43.88418" lon="5.61247">
        <ele>472</ele>
        <time>2018-05-16T14:38:51Z</time>
      </trkpt>
      <trkpt lat="43.88418" lon="5.61217">
        <ele>471</ele>
        <time>2018-05-16T14:39:51Z</time>
      </trkpt>
      <trkpt lat="43.88613" lon="5.61187">
        <ele>438</ele>
        <time>2018-05-16T14:40:51Z</time>
      </trkpt>
      <trkpt lat="43.88777" lon="5.61114">
        <ele>423</ele>
        <time>2018-05-16T14:41:51Z</time>
      </trkpt>
      <trkpt lat="43.88839" lon="5.61003">
        <ele>414</ele>
        <time>2018-05-16T14:42:51Z</time>
      </trkpt>
      <trkpt lat="43.88885" lon="5.61063">
        <ele>410</ele>
        <time>2018-05-16T14:43:51Z</time>
      </trkpt>
      <trkpt lat="43.88955" lon="5.61088">
        <ele>409</ele>
        <time>2018-05-16T14:44:51Z</time>
      </trkpt>
      <trkpt lat="43.88974" lon="5.6117">
        <ele>413</ele>
        <time>2018-05-16T14:45:51Z</time>
      </trkpt>
      <trkpt lat="43.89051" lon="5.61234">
        <ele>421</ele>
        <time>2018-05-16T14:46:51Z</time>
      </trkpt>
      <trkpt lat="43.89051" lon="5.61239">
        <ele>421</ele>
        <time>2018-05-16T14:47:51Z</time>
      </trkpt>
      <trkpt lat="43.89073" lon="5.61299">
        <ele>422</ele>
        <time>2018-05-16T14:48:51Z</time>
      </trkpt>
      <trkpt lat="43.89342" lon="5.61419">
        <ele>454</ele>
        <time>2018-05-16T14:49:51Z</time>
      </trkpt>
      <trkpt lat="43.89478" lon="5.6141">
        <ele>475</ele>
        <time>2018-05-16T14:50:51Z</time>
      </trkpt>
      <trkpt lat="43.89472" lon="5.61475">
        <ele>475</ele>
        <time>2018-05-16T14:51:51Z</time>
      </trkpt>
      <trkpt lat="43.89571" lon="5.61595">
        <ele>491</ele>
        <time>2018-05-16T14:52:51Z</time>
      </trkpt>
      <trkpt lat="43.90016" lon="5.61775">
        <ele>527</ele>
        <time>2018-05-16T14:53:51Z</time>
      </trkpt>
      <trkpt lat="43.90155" lon="5.61608">
        <ele>557</ele>
        <time>2018-05-16T14:54:51Z</time>
      </trkpt>
      <trkpt lat="43.90322" lon="5.61827">
        <ele>561</ele>
        <time>2018-05-16T14:55:51Z</time>
      </trkpt>
      <trkpt lat="43.90483" lon="5.61754">
        <ele>581</ele>
        <time>2018-05-16T14:56:51Z</time>
      </trkpt>
      <trkpt lat="43.90548" lon="5.61702">
        <ele>590</ele>
        <time>2018-05-16T14:57:51Z</time>
      </trkpt>
      <trkpt lat="43.90758" lon="5.61616">
        <ele>614</ele>
        <time>2018-05-16T14:58:51Z</time>
      </trkpt>
      <trkpt lat="43.90668" lon="5.61483">
        <ele>628</ele>
        <time>2018-05-16T14:59:51Z</time>
      </trkpt>
      <trkpt lat="43.90758" lon="5.6138">
        <ele>651</ele>
        <time>2018-05-16T15:00:51Z</time>
      </trkpt>
      <trkpt lat="43.90792" lon="5.61282">
        <ele>661</ele>
        <time>2018-05-16T15:01:51Z</time>
      </trkpt>
      <trkpt lat="43.90888" lon="5.61161">
        <ele>681</ele>
        <time>2018-05-16T15:02:51Z</time>
      </trkpt>
      <trkpt lat="43.91132" lon="5.60977">
        <ele>711</ele>
        <time>2018-05-16T15:03:51Z</time>
      </trkpt>
      <trkpt lat="43.91379" lon="5.60947">
        <ele>739</ele>
        <time>2018-05-16T15:04:51Z</time>
      </trkpt>
      <trkpt lat="43.91441" lon="5.60934">
        <ele>745</ele>
        <time>2018-05-16T15:05:51Z</time>
      </trkpt>
      <trkpt lat="43.91565" lon="5.60917">
        <ele>744</ele>
        <time>2018-05-16T15:06:51Z</time>
      </trkpt>
      <trkpt lat="43.91738" lon="5.6096">
        <ele>738</ele>
        <time>2018-05-16T15:07:51Z</time>
      </trkpt>
      <trkpt lat="43.91775" lon="5.60891">
        <ele>724</ele>
        <time>2018-05-16T15:08:51Z</time>
      </trkpt>
      <trkpt lat="43.92087" lon="5.60839">
        <ele>690</ele>
        <time>2018-05-16T15:09:51Z</time>
      </trkpt>
      <trkpt lat="43.9227" lon="5.60698">
        <ele>676</ele>
        <time>2018-05-16T15:10:51Z</time>
      </trkpt>
      <trkpt lat="43.92307" lon="5.60616">
        <ele>676</ele>
        <time>2018-05-16T15:11:51Z</time>
      </trkpt>
      <trkpt lat="43.92366" lon="5.60586">
        <ele>669</ele>
        <time>2018-05-16T15:12:51Z</time>
      </trkpt>
      <trkpt lat="43.92412" lon="5.60389">
        <ele>656</ele>
        <time>2018-05-16T15:13:51Z</time>
      </trkpt>
      <trkpt lat="43.9244" lon="5.6032">
        <ele>646</ele>
        <time>2018-05-16T15:14:51Z</time>
      </trkpt>
      <trkpt lat="43.92498" lon="5.60277">
        <ele>637</ele>
        <time>2018-05-16T15:15:51Z</time>
      </trkpt>
      <trkpt lat="43.92427" lon="5.60226">
        <ele>634</ele>
        <time>2018-05-16T15:16:51Z</time>
      </trkpt>
      <trkpt lat="43.92372" lon="5.6011">
        <ele>622</ele>
        <time>2018-05-16T15:17:51Z</time>
      </trkpt>
      <trkpt lat="43.92468" lon="5.60127">
        <ele>615</ele>
        <time>2018-05-16T15:18:51Z</time>
      </trkpt>
      <trkpt lat="43.92551" lon="5.60123">
        <ele>605</ele>
        <time>2018-05-16T15:19:51Z</time>
      </trkpt>
      <trkpt lat="43.92693" lon="5.60161">
        <ele>595</ele>
        <time>2018-05-16T15:20:51Z</time>
      </trkpt>
      <trkpt lat="43.92842" lon="5.59985">
        <ele>585</ele>
        <time>2018-05-16T15:21:51Z</time>
      </trkpt>
      <trkpt lat="43.92974" lon="5.59758">
        <ele>577</ele>
        <time>2018-05-16T15:22:51Z</time>
      </trkpt>
      <trkpt lat="43.93086" lon="5.59685">
        <ele>583</ele>
        <time>2018-05-16T15:23:51Z</time>
      </trkpt>
      <trkpt lat="43.93154" lon="5.59513">
        <ele>578</ele>
        <time>2018-05-16T15:24:51Z</time>
      </trkpt>
      <trkpt lat="43.93262" lon="5.59402">
        <ele>552</ele>
        <time>2018-05-16T15:25:51Z</time>
      </trkpt>
      <trkpt lat="43.93333" lon="5.59458">
        <ele>539</ele>
        <time>2018-05-16T15:26:51Z</time>
      </trkpt>
      <trkpt lat="43.93404" lon="5.5929">
        <ele>513</ele>
        <time>2018-05-16T15:27:51Z</time>
      </trkpt>
      <trkpt lat="43.93351" lon="5.59204">
        <ele>522</ele>
        <time>2018-05-16T15:28:51Z</time>
      </trkpt>
      <trkpt lat="43.93389" lon="5.5914">
        <ele>509</ele>
        <time>2018-05-16T15:29:51Z</time>
      </trkpt>
      <trkpt lat="43.93404" lon="5.59024">
        <ele>517</ele>
        <time>2018-05-16T15:30:51Z</time>
      </trkpt>
      <trkpt lat="43.93521" lon="5.59063">
        <ele>505</ele>
        <time>2018-05-16T15:31:51Z</time>
      </trkpt>
      <trkpt lat="43.93534" lon="5.59131">
        <ele>489</ele>
        <time>2018-05-16T15:32:51Z</time>
      </trkpt>
      <trkpt lat="43.93487" lon="5.59127">
        <ele>495</ele>
        <time>2018-05-16T15:33:51Z</time>
      </trkpt>
      <trkpt lat="43.93528" lon="5.59183">
        <ele>479</ele>
        <time>2018-05-16T15:34:51Z</time>
      </trkpt>
      <trkpt lat="43.93596" lon="5.59166">
        <ele>471</ele>
        <time>2018-05-16T15:35:51Z</time>
      </trkpt>
      <trkpt lat="43.93651" lon="5.59204">
        <ele>465</ele>
        <time>2018-05-16T15:36:51Z</time>
      </trkpt>
      <trkpt lat="43.93741" lon="5.59282">
        <ele>465</ele>
        <time>2018-05-16T15:37:51Z</time>
      </trkpt>
      <trkpt lat="43.9379" lon="5.59307">
        <ele>466</ele>
        <time>2018-05-16T15:38:51Z</time>
      </trkpt>
      <trkpt lat="43.93911" lon="5.59312">
        <ele>465</ele>
        <time>2018-05-16T15:39:51Z</time>
      </trkpt>
      <trkpt lat="43.9396" lon="5.5929">
        <ele>464</ele>
        <time>2018-05-16T15:40:51Z</time>
      </trkpt>
      <trkpt lat="43.94075" lon="5.59316">
        <ele>463</ele>
        <time>2018-05-16T15:41:51Z</time>
      </trkpt>
      <trkpt lat="43.94109" lon="5.59243">
        <ele>463</ele>
        <time>2018-05-16T15:42:51Z</time>
      </trkpt>
      <trkpt lat="43.9422" lon="5.59282">
        <ele>462</ele>
        <time>2018-05-16T15:43:51Z</time>
      </trkpt>
      <trkpt lat="43.94411" lon="5.59479">
        <ele>462</ele>
        <time>2018-05-16T15:44:51Z</time>
      </trkpt>
      <trkpt lat="43.94736" lon="5.59501">
        <ele>470</ele>
        <time>2018-05-16T15:45:51Z</time>
      </trkpt>
      <trkpt lat="43.94968" lon="5.59595">
        <ele>480</ele>
        <time>2018-05-16T15:46:51Z</time>
      </trkpt>
      <trkpt lat="43.95039" lon="5.59569">
        <ele>483</ele>
        <time>2018-05-16T15:47:51Z</time>
      </trkpt>
      <trkpt lat="43.95218" lon="5.59608">
        <ele>484</ele>
        <time>2018-05-16T15:48:51Z</time>
      </trkpt>
      <trkpt lat="43.95295" lon="5.59449">
        <ele>488</ele>
        <time>2018-05-16T15:49:51Z</time>
      </trkpt>
      <trkpt lat="43.95311" lon="5.59346">
        <ele>492</ele>
        <time>2018-05-16T15:50:51Z</time>
      </trkpt>
      <trkpt lat="43.95391" lon="5.5917">
        <ele>498</ele>
        <time>2018-05-16T15:51:51Z</time>
      </trkpt>
      <trkpt lat="43.95559" lon="5.58998">
        <ele>511</ele>
        <time>2018-05-16T15:52:51Z</time>
      </trkpt>
      <trkpt lat="43.95657" lon="5.58973">
        <ele>529</ele>
        <time>2018-05-16T15:53:51Z</time>
      </trkpt>
      <trkpt lat="43.95749" lon="5.59024">
        <ele>556</ele>
        <time>2018-05-16T15:54:51Z</time>
      </trkpt>
      <trkpt lat="43.95811" lon="5.5902">
        <ele>565</ele>
        <time>2018-05-16T15:55:51Z</time>
      </trkpt>
      <trkpt lat="43.95796" lon="5.59071">
        <ele>572</ele>
        <time>2018-05-16T15:56:51Z</time>
      </trkpt>
      <trkpt lat="43.95851" lon="5.5911">
        <ele>578</ele>
        <time>2018-05-16T15:57:51Z</time>
      </trkpt>
      <trkpt lat="43.96108" lon="5.59466">
        <ele>553</ele>
        <time>2018-05-16T15:58:51Z</time>
      </trkpt>
      <trkpt lat="43.96169" lon="5.59634">
        <ele>545</ele>
        <time>2018-05-16T15:59:51Z</time>
      </trkpt>
      <trkpt lat="43.96179" lon="5.59814">
        <ele>548</ele>
        <time>2018-05-16T16:00:51Z</time>
      </trkpt>
      <trkpt lat="43.96151" lon="5.60003">
        <ele>544</ele>
        <time>2018-05-16T16:01:51Z</time>
      </trkpt>
      <trkpt lat="43.96108" lon="5.60157">
        <ele>519</ele>
        <time>2018-05-16T16:02:51Z</time>
      </trkpt>
      <trkpt lat="43.96222" lon="5.60415">
        <ele>513</ele>
        <time>2018-05-16T16:03:51Z</time>
      </trkpt>
      <trkpt lat="43.96318" lon="5.60475">
        <ele>511</ele>
        <time>2018-05-16T16:04:51Z</time>
      </trkpt>
      <trkpt lat="43.96429" lon="5.60655">
        <ele>504</ele>
        <time>2018-05-16T16:05:51Z</time>
      </trkpt>
      <trkpt lat="43.96475" lon="5.60646">
        <ele>508</ele>
        <time>2018-05-16T16:06:51Z</time>
      </trkpt>
      <trkpt lat="43.96541" lon="5.60749">
        <ele>504</ele>
        <time>2018-05-16T16:07:51Z</time>
      </trkpt>
      <trkpt lat="43.968" lon="5.60797">
        <ele>515</ele>
        <time>2018-05-16T16:08:51Z</time>
      </trkpt>
      <trkpt lat="43.96902" lon="5.6093">
        <ele>514</ele>
        <time>2018-05-16T16:09:51Z</time>
      </trkpt>
      <trkpt lat="43.96816" lon="5.61011">
        <ele>523</ele>
        <time>2018-05-16T16:10:51Z</time>
      </trkpt>
      <trkpt lat="43.96942" lon="5.6111">
        <ele>528</ele>
        <time>2018-05-16T16:11:51Z</time>
      </trkpt>
      <trkpt lat="43.97121" lon="5.61346">
        <ele>530</ele>
        <time>2018-05-16T16:12:51Z</time>
      </trkpt>
      <trkpt lat="43.9735" lon="5.61333">
        <ele>521</ele>
        <time>2018-05-16T16:13:51Z</time>
      </trkpt>
      <trkpt lat="43.97535" lon="5.61329">
        <ele>526</ele>
        <time>2018-05-16T16:14:51Z</time>
      </trkpt>
      <trkpt lat="43.97594" lon="5.61243">
        <ele>525</ele>
        <time>2018-05-16T16:15:51Z</time>
      </trkpt>
      <trkpt lat="43.97727" lon="5.61294">
        <ele>528</ele>
        <time>2018-05-16T16:16:51Z</time>
      </trkpt>
      <trkpt lat="43.97896" lon="5.61286">
        <ele>531</ele>
        <time>2018-05-16T16:17:51Z</time>
      </trkpt>
      <trkpt lat="43.97924" lon="5.61342">
        <ele>530</ele>
        <time>2018-05-16T16:18:51Z</time>
      </trkpt>
      <trkpt lat="43.98261" lon="5.6144">
        <ele>542</ele>
        <time>2018-05-16T16:19:51Z</time>
      </trkpt>
      <trkpt lat="43.98261" lon="5.6144">
        <ele>542</ele>
        <time>2018-05-16T16:20:51Z</time>
      </trkpt>
      <trkpt lat="43.98264" lon="5.6156">
        <ele>537</ele>
        <time>2018-05-16T16:21:51Z</time>
      </trkpt>
      <trkpt lat="43.98335" lon="5.61693">
        <ele>538</ele>
        <time>2018-05-16T16:22:51Z</time>
      </trkpt>
      <trkpt lat="43.98316" lon="5.62123">
        <ele>582</ele>
        <time>2018-05-16T16:23:51Z</time>
      </trkpt>
      <trkpt lat="43.98378" lon="5.62414">
        <ele>612</ele>
        <time>2018-05-16T16:24:51Z</time>
      </trkpt>
      <trkpt lat="43.98449" lon="5.62449">
        <ele>620</ele>
        <time>2018-05-16T16:25:51Z</time>
      </trkpt>
      <trkpt lat="43.98468" lon="5.62784">
        <ele>641</ele>
        <time>2018-05-16T16:26:51Z</time>
      </trkpt>
      <trkpt lat="43.98523" lon="5.62861">
        <ele>654</ele>
        <time>2018-05-16T16:27:51Z</time>
      </trkpt>
      <trkpt lat="43.98499" lon="5.62925">
        <ele>652</ele>
        <time>2018-05-16T16:28:51Z</time>
      </trkpt>
      <trkpt lat="43.98409" lon="5.62981">
        <ele>640</ele>
        <time>2018-05-16T16:29:51Z</time>
      </trkpt>
      <trkpt lat="43.98354" lon="5.63281">
        <ele>665</ele>
        <time>2018-05-16T16:30:51Z</time>
      </trkpt>
      <trkpt lat="43.98378" lon="5.63487">
        <ele>679</ele>
        <time>2018-05-16T16:31:51Z</time>
      </trkpt>
      <trkpt lat="43.98298" lon="5.635">
        <ele>672</ele>
        <time>2018-05-16T16:32:51Z</time>
      </trkpt>
      <trkpt lat="43.9815" lon="5.63801">
        <ele>678</ele>
        <time>2018-05-16T16:33:51Z</time>
      </trkpt>
      <trkpt lat="43.9815" lon="5.63947">
        <ele>680</ele>
        <time>2018-05-16T16:34:51Z</time>
      </trkpt>
      <trkpt lat="43.98106" lon="5.64114">
        <ele>672</ele>
        <time>2018-05-16T16:35:51Z</time>
      </trkpt>
      <trkpt lat="43.98181" lon="5.6429">
        <ele>678</ele>
        <time>2018-05-16T16:36:51Z</time>
      </trkpt>
      <trkpt lat="43.98199" lon="5.64522">
        <ele>683</ele>
        <time>2018-05-16T16:37:51Z</time>
      </trkpt>
      <trkpt lat="43.98205" lon="5.64526">
        <ele>682</ele>
        <time>2018-05-16T16:38:51Z</time>
      </trkpt>
      <trkpt lat="43.98431" lon="5.64633">
        <ele>662</ele>
        <time>2018-05-16T16:39:51Z</time>
      </trkpt>
      <trkpt lat="43.9865" lon="5.65255">
        <ele>660</ele>
        <time>2018-05-16T16:40:51Z</time>
      </trkpt>
      <trkpt lat="43.98829" lon="5.6541">
        <ele>678</ele>
        <time>2018-05-16T16:41:51Z</time>
      </trkpt>
      <trkpt lat="43.99218" lon="5.65642">
        <ele>708</ele>
        <time>2018-05-16T16:42:51Z</time>
      </trkpt>
      <trkpt lat="43.9944" lon="5.65912">
        <ele>709</ele>
        <time>2018-05-16T16:43:51Z</time>
      </trkpt>
      <trkpt lat="43.9948" lon="5.65908">
        <ele>707</ele>
        <time>2018-05-16T16:44:51Z</time>
      </trkpt>
      <trkpt lat="43.99598" lon="5.65968">
        <ele>703</ele>
        <time>2018-05-16T16:45:51Z</time>
      </trkpt>
      <trkpt lat="43.99623" lon="5.66075">
        <ele>701</ele>
        <time>2018-05-16T16:46:51Z</time>
      </trkpt>
      <trkpt lat="43.99675" lon="5.66135">
        <ele>699</ele>
        <time>2018-05-16T16:47:51Z</time>
      </trkpt>
      <trkpt lat="43.99564" lon="5.66453">
        <ele>701</ele>
        <time>2018-05-16T16:48:51Z</time>
      </trkpt>
      <trkpt lat="43.99622" lon="5.6674">
        <ele>691</ele>
        <time>2018-05-16T16:49:51Z</time>
      </trkpt>
      <trkpt lat="43.99598" lon="5.66882">
        <ele>689</ele>
        <time>2018-05-16T16:50:51Z</time>
      </trkpt>
      <trkpt lat="43.99477" lon="5.67272">
        <ele>671</ele>
        <time>2018-05-16T16:51:51Z</time>
      </trkpt>
      <trkpt lat="43.9948" lon="5.67384">
        <ele>670</ele>
        <time>2018-05-16T16:52:51Z</time>
      </trkpt>
      <trkpt lat="43.99459" lon="5.67509">
        <ele>663</ele>
        <time>2018-05-16T16:53:51Z</time>
      </trkpt>
      <trkpt lat="43.99483" lon="5.67586">
        <ele>664</ele>
        <time>2018-05-16T16:54:51Z</time>
      </trkpt>
      <trkpt lat="43.99487" lon="5.67642">
        <ele>660</ele>
        <time>2018-05-16T16:55:51Z</time>
      </trkpt>
      <trkpt lat="43.99524" lon="5.67637">
        <ele>663</ele>
        <time>2018-05-16T16:56:51Z</time>
      </trkpt>
      <trkpt lat="43.99604" lon="5.6768">
        <ele>664</ele>
        <time>2018-05-16T16:57:51Z</time>
      </trkpt>
      <trkpt lat="43.99514" lon="5.67783">
        <ele>654</ele>
        <time>2018-05-16T16:58:51Z</time>
      </trkpt>
      <trkpt lat="43.99545" lon="5.67835">
        <ele>653</ele>
        <time>2018-05-16T16:59:51Z</time>
      </trkpt>
      <trkpt lat="43.9949" lon="5.67822">
        <ele>652</ele>
        <time>2018-05-16T17:00:51Z</time>
      </trkpt>
      <trkpt lat="43.99456" lon="5.68161">
        <ele>621</ele>
        <time>2018-05-16T17:01:51Z</time>
      </trkpt>
      <trkpt lat="43.99403" lon="5.6823">
        <ele>612</ele>
        <time>2018-05-16T17:02:51Z</time>
      </trkpt>
      <trkpt lat="43.99378" lon="5.68311">
        <ele>604</ele>
        <time>2018-05-16T17:03:51Z</time>
      </trkpt>
      <trkpt lat="43.99156" lon="5.68242">
        <ele>592</ele>
        <time>2018-05-16T17:04:51Z</time>
      </trkpt>
      <trkpt lat="43.99101" lon="5.68414">
        <ele>584</ele>
        <time>2018-05-16T17:05:51Z</time>
      </trkpt>
      <trkpt lat="43.99116" lon="5.68466">
        <ele>583</ele>
        <time>2018-05-16T17:06:51Z</time>
      </trkpt>
      <trkpt lat="43.99178" lon="5.68483">
        <ele>583</ele>
        <time>2018-05-16T17:07:51Z</time>
      </trkpt>
      <trkpt lat="43.99261" lon="5.68611">
        <ele>585</ele>
        <time>2018-05-16T17:08:51Z</time>
      </trkpt>
      <trkpt lat="43.9932" lon="5.68607">
        <ele>585</ele>
        <time>2018-05-16T17:09:51Z</time>
      </trkpt>
      <trkpt lat="43.99388" lon="5.68667">
        <ele>587</ele>
        <time>2018-05-16T17:10:51Z</time>
      </trkpt>
      <trkpt lat="43.99459" lon="5.68744">
        <ele>590</ele>
        <time>2018-05-16T17:11:51Z</time>
      </trkpt>
      <trkpt lat="43.9948" lon="5.68886">
        <ele>595</ele>
        <time>2018-05-16T17:12:51Z</time>
      </trkpt>
      <trkpt lat="43.99428" lon="5.69011">
        <ele>602</ele>
        <time>2018-05-16T17:13:51Z</time>
      </trkpt>
      <trkpt lat="43.99409" lon="5.69144">
        <ele>606</ele>
        <time>2018-05-16T17:14:51Z</time>
      </trkpt>
      <trkpt lat="43.99425" lon="5.69345">
        <ele>612</ele>
        <time>2018-05-16T17:15:51Z</time>
      </trkpt>
      <trkpt lat="43.99409" lon="5.69401">
        <ele>614</ele>
        <time>2018-05-16T17:16:51Z</time>
      </trkpt>
      <trkpt lat="43.994" lon="5.69534">
        <ele>619</ele>
        <time>2018-05-16T17:17:51Z</time>
      </trkpt>
      <trkpt lat="43.99363" lon="5.69603">
        <ele>622</ele>
        <time>2018-05-16T17:18:51Z</time>
      </trkpt>
      <trkpt lat="43.99388" lon="5.69796">
        <ele>635</ele>
        <time>2018-05-16T17:19:51Z</time>
      </trkpt>
      <trkpt lat="43.9948" lon="5.69847">
        <ele>644</ele>
        <time>2018-05-16T17:20:51Z</time>
      </trkpt>
      <trkpt lat="43.99513" lon="5.70131">
        <ele>660</ele>
        <time>2018-05-16T17:21:51Z</time>
      </trkpt>
      <trkpt lat="43.99358" lon="5.70457">
        <ele>692</ele>
        <time>2018-05-16T17:22:51Z</time>
      </trkpt>
      <trkpt lat="43.99439" lon="5.70517">
        <ele>701</ele>
        <time>2018-05-16T17:23:51Z</time>
      </trkpt>
      <trkpt lat="43.99399" lon="5.70538">
        <ele>709</ele>
        <time>2018-05-16T17:24:51Z</time>
      </trkpt>
      <trkpt lat="43.99362" lon="5.70611">
        <ele>729</ele>
        <time>2018-05-16T17:25:51Z</time>
      </trkpt>
      <trkpt lat="43.99121" lon="5.70706">
        <ele>747</ele>
        <time>2018-05-16T17:26:51Z</time>
      </trkpt>
      <trkpt lat="43.99155" lon="5.71122">
        <ele>736</ele>
        <time>2018-05-16T17:27:51Z</time>
      </trkpt>
      <trkpt lat="43.99107" lon="5.71482">
        <ele>700</ele>
        <time>2018-05-16T17:28:51Z</time>
      </trkpt>
      <trkpt lat="43.99099" lon="5.71852">
        <ele>660</ele>
        <time>2018-05-16T17:29:51Z</time>
      </trkpt>
      <trkpt lat="43.98926" lon="5.71864">
        <ele>659</ele>
        <time>2018-05-16T17:30:51Z</time>
      </trkpt>
      <trkpt lat="43.98948" lon="5.72015">
        <ele>651</ele>
        <time>2018-05-16T17:31:51Z</time>
      </trkpt>
      <trkpt lat="43.98908" lon="5.7204">
        <ele>658</ele>
        <time>2018-05-16T17:32:51Z</time>
      </trkpt>
      <trkpt lat="43.98883" lon="5.72212">
        <ele>659</ele>
        <time>2018-05-16T17:33:51Z</time>
      </trkpt>
      <trkpt lat="43.98775" lon="5.72371">
        <ele>643</ele>
        <time>2018-05-16T17:34:51Z</time>
      </trkpt>
      <trkpt lat="43.98772" lon="5.72431">
        <ele>636</ele>
        <time>2018-05-16T17:35:51Z</time>
      </trkpt>
      <trkpt lat="43.98639" lon="5.72534">
        <ele>614</ele>
        <time>2018-05-16T17:36:51Z</time>
      </trkpt>
      <trkpt lat="43.98583" lon="5.72525">
        <ele>615</ele>
        <time>2018-05-16T17:37:51Z</time>
      </trkpt>
      <trkpt lat="43.98614" lon="5.72654">
        <ele>604</ele>
        <time>2018-05-16T17:38:51Z</time>
      </trkpt>
      <trkpt lat="43.98577" lon="5.72843">
        <ele>587</ele>
        <time>2018-05-16T17:39:51Z</time>
      </trkpt>
      <trkpt lat="43.98537" lon="5.72916">
        <ele>578</ele>
        <time>2018-05-16T17:40:51Z</time>
      </trkpt>
      <trkpt lat="43.98463" lon="5.72972">
        <ele>574</ele>
        <time>2018-05-16T17:41:51Z</time>
      </trkpt>
      <trkpt lat="43.98417" lon="5.73066">
        <ele>571</ele>
        <time>2018-05-16T17:42:51Z</time>
      </trkpt>
      <trkpt lat="43.98234" lon="5.72834">
        <ele>556</ele>
        <time>2018-05-16T17:43:51Z</time>
      </trkpt>
      <trkpt lat="43.98274" lon="5.72907">
        <ele>558</ele>
        <time>2018-05-16T17:44:51Z</time>
      </trkpt>
      <trkpt lat="43.98167" lon="5.72796">
        <ele>556</ele>
        <time>2018-05-16T17:45:51Z</time>
      </trkpt>
      <trkpt lat="43.97907" lon="5.7292">
        <ele>551</ele>
        <time>2018-05-16T17:46:51Z</time>
      </trkpt>
      <trkpt lat="43.97852" lon="5.7283">
        <ele>564</ele>
        <time>2018-05-16T17:47:51Z</time>
      </trkpt>
      <trkpt lat="43.97821" lon="5.72882">
        <ele>554</ele>
        <time>2018-05-16T17:48:51Z</time>
      </trkpt>
      <trkpt lat="43.97753" lon="5.72839">
        <ele>560</ele>
        <time>2018-05-16T17:49:51Z</time>
      </trkpt>
      <trkpt lat="43.97564" lon="5.72899">
        <ele>567</ele>
        <time>2018-05-16T17:50:51Z</time>
      </trkpt>
      <trkpt lat="43.97481" lon="5.72942">
        <ele>564</ele>
        <time>2018-05-16T17:51:51Z</time>
      </trkpt>
      <trkpt lat="43.97398" lon="5.72937">
        <ele>558</ele>
        <time>2018-05-16T17:52:51Z</time>
      </trkpt>
      <trkpt lat="43.97218" lon="5.72787">
        <ele>553</ele>
        <time>2018-05-16T17:53:51Z</time>
      </trkpt>
      <trkpt lat="43.97194" lon="5.72706">
        <ele>558</ele>
        <time>2018-05-16T17:54:51Z</time>
      </trkpt>
      <trkpt lat="43.9716" lon="5.72748">
        <ele>547</ele>
        <time>2018-05-16T17:55:51Z</time>
      </trkpt>
      <trkpt lat="43.97095" lon="5.72744">
        <ele>544</ele>
        <time>2018-05-16T17:56:51Z</time>
      </trkpt>
      <trkpt lat="43.9707" lon="5.72667">
        <ele>555</ele>
        <time>2018-05-16T17:57:51Z</time>
      </trkpt>
      <trkpt lat="43.96811" lon="5.72667">
        <ele>575</ele>
        <time>2018-05-16T17:58:51Z</time>
      </trkpt>
      <trkpt lat="43.96755" lon="5.72731">
        <ele>574</ele>
        <time>2018-05-16T17:59:51Z</time>
      </trkpt>
      <trkpt lat="43.96622" lon="5.7271">
        <ele>575</ele>
        <time>2018-05-16T18:00:51Z</time>
      </trkpt>
      <trkpt lat="43.96517" lon="5.72748">
        <ele>576</ele>
        <time>2018-05-16T18:01:51Z</time>
      </trkpt>
      <trkpt lat="43.96456" lon="5.72813">
        <ele>575</ele>
        <time>2018-05-16T18:02:51Z</time>
      </trkpt>
      <trkpt lat="43.96431" lon="5.73083">
        <ele>558</ele>
        <time>2018-05-16T18:03:51Z</time>
      </trkpt>
      <trkpt lat="43.96409" lon="5.73203">
        <ele>545</ele>
        <time>2018-05-16T18:04:51Z</time>
      </trkpt>
      <trkpt lat="43.96375" lon="5.73272">
        <ele>538</ele>
        <time>2018-05-16T18:05:51Z</time>
      </trkpt>
      <trkpt lat="43.96351" lon="5.73461">
        <ele>518</ele>
        <time>2018-05-16T18:06:51Z</time>
      </trkpt>
      <trkpt lat="43.96295" lon="5.73577">
        <ele>503</ele>
        <time>2018-05-16T18:07:51Z</time>
      </trkpt>
      <trkpt lat="43.96406" lon="5.73924">
        <ele>471</ele>
        <time>2018-05-16T18:08:51Z</time>
      </trkpt>
      <trkpt lat="43.96477" lon="5.73993">
        <ele>471</ele>
        <time>2018-05-16T18:09:51Z</time>
      </trkpt>
      <trkpt lat="43.96422" lon="5.74023">
        <ele>473</ele>
        <time>2018-05-16T18:10:51Z</time>
      </trkpt>
      <trkpt lat="43.96375" lon="5.74233">
        <ele>514</ele>
        <time>2018-05-16T18:11:51Z</time>
      </trkpt>
      <trkpt lat="43.96042" lon="5.74311">
        <ele>546</ele>
        <time>2018-05-16T18:12:51Z</time>
      </trkpt>
      <trkpt lat="43.95943" lon="5.74594">
        <ele>562</ele>
        <time>2018-05-16T18:13:51Z</time>
      </trkpt>
      <trkpt lat="43.95881" lon="5.74658">
        <ele>577</ele>
        <time>2018-05-16T18:14:51Z</time>
      </trkpt>
      <trkpt lat="43.95742" lon="5.74684">
        <ele>582</ele>
        <time>2018-05-16T18:15:51Z</time>
      </trkpt>
      <trkpt lat="43.95705" lon="5.74907">
        <ele>620</ele>
        <time>2018-05-16T18:16:51Z</time>
      </trkpt>
      <trkpt lat="43.9556" lon="5.74959">
        <ele>634</ele>
        <time>2018-05-16T18:17:51Z</time>
      </trkpt>
      <trkpt lat="43.95547" lon="5.75375">
        <ele>622</ele>
        <time>2018-05-16T18:18:51Z</time>
      </trkpt>
      <trkpt lat="43.95634" lon="5.75482">
        <ele>622</ele>
        <time>2018-05-16T18:19:51Z</time>
      </trkpt>
      <trkpt lat="43.95708" lon="5.75705">
        <ele>621</ele>
        <time>2018-05-16T18:20:51Z</time>
      </trkpt>
      <trkpt lat="43.95776" lon="5.75826">
        <ele>617</ele>
        <time>2018-05-16T18:21:51Z</time>
      </trkpt>
      <trkpt lat="43.95791" lon="5.75929">
        <ele>620</ele>
        <time>2018-05-16T18:22:51Z</time>
      </trkpt>
      <trkpt lat="43.95903" lon="5.7595">
        <ele>612</ele>
        <time>2018-05-16T18:23:51Z</time>
      </trkpt>
      <trkpt lat="43.95924" lon="5.761">
        <ele>603</ele>
        <time>2018-05-16T18:24:51Z</time>
      </trkpt>
      <trkpt lat="43.95859" lon="5.76409">
        <ele>585</ele>
        <time>2018-05-16T18:25:51Z</time>
      </trkpt>
      <trkpt lat="43.95896" lon="5.76546">
        <ele>574</ele>
        <time>2018-05-16T18:26:51Z</time>
      </trkpt>
      <trkpt lat="43.95875" lon="5.76873">
        <ele>536</ele>
        <time>2018-05-16T18:27:51Z</time>
      </trkpt>
      <trkpt lat="43.95804" lon="5.77057">
        <ele>515</ele>
        <time>2018-05-16T18:28:51Z</time>
      </trkpt>
      <trkpt lat="43.95896" lon="5.77083">
        <ele>508</ele>
        <time>2018-05-16T18:29:51Z</time>
      </trkpt>
      <trkpt lat="43.95847" lon="5.77195">
        <ele>513</ele>
        <time>2018-05-16T18:30:51Z</time>
      </trkpt>
      <trkpt lat="43.95727" lon="5.77328">
        <ele>532</ele>
        <time>2018-05-16T18:31:51Z</time>
      </trkpt>
      <trkpt lat="43.9593" lon="5.7731">
        <ele>557</ele>
        <time>2018-05-16T18:32:51Z</time>
      </trkpt>
      <trkpt lat="43.96066" lon="5.77263">
        <ele>577</ele>
        <time>2018-05-16T18:33:51Z</time>
      </trkpt>
      <trkpt lat="43.96415" lon="5.77495">
        <ele>611</ele>
        <time>2018-05-16T18:34:51Z</time>
      </trkpt>
      <trkpt lat="43.96734" lon="5.77607">
        <ele>638</ele>
        <time>2018-05-16T18:35:51Z</time>
      </trkpt>
      <trkpt lat="43.97067" lon="5.77529">
        <ele>646</ele>
        <time>2018-05-16T18:36:51Z</time>
      </trkpt>
      <trkpt lat="43.97166" lon="5.77679">
        <ele>647</ele>
        <time>2018-05-16T18:37:51Z</time>
      </trkpt>
      <trkpt lat="43.97262" lon="5.77551">
        <ele>659</ele>
        <time>2018-05-16T18:38:51Z</time>
      </trkpt>
      <trkpt lat="43.97364" lon="5.77611">
        <ele>662</ele>
        <time>2018-05-16T18:39:51Z</time>
      </trkpt>
      <trkpt lat="43.97425" lon="5.77671">
        <ele>664</ele>
        <time>2018-05-16T18:40:51Z</time>
      </trkpt>
      <trkpt lat="43.97546" lon="5.77684">
        <ele>666</ele>
        <time>2018-05-16T18:41:51Z</time>
      </trkpt>
      <trkpt lat="43.97246" lon="5.78074">
        <ele>625</ele>
        <time>2018-05-16T18:42:51Z</time>
      </trkpt>
      <trkpt lat="43.97042" lon="5.78469">
        <ele>609</ele>
        <time>2018-05-16T18:43:51Z</time>
      </trkpt>
      <trkpt lat="43.96981" lon="5.78692">
        <ele>594</ele>
        <time>2018-05-16T18:44:51Z</time>
      </trkpt>
      <trkpt lat="43.96971" lon="5.78868">
        <ele>576</ele>
        <time>2018-05-16T18:45:51Z</time>
      </trkpt>
      <trkpt lat="43.96922" lon="5.7895">
        <ele>578</ele>
        <time>2018-05-16T18:46:51Z</time>
      </trkpt>
      <trkpt lat="43.96774" lon="5.79143">
        <ele>561</ele>
        <time>2018-05-16T18:47:51Z</time>
      </trkpt>
      <trkpt lat="43.9669" lon="5.79079">
        <ele>558</ele>
        <time>2018-05-16T18:48:51Z</time>
      </trkpt>
      <trkpt lat="43.96641" lon="5.79104">
        <ele>552</ele>
        <time>2018-05-16T18:49:51Z</time>
      </trkpt>
      <trkpt lat="43.96687" lon="5.79383">
        <ele>541</ele>
        <time>2018-05-16T18:50:51Z</time>
      </trkpt>
      <trkpt lat="43.96789" lon="5.79392">
        <ele>545</ele>
        <time>2018-05-16T18:51:51Z</time>
      </trkpt>
      <trkpt lat="43.96764" lon="5.79465">
        <ele>538</ele>
        <time>2018-05-16T18:52:51Z</time>
      </trkpt>
      <trkpt lat="43.96811" lon="5.79525">
        <ele>539</ele>
        <time>2018-05-16T18:53:51Z</time>
      </trkpt>
      <trkpt lat="43.96903" lon="5.79546">
        <ele>541</ele>
        <time>2018-05-16T18:54:51Z</time>
      </trkpt>
      <trkpt lat="43.96962" lon="5.79589">
        <ele>535</ele>
        <time>2018-05-16T18:55:51Z</time>
      </trkpt>
      <trkpt lat="43.97209" lon="5.79516">
        <ele>499</ele>
        <time>2018-05-16T18:56:51Z</time>
      </trkpt>
      <trkpt lat="43.97252" lon="5.79576">
        <ele>498</ele>
        <time>2018-05-16T18:57:51Z</time>
      </trkpt>
      <trkpt lat="43.97234" lon="5.79641">
        <ele>499</ele>
        <time>2018-05-16T18:58:51Z</time>
      </trkpt>
      <trkpt lat="43.97215" lon="5.79714">
        <ele>498</ele>
        <time>2018-05-16T18:59:51Z</time>
      </trkpt>
      <trkpt lat="43.97073" lon="5.79907">
        <ele>481</ele>
        <time>2018-05-16T19:00:51Z</time>
      </trkpt>
      <trkpt lat="43.97027" lon="5.79898">
        <ele>485</ele>
        <time>2018-05-16T19:01:51Z</time>
      </trkpt>
      <trkpt lat="43.9691" lon="5.80014">
        <ele>481</ele>
        <time>2018-05-16T19:02:51Z</time>
      </trkpt>
      <trkpt lat="43.96851" lon="5.79988">
        <ele>482</ele>
        <time>2018-05-16T19:03:51Z</time>
      </trkpt>
      <trkpt lat="43.96832" lon="5.80048">
        <ele>478</ele>
        <time>2018-05-16T19:04:51Z</time>
      </trkpt>
      <trkpt lat="43.96758" lon="5.80078">
        <ele>475</ele>
        <time>2018-05-16T19:05:51Z</time>
      </trkpt>
      <trkpt lat="43.9682" lon="5.80169">
        <ele>482</ele>
        <time>2018-05-16T19:06:51Z</time>
      </trkpt>
      <trkpt lat="43.96869" lon="5.80181">
        <ele>486</ele>
        <time>2018-05-16T19:07:51Z</time>
      </trkpt>
      <trkpt lat="43.96897" lon="5.8025">
        <ele>496</ele>
        <time>2018-05-16T19:08:51Z</time>
      </trkpt>
      <trkpt lat="43.96903" lon="5.80585">
        <ele>532</ele>
        <time>2018-05-16T19:09:51Z</time>
      </trkpt>
      <trkpt lat="43.96885" lon="5.80761">
        <ele>540</ele>
        <time>2018-05-16T19:10:51Z</time>
      </trkpt>
      <trkpt lat="43.96937" lon="5.80808">
        <ele>543</ele>
        <time>2018-05-16T19:11:51Z</time>
      </trkpt>
      <trkpt lat="43.96854" lon="5.80911">
        <ele>537</ele>
        <time>2018-05-16T19:12:51Z</time>
      </trkpt>
      <trkpt lat="43.9699" lon="5.80847">
        <ele>548</ele>
        <time>2018-05-16T19:13:51Z</time>
      </trkpt>
      <trkpt lat="43.97074" lon="5.80868">
        <ele>552</ele>
        <time>2018-05-16T19:14:51Z</time>
      </trkpt>
      <trkpt lat="43.97148" lon="5.80954">
        <ele>558</ele>
        <time>2018-05-16T19:15:51Z</time>
      </trkpt>
      <trkpt lat="43.9726" lon="5.81053">
        <ele>565</ele>
        <time>2018-05-16T19:16:51Z</time>
      </trkpt>
      <trkpt lat="43.97307" lon="5.8134">
        <ele>566</ele>
        <time>2018-05-16T19:17:51Z</time>
      </trkpt>
      <trkpt lat="43.9727" lon="5.814">
        <ele>563</ele>
        <time>2018-05-16T19:18:51Z</time>
      </trkpt>
      <trkpt lat="43.9727" lon="5.81465">
        <ele>556</ele>
        <time>2018-05-16T19:19:51Z</time>
      </trkpt>
      <trkpt lat="43.9718" lon="5.81645">
        <ele>539</ele>
        <time>2018-05-16T19:20:51Z</time>
      </trkpt>
      <trkpt lat="43.97097" lon="5.81829">
        <ele>528</ele>
        <time>2018-05-16T19:21:51Z</time>
      </trkpt>
      <trkpt lat="43.96986" lon="5.81829">
        <ele>525</ele>
        <time>2018-05-16T19:22:51Z</time>
      </trkpt>
      <trkpt lat="43.96964" lon="5.82168">
        <ele>513</ele>
        <time>2018-05-16T19:23:51Z</time>
      </trkpt>
      <trkpt lat="43.96859" lon="5.82404">
        <ele>495</ele>
        <time>2018-05-16T19:24:51Z</time>
      </trkpt>
      <trkpt lat="43.96908" lon="5.8243">
        <ele>494</ele>
        <time>2018-05-16T19:25:51Z</time>
      </trkpt>
      <trkpt lat="43.96862" lon="5.82542">
        <ele>490</ele>
        <time>2018-05-16T19:26:51Z</time>
      </trkpt>
      <trkpt lat="43.96627" lon="5.82675">
        <ele>481</ele>
        <time>2018-05-16T19:27:51Z</time>
      </trkpt>
      <trkpt lat="43.9655" lon="5.82748">
        <ele>475</ele>
        <time>2018-05-16T19:28:51Z</time>
      </trkpt>
      <trkpt lat="43.96494" lon="5.82756">
        <ele>477</ele>
        <time>2018-05-16T19:29:51Z</time>
      </trkpt>
      <trkpt lat="43.96454" lon="5.82816">
        <ele>474</ele>
        <time>2018-05-16T19:30:51Z</time>
      </trkpt>
      <trkpt lat="43.96439" lon="5.82885">
        <ele>472</ele>
        <time>2018-05-16T19:31:51Z</time>
      </trkpt>
      <trkpt lat="43.96331" lon="5.83061">
        <ele>463</ele>
        <time>2018-05-16T19:32:51Z</time>
      </trkpt>
      <trkpt lat="43.96337" lon="5.8313">
        <ele>464</ele>
        <time>2018-05-16T19:33:51Z</time>
      </trkpt>
      <trkpt lat="43.96275" lon="5.83147">
        <ele>460</ele>
        <time>2018-05-16T19:34:51Z</time>
      </trkpt>
      <trkpt lat="43.96201" lon="5.83276">
        <ele>457</ele>
        <time>2018-05-16T19:35:51Z</time>
      </trkpt>
      <trkpt lat="43.9614" lon="5.83336">
        <ele>454</ele>
        <time>2018-05-16T19:36:51Z</time>
      </trkpt>
      <trkpt lat="43.96107" lon="5.83567">
        <ele>450</ele>
        <time>2018-05-16T19:37:51Z</time>
      </trkpt>
      <trkpt lat="43.96128" lon="5.83662">
        <ele>451</ele>
        <time>2018-05-16T19:38:51Z</time>
      </trkpt>
      <trkpt lat="43.96131" lon="5.83769">
        <ele>448</ele>
        <time>2018-05-16T19:39:51Z</time>
      </trkpt>
      <trkpt lat="43.96203" lon="5.83825">
        <ele>454</ele>
        <time>2018-05-16T19:40:51Z</time>
      </trkpt>
      <trkpt lat="43.96249" lon="5.83889">
        <ele>456</ele>
        <time>2018-05-16T19:41:51Z</time>
      </trkpt>
      <trkpt lat="43.9644" lon="5.83945">
        <ele>484</ele>
        <time>2018-05-16T19:42:51Z</time>
      </trkpt>
      <trkpt lat="43.96499" lon="5.84005">
        <ele>490</ele>
        <time>2018-05-16T19:43:51Z</time>
      </trkpt>
      <trkpt lat="43.96595" lon="5.83997">
        <ele>501</ele>
        <time>2018-05-16T19:44:51Z</time>
      </trkpt>
      <trkpt lat="43.96657" lon="5.84001">
        <ele>504</ele>
        <time>2018-05-16T19:45:51Z</time>
      </trkpt>
      <trkpt lat="43.96728" lon="5.84112">
        <ele>506</ele>
        <time>2018-05-16T19:46:51Z</time>
      </trkpt>
      <trkpt lat="43.96752" lon="5.84035">
        <ele>508</ele>
        <time>2018-05-16T19:47:51Z</time>
      </trkpt>
      <trkpt lat="43.96987" lon="5.83971">
        <ele>518</ele>
        <time>2018-05-16T19:48:51Z</time>
      </trkpt>
      <trkpt lat="43.97148" lon="5.83756">
        <ele>527</ele>
        <time>2018-05-16T19:49:51Z</time>
      </trkpt>
      <trkpt lat="43.97311" lon="5.83696">
        <ele>530</ele>
        <time>2018-05-16T19:50:51Z</time>
      </trkpt>
      <trkpt lat="43.97386" lon="5.83705">
        <ele>530</ele>
        <time>2018-05-16T19:51:51Z</time>
      </trkpt>
      <trkpt lat="43.97497" lon="5.83649">
        <ele>527</ele>
        <time>2018-05-16T19:52:51Z</time>
      </trkpt>
      <trkpt lat="43.97648" lon="5.83632">
        <ele>531</ele>
        <time>2018-05-16T19:53:51Z</time>
      </trkpt>
      <trkpt lat="43.97864" lon="5.83791">
        <ele>547</ele>
        <time>2018-05-16T19:54:51Z</time>
      </trkpt>
      <trkpt lat="43.97907" lon="5.83945">
        <ele>544</ele>
        <time>2018-05-16T19:55:51Z</time>
      </trkpt>
      <trkpt lat="43.98139" lon="5.83834">
        <ele>531</ele>
        <time>2018-05-16T19:56:51Z</time>
      </trkpt>
      <trkpt lat="43.98238" lon="5.83786">
        <ele>525</ele>
        <time>2018-05-16T19:57:51Z</time>
      </trkpt>
      <trkpt lat="43.98293" lon="5.83821">
        <ele>519</ele>
        <time>2018-05-16T19:58:51Z</time>
      </trkpt>
      <trkpt lat="43.98435" lon="5.83791">
        <ele>517</ele>
        <time>2018-05-16T19:59:51Z</time>
      </trkpt>
      <trkpt lat="43.98519" lon="5.837">
        <ele>512</ele>
        <time>2018-05-16T20:00:51Z</time>
      </trkpt>
      <trkpt lat="43.98531" lon="5.83808">
        <ele>507</ele>
        <time>2018-05-16T20:01:51Z</time>
      </trkpt>
      <trkpt lat="43.98676" lon="5.83872">
        <ele>503</ele>
        <time>2018-05-16T20:02:51Z</time>
      </trkpt>
      <trkpt lat="43.98787" lon="5.83915">
        <ele>497</ele>
        <time>2018-05-16T20:03:51Z</time>
      </trkpt>
      <trkpt lat="43.98846" lon="5.83924">
        <ele>492</ele>
        <time>2018-05-16T20:04:51Z</time>
      </trkpt>
      <trkpt lat="43.98905" lon="5.83958">
        <ele>487</ele>
        <time>2018-05-16T20:05:51Z</time>
      </trkpt>
      <trkpt lat="43.98948" lon="5.83924">
        <ele>483</ele>
        <time>2018-05-16T20:06:51Z</time>
      </trkpt>
      <trkpt lat="43.98988" lon="5.83967">
        <ele>479</ele>
        <time>2018-05-16T20:07:51Z</time>
      </trkpt>
      <trkpt lat="43.98939" lon="5.84018">
        <ele>484</ele>
        <time>2018-05-16T20:08:51Z</time>
      </trkpt>
      <trkpt lat="43.99007" lon="5.84014">
        <ele>477</ele>
        <time>2018-05-16T20:09:51Z</time>
      </trkpt>
      <trkpt lat="43.99044" lon="5.84061">
        <ele>478</ele>
        <time>2018-05-16T20:10:51Z</time>
      </trkpt>
      <trkpt lat="43.99167" lon="5.84112">
        <ele>475</ele>
        <time>2018-05-16T20:11:51Z</time>
      </trkpt>
      <trkpt lat="43.99479" lon="5.84138">
        <ele>478</ele>
        <time>2018-05-16T20:12:51Z</time>
      </trkpt>
      <trkpt lat="43.99565" lon="5.8413">
        <ele>487</ele>
        <time>2018-05-16T20:13:51Z</time>
      </trkpt>
      <trkpt lat="43.99652" lon="5.841">
        <ele>494</ele>
        <time>2018-05-16T20:14:51Z</time>
      </trkpt>
      <trkpt lat="43.99713" lon="5.84057">
        <ele>496</ele>
        <time>2018-05-16T20:15:51Z</time>
      </trkpt>
      <trkpt lat="43.9996" lon="5.84065">
        <ele>502</ele>
        <time>2018-05-16T20:16:51Z</time>
      </trkpt>
      <trkpt lat="44.00198" lon="5.84027">
        <ele>514</ele>
        <time>2018-05-16T20:17:51Z</time>
      </trkpt>
      <trkpt lat="44.00254" lon="5.84044">
        <ele>522</ele>
        <time>2018-05-16T20:18:51Z</time>
      </trkpt>
      <trkpt lat="44.00491" lon="5.8404">
        <ele>547</ele>
        <time>2018-05-16T20:19:51Z</time>
      </trkpt>
      <trkpt lat="44.00541" lon="5.84005">
        <ele>550</ele>
        <time>2018-05-16T20:20:51Z</time>
      </trkpt>
      <trkpt lat="44.0063" lon="5.84052">
        <ele>567</ele>
        <time>2018-05-16T20:21:51Z</time>
      </trkpt>
      <trkpt lat="44.00791" lon="5.84057">
        <ele>575</ele>
        <time>2018-05-16T20:22:51Z</time>
      </trkpt>
      <trkpt lat="44.00991" lon="5.84125">
        <ele>594</ele>
        <time>2018-05-16T20:23:51Z</time>
      </trkpt>
      <trkpt lat="44.01316" lon="5.84065">
        <ele>634</ele>
        <time>2018-05-16T20:24:51Z</time>
      </trkpt>
      <trkpt lat="44.01408" lon="5.84087">
        <ele>646</ele>
        <time>2018-05-16T20:25:51Z</time>
      </trkpt>
      <trkpt lat="44.01485" lon="5.84074">
        <ele>652</ele>
        <time>2018-05-16T20:26:51Z</time>
      </trkpt>
      <trkpt lat="44.01599" lon="5.83975">
        <ele>662</ele>
        <time>2018-05-16T20:27:51Z</time>
      </trkpt>
      <trkpt lat="44.01667" lon="5.83859">
        <ele>672</ele>
        <time>2018-05-16T20:28:51Z</time>
      </trkpt>
      <trkpt lat="44.0163" lon="5.83812">
        <ele>672</ele>
        <time>2018-05-16T20:29:51Z</time>
      </trkpt>
      <trkpt lat="44.01877" lon="5.83383">
        <ele>732</ele>
        <time>2018-05-16T20:30:51Z</time>
      </trkpt>
      <trkpt lat="44.01905" lon="5.83297">
        <ele>740</ele>
        <time>2018-05-16T20:31:51Z</time>
      </trkpt>
      <trkpt lat="44.02004" lon="5.83258">
        <ele>753</ele>
        <time>2018-05-16T20:32:51Z</time>
      </trkpt>
      <trkpt lat="44.02035" lon="5.83151">
        <ele>765</ele>
        <time>2018-05-16T20:33:51Z</time>
      </trkpt>
      <trkpt lat="44.02053" lon="5.8322">
        <ele>763</ele>
        <time>2018-05-16T20:34:51Z</time>
      </trkpt>
      <trkpt lat="44.02115" lon="5.83168">
        <ele>776</ele>
        <time>2018-05-16T20:35:51Z</time>
      </trkpt>
      <trkpt lat="44.02065" lon="5.82941">
        <ele>778</ele>
        <time>2018-05-16T20:36:51Z</time>
      </trkpt>
      <trkpt lat="44.02152" lon="5.82456">
        <ele>776</ele>
        <time>2018-05-16T20:37:51Z</time>
      </trkpt>
      <trkpt lat="44.02488" lon="5.82289">
        <ele>751</ele>
        <time>2018-05-16T20:38:51Z</time>
      </trkpt>
      <trkpt lat="44.0255" lon="5.82259">
        <ele>745</ele>
        <time>2018-05-16T20:39:51Z</time>
      </trkpt>
      <trkpt lat="44.02673" lon="5.82276">
        <ele>743</ele>
        <time>2018-05-16T20:40:51Z</time>
      </trkpt>
      <trkpt lat="44.02747" lon="5.82473">
        <ele>755</ele>
        <time>2018-05-16T20:41:51Z</time>
      </trkpt>
      <trkpt lat="44.02827" lon="5.82576">
        <ele>763</ele>
        <time>2018-05-16T20:42:51Z</time>
      </trkpt>
      <trkpt lat="44.0288" lon="5.82872">
        <ele>748</ele>
        <time>2018-05-16T20:43:51Z</time>
      </trkpt>
      <trkpt lat="44.03053" lon="5.82829">
        <ele>736</ele>
        <time>2018-05-16T20:44:51Z</time>
      </trkpt>
      <trkpt lat="44.0313" lon="5.82816">
        <ele>731</ele>
        <time>2018-05-16T20:45:51Z</time>
      </trkpt>
      <trkpt lat="44.03164" lon="5.82859">
        <ele>729</ele>
        <time>2018-05-16T20:46:51Z</time>
      </trkpt>
      <trkpt lat="44.03171" lon="5.82984">
        <ele>719</ele>
        <time>2018-05-16T20:47:51Z</time>
      </trkpt>
      <trkpt lat="44.03214" lon="5.8304">
        <ele>712</ele>
        <time>2018-05-16T20:48:51Z</time>
      </trkpt>
      <trkpt lat="44.0343" lon="5.8316">
        <ele>700</ele>
        <time>2018-05-16T20:49:51Z</time>
      </trkpt>
      <trkpt lat="44.0347" lon="5.83203">
        <ele>702</ele>
        <time>2018-05-16T20:50:51Z</time>
      </trkpt>
      <trkpt lat="44.03559" lon="5.83396">
        <ele>709</ele>
        <time>2018-05-16T20:51:51Z</time>
      </trkpt>
      <trkpt lat="44.03599" lon="5.83443">
        <ele>711</ele>
        <time>2018-05-16T20:52:51Z</time>
      </trkpt>
      <trkpt lat="44.03661" lon="5.83464">
        <ele>714</ele>
        <time>2018-05-16T20:53:51Z</time>
      </trkpt>
      <trkpt lat="44.03837" lon="5.83726">
        <ele>668</ele>
        <time>2018-05-16T20:54:51Z</time>
      </trkpt>
      <trkpt lat="44.03871" lon="5.83705">
        <ele>655</ele>
        <time>2018-05-16T20:55:51Z</time>
      </trkpt>
      <trkpt lat="44.03948" lon="5.83885">
        <ele>629</ele>
        <time>2018-05-16T20:56:51Z</time>
      </trkpt>
      <trkpt lat="44.04013" lon="5.83894">
        <ele>615</ele>
        <time>2018-05-16T20:57:51Z</time>
      </trkpt>
      <trkpt lat="44.04047" lon="5.83932">
        <ele>605</ele>
        <time>2018-05-16T20:58:51Z</time>
      </trkpt>
      <trkpt lat="44.04257" lon="5.83975">
        <ele>568</ele>
        <time>2018-05-16T20:59:51Z</time>
      </trkpt>
      <trkpt lat="44.04297" lon="5.84112">
        <ele>563</ele>
        <time>2018-05-16T21:00:51Z</time>
      </trkpt>
      <trkpt lat="44.04346" lon="5.84147">
        <ele>565</ele>
        <time>2018-05-16T21:01:51Z</time>
      </trkpt>
      <trkpt lat="44.04377" lon="5.84138">
        <ele>566</ele>
        <time>2018-05-16T21:02:51Z</time>
      </trkpt>
      <trkpt lat="44.04463" lon="5.84009">
        <ele>571</ele>
        <time>2018-05-16T21:03:51Z</time>
      </trkpt>
      <trkpt lat="44.04707" lon="5.84095">
        <ele>578</ele>
        <time>2018-05-16T21:04:51Z</time>
      </trkpt>
      <trkpt lat="44.04793" lon="5.84284">
        <ele>582</ele>
        <time>2018-05-16T21:05:51Z</time>
      </trkpt>
      <trkpt lat="44.0492" lon="5.84469">
        <ele>585</ele>
        <time>2018-05-16T21:06:51Z</time>
      </trkpt>
      <trkpt lat="44.05031" lon="5.84546">
        <ele>587</ele>
        <time>2018-05-16T21:07:51Z</time>
      </trkpt>
      <trkpt lat="44.05102" lon="5.84542">
        <ele>589</ele>
        <time>2018-05-16T21:08:51Z</time>
      </trkpt>
      <trkpt lat="44.05163" lon="5.84675">
        <ele>588</ele>
        <time>2018-05-16T21:09:51Z</time>
      </trkpt>
      <trkpt lat="44.05169" lon="5.84743">
        <ele>587</ele>
        <time>2018-05-16T21:10:51Z</time>
      </trkpt>
      <trkpt lat="44.05277" lon="5.84898">
        <ele>594</ele>
        <time>2018-05-16T21:11:51Z</time>
      </trkpt>
      <trkpt lat="44.05376" lon="5.84984">
        <ele>613</ele>
        <time>2018-05-16T21:12:51Z</time>
      </trkpt>
      <trkpt lat="44.0537" lon="5.85048">
        <ele>618</ele>
        <time>2018-05-16T21:13:51Z</time>
      </trkpt>
      <trkpt lat="44.0545" lon="5.85224">
        <ele>625</ele>
        <time>2018-05-16T21:14:51Z</time>
      </trkpt>
      <trkpt lat="44.05555" lon="5.85318">
        <ele>630</ele>
        <time>2018-05-16T21:15:51Z</time>
      </trkpt>
      <trkpt lat="44.05595" lon="5.8531">
        <ele>633</ele>
        <time>2018-05-16T21:16:51Z</time>
      </trkpt>
      <trkpt lat="44.05842" lon="5.85906">
        <ele>640</ele>
        <time>2018-05-16T21:17:51Z</time>
      </trkpt>
      <trkpt lat="44.05928" lon="5.85941">
        <ele>646</ele>
        <time>2018-05-16T21:18:51Z</time>
      </trkpt>
      <trkpt lat="44.05944" lon="5.86035">
        <ele>646</ele>
        <time>2018-05-16T21:19:51Z</time>
      </trkpt>
      <trkpt lat="44.06092" lon="5.85932">
        <ele>659</ele>
        <time>2018-05-16T21:20:51Z</time>
      </trkpt>
      <trkpt lat="44.06187" lon="5.85803">
        <ele>669</ele>
        <time>2018-05-16T21:21:51Z</time>
      </trkpt>
      <trkpt lat="44.06163" lon="5.85752">
        <ele>667</ele>
        <time>2018-05-16T21:22:51Z</time>
      </trkpt>
      <trkpt lat="44.062" lon="5.85623">
        <ele>678</ele>
        <time>2018-05-16T21:23:51Z</time>
      </trkpt>
      <trkpt lat="44.06261" lon="5.85456">
        <ele>693</ele>
        <time>2018-05-16T21:24:51Z</time>
      </trkpt>
      <trkpt lat="44.06249" lon="5.85404">
        <ele>694</ele>
        <time>2018-05-16T21:25:51Z</time>
      </trkpt>
      <trkpt lat="44.06323" lon="5.85314">
        <ele>705</ele>
        <time>2018-05-16T21:26:51Z</time>
      </trkpt>
      <trkpt lat="44.06326" lon="5.85112">
        <ele>708</ele>
        <time>2018-05-16T21:27:51Z</time>
      </trkpt>
      <trkpt lat="44.06369" lon="5.84971">
        <ele>715</ele>
        <time>2018-05-16T21:28:51Z</time>
      </trkpt>
      <trkpt lat="44.06351" lon="5.84816">
        <ele>717</ele>
        <time>2018-05-16T21:29:51Z</time>
      </trkpt>
      <trkpt lat="44.06403" lon="5.84808">
        <ele>723</ele>
        <time>2018-05-16T21:30:51Z</time>
      </trkpt>
      <trkpt lat="44.06446" lon="5.84748">
        <ele>728</ele>
        <time>2018-05-16T21:31:51Z</time>
      </trkpt>
      <trkpt lat="44.06388" lon="5.84593">
        <ele>726</ele>
        <time>2018-05-16T21:32:51Z</time>
      </trkpt>
      <trkpt lat="44.06329" lon="5.84134">
        <ele>719</ele>
        <time>2018-05-16T21:33:51Z</time>
      </trkpt>
      <trkpt lat="44.06289" lon="5.83705">
        <ele>712</ele>
        <time>2018-05-16T21:34:51Z</time>
      </trkpt>
      <trkpt lat="44.06264" lon="5.83555">
        <ele>714</ele>
        <time>2018-05-16T21:35:51Z</time>
      </trkpt>
      <trkpt lat="44.06329" lon="5.83739">
        <ele>715</ele>
        <time>2018-05-16T21:36:51Z</time>
      </trkpt>
      <trkpt lat="44.06419" lon="5.84589">
        <ele>730</ele>
        <time>2018-05-16T21:37:51Z</time>
      </trkpt>
      <trkpt lat="44.06471" lon="5.84812">
        <ele>731</ele>
        <time>2018-05-16T21:38:51Z</time>
      </trkpt>
      <trkpt lat="44.06462" lon="5.84911">
        <ele>730</ele>
        <time>2018-05-16T21:39:51Z</time>
      </trkpt>
      <trkpt lat="44.06523" lon="5.85117">
        <ele>733</ele>
        <time>2018-05-16T21:40:51Z</time>
      </trkpt>
      <trkpt lat="44.06662" lon="5.85361">
        <ele>740</ele>
        <time>2018-05-16T21:41:51Z</time>
      </trkpt>
      <trkpt lat="44.06671" lon="5.85542">
        <ele>733</ele>
        <time>2018-05-16T21:42:51Z</time>
      </trkpt>
      <trkpt lat="44.06711" lon="5.85645">
        <ele>731</ele>
        <time>2018-05-16T21:43:51Z</time>
      </trkpt>
      <trkpt lat="44.06705" lon="5.85773">
        <ele>730</ele>
        <time>2018-05-16T21:44:51Z</time>
      </trkpt>
      <trkpt lat="44.0673" lon="5.86039">
        <ele>737</ele>
        <time>2018-05-16T21:45:51Z</time>
      </trkpt>
      <trkpt lat="44.06711" lon="5.86177">
        <ele>738</ele>
        <time>2018-05-16T21:46:51Z</time>
      </trkpt>
      <trkpt lat="44.06739" lon="5.86739">
        <ele>733</ele>
        <time>2018-05-16T21:47:51Z</time>
      </trkpt>
      <trkpt lat="44.06721" lon="5.86833">
        <ele>733</ele>
        <time>2018-05-16T21:48:51Z</time>
      </trkpt>
      <trkpt lat="44.06755" lon="5.87069">
        <ele>734</ele>
        <time>2018-05-16T21:49:51Z</time>
      </trkpt>
      <trkpt lat="44.06745" lon="5.87151">
        <ele>732</ele>
        <time>2018-05-16T21:50:51Z</time>
      </trkpt>
      <trkpt lat="44.0669" lon="5.87267">
        <ele>730</ele>
        <time>2018-05-16T21:51:51Z</time>
      </trkpt>
      <trkpt lat="44.06674" lon="5.87533">
        <ele>726</ele>
        <time>2018-05-16T21:52:51Z</time>
      </trkpt>
      <trkpt lat="44.06727" lon="5.87619">
        <ele>728</ele>
        <time>2018-05-16T21:53:51Z</time>
      </trkpt>
      <trkpt lat="44.06693" lon="5.87765">
        <ele>724</ele>
        <time>2018-05-16T21:54:51Z</time>
      </trkpt>
      <trkpt lat="44.06715" lon="5.8785">
        <ele>729</ele>
        <time>2018-05-16T21:55:51Z</time>
      </trkpt>
      <trkpt lat="44.06773" lon="5.87915">
        <ele>738</ele>
        <time>2018-05-16T21:56:51Z</time>
      </trkpt>
      <trkpt lat="44.06715" lon="5.88001">
        <ele>734</ele>
        <time>2018-05-16T21:57:51Z</time>
      </trkpt>
      <trkpt lat="44.06773" lon="5.88078">
        <ele>743</ele>
        <time>2018-05-16T21:58:51Z</time>
      </trkpt>
      <trkpt lat="44.06699" lon="5.88181">
        <ele>745</ele>
        <time>2018-05-16T21:59:51Z</time>
      </trkpt>
      <trkpt lat="44.06711" lon="5.88271">
        <ele>751</ele>
        <time>2018-05-16T22:00:51Z</time>
      </trkpt>
      <trkpt lat="44.06674" lon="5.88631">
        <ele>736</ele>
        <time>2018-05-16T22:01:51Z</time>
      </trkpt>
      <trkpt lat="44.06644" lon="5.88833">
        <ele>729</ele>
        <time>2018-05-16T22:02:51Z</time>
      </trkpt>
      <trkpt lat="44.06641" lon="5.89215">
        <ele>720</ele>
        <time>2018-05-16T22:03:51Z</time>
      </trkpt>
      <trkpt lat="44.06625" lon="5.89314">
        <ele>713</ele>
        <time>2018-05-16T22:04:51Z</time>
      </trkpt>
      <trkpt lat="44.06496" lon="5.89335">
        <ele>693</ele>
        <time>2018-05-16T22:05:51Z</time>
      </trkpt>
      <trkpt lat="44.06551" lon="5.89468">
        <ele>699</ele>
        <time>2018-05-16T22:06:51Z</time>
      </trkpt>
      <trkpt lat="44.06585" lon="5.89726">
        <ele>706</ele>
        <time>2018-05-16T22:07:51Z</time>
      </trkpt>
      <trkpt lat="44.06625" lon="5.89837">
        <ele>704</ele>
        <time>2018-05-16T22:08:51Z</time>
      </trkpt>
      <trkpt lat="44.06798" lon="5.89945">
        <ele>693</ele>
        <time>2018-05-16T22:09:51Z</time>
      </trkpt>
      <trkpt lat="44.06872" lon="5.90142">
        <ele>686</ele>
        <time>2018-05-16T22:10:51Z</time>
      </trkpt>
      <trkpt lat="44.07048" lon="5.90151">
        <ele>683</ele>
        <time>2018-05-16T22:11:51Z</time>
      </trkpt>
      <trkpt lat="44.07257" lon="5.90236">
        <ele>675</ele>
        <time>2018-05-16T22:12:51Z</time>
      </trkpt>
      <trkpt lat="44.07331" lon="5.90271">
        <ele>675</ele>
        <time>2018-05-16T22:13:51Z</time>
      </trkpt>
      <trkpt lat="44.07479" lon="5.90468">
        <ele>676</ele>
        <time>2018-05-16T22:14:51Z</time>
      </trkpt>
      <trkpt lat="44.07566" lon="5.90717">
        <ele>672</ele>
        <time>2018-05-16T22:15:51Z</time>
      </trkpt>
      <trkpt lat="44.07495" lon="5.91">
        <ele>662</ele>
        <time>2018-05-16T22:16:51Z</time>
      </trkpt>
      <trkpt lat="44.0755" lon="5.9106">
        <ele>657</ele>
        <time>2018-05-16T22:17:51Z</time>
      </trkpt>
      <trkpt lat="44.0763" lon="5.91605">
        <ele>656</ele>
        <time>2018-05-16T22:18:51Z</time>
      </trkpt>
      <trkpt lat="44.07566" lon="5.91893">
        <ele>644</ele>
        <time>2018-05-16T22:19:51Z</time>
      </trkpt>
      <trkpt lat="44.07652" lon="5.92005">
        <ele>665</ele>
        <time>2018-05-16T22:20:51Z</time>
      </trkpt>
      <trkpt lat="44.07529" lon="5.92129">
        <ele>662</ele>
        <time>2018-05-16T22:21:51Z</time>
      </trkpt>
      <trkpt lat="44.07547" lon="5.92288">
        <ele>671</ele>
        <time>2018-05-16T22:22:51Z</time>
      </trkpt>
      <trkpt lat="44.07677" lon="5.92447">
        <ele>682</ele>
        <time>2018-05-16T22:23:51Z</time>
      </trkpt>
      <trkpt lat="44.07831" lon="5.92554">
        <ele>683</ele>
        <time>2018-05-16T22:24:51Z</time>
      </trkpt>
      <trkpt lat="44.08133" lon="5.93069">
        <ele>661</ele>
        <time>2018-05-16T22:25:51Z</time>
      </trkpt>
      <trkpt lat="44.08194" lon="5.93069">
        <ele>663</ele>
        <time>2018-05-16T22:26:51Z</time>
      </trkpt>
      <trkpt lat="44.08145" lon="5.93236">
        <ele>654</ele>
        <time>2018-05-16T22:27:51Z</time>
      </trkpt>
      <trkpt lat="44.08108" lon="5.93279">
        <ele>651</ele>
        <time>2018-05-16T22:28:51Z</time>
      </trkpt>
      <trkpt lat="44.08176" lon="5.93326">
        <ele>655</ele>
        <time>2018-05-16T22:29:51Z</time>
      </trkpt>
      <trkpt lat="44.08241" lon="5.93331">
        <ele>658</ele>
        <time>2018-05-16T22:30:51Z</time>
      </trkpt>
      <trkpt lat="44.08281" lon="5.93305">
        <ele>663</ele>
        <time>2018-05-16T22:31:51Z</time>
      </trkpt>
      <trkpt lat="44.08361" lon="5.93348">
        <ele>669</ele>
        <time>2018-05-16T22:32:51Z</time>
      </trkpt>
      <trkpt lat="44.08669" lon="5.93395">
        <ele>681</ele>
        <time>2018-05-16T22:33:51Z</time>
      </trkpt>
      <trkpt lat="44.08851" lon="5.93296">
        <ele>683</ele>
        <time>2018-05-16T22:34:51Z</time>
      </trkpt>
      <trkpt lat="44.08925" lon="5.93275">
        <ele>681</ele>
        <time>2018-05-16T22:35:51Z</time>
      </trkpt>
      <trkpt lat="44.09008" lon="5.93223">
        <ele>682</ele>
        <time>2018-05-16T22:36:51Z</time>
      </trkpt>
      <trkpt lat="44.09129" lon="5.93258">
        <ele>685</ele>
        <time>2018-05-16T22:37:51Z</time>
      </trkpt>
      <trkpt lat="44.09169" lon="5.93356">
        <ele>678</ele>
        <time>2018-05-16T22:38:51Z</time>
      </trkpt>
      <trkpt lat="44.09221" lon="5.93386">
        <ele>675</ele>
        <time>2018-05-16T22:39:51Z</time>
      </trkpt>
      <trkpt lat="44.0923" lon="5.93498">
        <ele>668</ele>
        <time>2018-05-16T22:40:51Z</time>
      </trkpt>
      <trkpt lat="44.0931" lon="5.93592">
        <ele>663</ele>
        <time>2018-05-16T22:41:51Z</time>
      </trkpt>
      <trkpt lat="44.09317" lon="5.93777">
        <ele>657</ele>
        <time>2018-05-16T22:42:51Z</time>
      </trkpt>
      <trkpt lat="44.09329" lon="5.93906">
        <ele>649</ele>
        <time>2018-05-16T22:43:51Z</time>
      </trkpt>
      <trkpt lat="44.0928" lon="5.94">
        <ele>637</ele>
        <time>2018-05-16T22:44:51Z</time>
      </trkpt>
      <trkpt lat="44.09196" lon="5.94052">
        <ele>625</ele>
        <time>2018-05-16T22:45:51Z</time>
      </trkpt>
      <trkpt lat="44.09221" lon="5.94142">
        <ele>619</ele>
        <time>2018-05-16T22:46:51Z</time>
      </trkpt>
      <trkpt lat="44.09286" lon="5.94193">
        <ele>618</ele>
        <time>2018-05-16T22:47:51Z</time>
      </trkpt>
      <trkpt lat="44.09292" lon="5.94292">
        <ele>616</ele>
        <time>2018-05-16T22:48:51Z</time>
      </trkpt>
      <trkpt lat="44.09264" lon="5.94313">
        <ele>615</ele>
        <time>2018-05-16T22:49:51Z</time>
      </trkpt>
      <trkpt lat="44.09301" lon="5.94348">
        <ele>616</ele>
        <time>2018-05-16T22:50:51Z</time>
      </trkpt>
      <trkpt lat="44.09273" lon="5.94498">
        <ele>609</ele>
        <time>2018-05-16T22:51:51Z</time>
      </trkpt>
      <trkpt lat="44.09283" lon="5.94622">
        <ele>596</ele>
        <time>2018-05-16T22:52:51Z</time>
      </trkpt>
      <trkpt lat="44.0935" lon="5.94734">
        <ele>577</ele>
        <time>2018-05-16T22:53:51Z</time>
      </trkpt>
      <trkpt lat="44.09387" lon="5.9476">
        <ele>571</ele>
        <time>2018-05-16T22:54:51Z</time>
      </trkpt>
      <trkpt lat="44.09446" lon="5.94893">
        <ele>564</ele>
        <time>2018-05-16T22:55:51Z</time>
      </trkpt>
      <trkpt lat="44.09452" lon="5.94974">
        <ele>560</ele>
        <time>2018-05-16T22:56:51Z</time>
      </trkpt>
      <trkpt lat="44.09363" lon="5.95009">
        <ele>558</ele>
        <time>2018-05-16T22:57:51Z</time>
      </trkpt>
      <trkpt lat="44.09357" lon="5.95095">
        <ele>554</ele>
        <time>2018-05-16T22:58:51Z</time>
      </trkpt>
      <trkpt lat="44.09301" lon="5.9521">
        <ele>551</ele>
        <time>2018-05-16T22:59:51Z</time>
      </trkpt>
      <trkpt lat="44.09206" lon="5.95343">
        <ele>546</ele>
        <time>2018-05-16T23:00:51Z</time>
      </trkpt>
      <trkpt lat="44.09119" lon="5.95438">
        <ele>545</ele>
        <time>2018-05-16T23:01:51Z</time>
      </trkpt>
      <trkpt lat="44.08944" lon="5.95528">
        <ele>541</ele>
        <time>2018-05-16T23:02:51Z</time>
      </trkpt>
      <trkpt lat="44.08974" lon="5.95631">
        <ele>545</ele>
        <time>2018-05-16T23:03:51Z</time>
      </trkpt>
      <trkpt lat="44.08937" lon="5.95725">
        <ele>546</ele>
        <time>2018-05-16T23:04:51Z</time>
      </trkpt>
      <trkpt lat="44.08925" lon="5.95867">
        <ele>548</ele>
        <time>2018-05-16T23:05:51Z</time>
      </trkpt>
      <trkpt lat="44.08965" lon="5.95979">
        <ele>556</ele>
        <time>2018-05-16T23:06:51Z</time>
      </trkpt>
      <trkpt lat="44.08826" lon="5.96352">
        <ele>571</ele>
        <time>2018-05-16T23:07:51Z</time>
      </trkpt>
      <trkpt lat="44.08845" lon="5.96433">
        <ele>572</ele>
        <time>2018-05-16T23:08:51Z</time>
      </trkpt>
      <trkpt lat="44.08891" lon="5.96494">
        <ele>578</ele>
        <time>2018-05-16T23:09:51Z</time>
      </trkpt>
      <trkpt lat="44.09008" lon="5.96549">
        <ele>583</ele>
        <time>2018-05-16T23:10:51Z</time>
      </trkpt>
      <trkpt lat="44.09021" lon="5.96442">
        <ele>596</ele>
        <time>2018-05-16T23:11:51Z</time>
      </trkpt>
      <trkpt lat="44.08999" lon="5.96391">
        <ele>597</ele>
        <time>2018-05-16T23:12:51Z</time>
      </trkpt>
      <trkpt lat="44.09036" lon="5.96296">
        <ele>603</ele>
        <time>2018-05-16T23:13:51Z</time>
      </trkpt>
      <trkpt lat="44.09323" lon="5.96227">
        <ele>634</ele>
        <time>2018-05-16T23:14:51Z</time>
      </trkpt>
      <trkpt lat="44.094" lon="5.96245">
        <ele>635</ele>
        <time>2018-05-16T23:15:51Z</time>
      </trkpt>
      <trkpt lat="44.09511" lon="5.96172">
        <ele>635</ele>
        <time>2018-05-16T23:16:51Z</time>
      </trkpt>
      <trkpt lat="44.09594" lon="5.9621">
        <ele>633</ele>
        <time>2018-05-16T23:17:51Z</time>
      </trkpt>
      <trkpt lat="44.09585" lon="5.96253">
        <ele>630</ele>
        <time>2018-05-16T23:18:51Z</time>
      </trkpt>
      <trkpt lat="44.09625" lon="5.963">
        <ele>625</ele>
        <time>2018-05-16T23:19:51Z</time>
      </trkpt>
      <trkpt lat="44.09711" lon="5.96288">
        <ele>626</ele>
        <time>2018-05-16T23:20:51Z</time>
      </trkpt>
      <trkpt lat="44.09745" lon="5.9633">
        <ele>623</ele>
        <time>2018-05-16T23:21:51Z</time>
      </trkpt>
      <trkpt lat="44.09797" lon="5.96326">
        <ele>626</ele>
        <time>2018-05-16T23:22:51Z</time>
      </trkpt>
      <trkpt lat="44.09856" lon="5.96425">
        <ele>638</ele>
        <time>2018-05-16T23:23:51Z</time>
      </trkpt>
      <trkpt lat="44.0993" lon="5.96485">
        <ele>647</ele>
        <time>2018-05-16T23:24:51Z</time>
      </trkpt>
      <trkpt lat="44.10059" lon="5.96635">
        <ele>653</ele>
        <time>2018-05-16T23:25:51Z</time>
      </trkpt>
      <trkpt lat="44.10146" lon="5.96652">
        <ele>650</ele>
        <time>2018-05-16T23:26:51Z</time>
      </trkpt>
      <trkpt lat="44.10386" lon="5.96884">
        <ele>623</ele>
        <time>2018-05-16T23:27:51Z</time>
      </trkpt>
      <trkpt lat="44.10463" lon="5.96931">
        <ele>613</ele>
        <time>2018-05-16T23:28:51Z</time>
      </trkpt>
      <trkpt lat="44.1062" lon="5.96983">
        <ele>592</ele>
        <time>2018-05-16T23:29:51Z</time>
      </trkpt>
      <trkpt lat="44.10851" lon="5.96961">
        <ele>568</ele>
        <time>2018-05-16T23:30:51Z</time>
      </trkpt>
      <trkpt lat="44.10984" lon="5.97009">
        <ele>551</ele>
        <time>2018-05-16T23:31:51Z</time>
      </trkpt>
      <trkpt lat="44.11045" lon="5.9703">
        <ele>545</ele>
        <time>2018-05-16T23:32:51Z</time>
      </trkpt>
      <trkpt lat="44.11055" lon="5.97103">
        <ele>547</ele>
        <time>2018-05-16T23:33:51Z</time>
      </trkpt>
      <trkpt lat="44.11116" lon="5.97116">
        <ele>545</ele>
        <time>2018-05-16T23:34:51Z</time>
      </trkpt>
      <trkpt lat="44.11113" lon="5.97236">
        <ele>552</ele>
        <time>2018-05-16T23:35:51Z</time>
      </trkpt>
      <trkpt lat="44.11267" lon="5.97326">
        <ele>539</ele>
        <time>2018-05-16T23:36:51Z</time>
      </trkpt>
      <trkpt lat="44.11541" lon="5.97408">
        <ele>517</ele>
        <time>2018-05-16T23:37:51Z</time>
      </trkpt>
      <trkpt lat="44.1156" lon="5.9736">
        <ele>511</ele>
        <time>2018-05-16T23:38:51Z</time>
      </trkpt>
      <trkpt lat="44.11757" lon="5.97421">
        <ele>490</ele>
        <time>2018-05-16T23:39:51Z</time>
      </trkpt>
      <trkpt lat="44.11887" lon="5.97146">
        <ele>510</ele>
        <time>2018-05-16T23:40:51Z</time>
      </trkpt>
      <trkpt lat="44.11868" lon="5.97099">
        <ele>516</ele>
        <time>2018-05-16T23:41:51Z</time>
      </trkpt>
      <trkpt lat="44.11896" lon="5.97051">
        <ele>517</ele>
        <time>2018-05-16T23:42:51Z</time>
      </trkpt>
      <trkpt lat="44.11905" lon="5.97009">
        <ele>519</ele>
        <time>2018-05-16T23:43:51Z</time>
      </trkpt>
      <trkpt lat="44.11939" lon="5.97086">
        <ele>511</ele>
        <time>2018-05-16T23:44:51Z</time>
      </trkpt>
      <trkpt lat="44.12016" lon="5.97146">
        <ele>505</ele>
        <time>2018-05-16T23:45:51Z</time>
      </trkpt>
      <trkpt lat="44.12053" lon="5.97099">
        <ele>507</ele>
        <time>2018-05-16T23:46:51Z</time>
      </trkpt>
      <trkpt lat="44.12164" lon="5.97133">
        <ele>511</ele>
        <time>2018-05-16T23:47:51Z</time>
      </trkpt>
      <trkpt lat="44.12324" lon="5.97043">
        <ele>528</ele>
        <time>2018-05-16T23:48:51Z</time>
      </trkpt>
      <trkpt lat="44.12604" lon="5.97039">
        <ele>520</ele>
        <time>2018-05-16T23:49:51Z</time>
      </trkpt>
      <trkpt lat="44.12737" lon="5.96991">
        <ele>512</ele>
        <time>2018-05-16T23:50:51Z</time>
      </trkpt>
      <trkpt lat="44.12765" lon="5.96944">
        <ele>509</ele>
        <time>2018-05-16T23:51:51Z</time>
      </trkpt>
      <trkpt lat="44.12761" lon="5.96893">
        <ele>512</ele>
        <time>2018-05-16T23:52:51Z</time>
      </trkpt>
      <trkpt lat="44.12801" lon="5.96807">
        <ele>504</ele>
        <time>2018-05-16T23:53:51Z</time>
      </trkpt>
      <trkpt lat="44.12888" lon="5.96923">
        <ele>490</ele>
        <time>2018-05-16T23:54:51Z</time>
      </trkpt>
      <trkpt lat="44.12989" lon="5.9694">
        <ele>481</ele>
        <time>2018-05-16T23:55:51Z</time>
      </trkpt>
      <trkpt lat="44.12996" lon="5.96781">
        <ele>493</ele>
        <time>2018-05-16T23:56:51Z</time>
      </trkpt>
      <trkpt lat="44.13076" lon="5.96502">
        <ele>483</ele>
        <time>2018-05-16T23:57:51Z</time>
      </trkpt>
      <trkpt lat="44.13085" lon="5.96536">
        <ele>482</ele>
        <time>2018-05-16T23:58:51Z</time>
      </trkpt>
      <trkpt lat="44.13128" lon="5.96511">
        <ele>478</ele>
        <time>2018-05-16T23:59:51Z</time>
      </trkpt>
      <trkpt lat="44.13159" lon="5.96515">
        <ele>475</ele>
        <time>2018-05-17T00:00:51Z</time>
      </trkpt>
      <trkpt lat="44.13421" lon="5.96326">
        <ele>471</ele>
        <time>2018-05-17T00:01:51Z</time>
      </trkpt>
      <trkpt lat="44.13341" lon="5.95979">
        <ele>477</ele>
        <time>2018-05-17T00:02:51Z</time>
      </trkpt>
      <trkpt lat="44.13455" lon="5.95901">
        <ele>484</ele>
        <time>2018-05-17T00:03:51Z</time>
      </trkpt>
      <trkpt lat="44.13455" lon="5.95863">
        <ele>484</ele>
        <time>2018-05-17T00:04:51Z</time>
      </trkpt>
      <trkpt lat="44.13482" lon="5.9585">
        <ele>486</ele>
        <time>2018-05-17T00:05:51Z</time>
      </trkpt>
      <trkpt lat="44.13602" lon="5.95567">
        <ele>491</ele>
        <time>2018-05-17T00:06:51Z</time>
      </trkpt>
      <trkpt lat="44.13458" lon="5.95455">
        <ele>491</ele>
        <time>2018-05-17T00:07:51Z</time>
      </trkpt>
      <trkpt lat="44.13273" lon="5.95395">
        <ele>494</ele>
        <time>2018-05-17T00:08:51Z</time>
      </trkpt>
      <trkpt lat="44.13057" lon="5.95343">
        <ele>498</ele>
        <time>2018-05-17T00:09:51Z</time>
      </trkpt>
      <trkpt lat="44.13146" lon="5.95146">
        <ele>508</ele>
        <time>2018-05-17T00:10:51Z</time>
      </trkpt>
      <trkpt lat="44.13134" lon="5.95103">
        <ele>512</ele>
        <time>2018-05-17T00:11:51Z</time>
      </trkpt>
      <trkpt lat="44.13137" lon="5.94901">
        <ele>529</ele>
        <time>2018-05-17T00:12:51Z</time>
      </trkpt>
      <trkpt lat="44.13183" lon="5.94931">
        <ele>528</ele>
        <time>2018-05-17T00:13:51Z</time>
      </trkpt>
      <trkpt lat="44.1319" lon="5.94983">
        <ele>526</ele>
        <time>2018-05-17T00:14:51Z</time>
      </trkpt>
      <trkpt lat="44.13242" lon="5.95026">
        <ele>526</ele>
        <time>2018-05-17T00:15:51Z</time>
      </trkpt>
      <trkpt lat="44.13288" lon="5.94979">
        <ele>532</ele>
        <time>2018-05-17T00:16:51Z</time>
      </trkpt>
      <trkpt lat="44.13242" lon="5.94936">
        <ele>536</ele>
        <time>2018-05-17T00:17:51Z</time>
      </trkpt>
      <trkpt lat="44.13248" lon="5.94897">
        <ele>542</ele>
        <time>2018-05-17T00:18:51Z</time>
      </trkpt>
      <trkpt lat="44.13334" lon="5.94854">
        <ele>553</ele>
        <time>2018-05-17T00:19:51Z</time>
      </trkpt>
      <trkpt lat="44.13276" lon="5.9482">
        <ele>558</ele>
        <time>2018-05-17T00:20:51Z</time>
      </trkpt>
      <trkpt lat="44.13334" lon="5.94798">
        <ele>563</ele>
        <time>2018-05-17T00:21:51Z</time>
      </trkpt>
      <trkpt lat="44.13264" lon="5.94743">
        <ele>570</ele>
        <time>2018-05-17T00:22:51Z</time>
      </trkpt>
      <trkpt lat="44.13319" lon="5.94704">
        <ele>576</ele>
        <time>2018-05-17T00:23:51Z</time>
      </trkpt>
      <trkpt lat="44.13279" lon="5.94674">
        <ele>577</ele>
        <time>2018-05-17T00:24:51Z</time>
      </trkpt>
      <trkpt lat="44.13316" lon="5.94648">
        <ele>582</ele>
        <time>2018-05-17T00:25:51Z</time>
      </trkpt>
      <trkpt lat="44.13319" lon="5.94537">
        <ele>592</ele>
        <time>2018-05-17T00:26:51Z</time>
      </trkpt>
      <trkpt lat="44.13294" lon="5.94481">
        <ele>599</ele>
        <time>2018-05-17T00:27:51Z</time>
      </trkpt>
      <trkpt lat="44.13316" lon="5.94416">
        <ele>611</ele>
        <time>2018-05-17T00:28:51Z</time>
      </trkpt>
      <trkpt lat="44.13334" lon="5.94262">
        <ele>633</ele>
        <time>2018-05-17T00:29:51Z</time>
      </trkpt>
      <trkpt lat="44.13273" lon="5.94262">
        <ele>633</ele>
        <time>2018-05-17T00:30:51Z</time>
      </trkpt>
      <trkpt lat="44.13236" lon="5.94232">
        <ele>636</ele>
        <time>2018-05-17T00:31:51Z</time>
      </trkpt>
      <trkpt lat="44.1331" lon="5.94176">
        <ele>646</ele>
        <time>2018-05-17T00:32:51Z</time>
      </trkpt>
      <trkpt lat="44.13257" lon="5.94146">
        <ele>650</ele>
        <time>2018-05-17T00:33:51Z</time>
      </trkpt>
      <trkpt lat="44.13227" lon="5.94077">
        <ele>660</ele>
        <time>2018-05-17T00:34:51Z</time>
      </trkpt>
      <trkpt lat="44.13116" lon="5.94017">
        <ele>677</ele>
        <time>2018-05-17T00:35:51Z</time>
      </trkpt>
      <trkpt lat="44.13088" lon="5.9406">
        <ele>671</ele>
        <time>2018-05-17T00:36:51Z</time>
      </trkpt>
      <trkpt lat="44.13051" lon="5.94052">
        <ele>673</ele>
        <time>2018-05-17T00:37:51Z</time>
      </trkpt>
      <trkpt lat="44.13017" lon="5.94082">
        <ele>670</ele>
        <time>2018-05-17T00:38:51Z</time>
      </trkpt>
      <trkpt lat="44.12959" lon="5.9376">
        <ele>723</ele>
        <time>2018-05-17T00:39:51Z</time>
      </trkpt>
      <trkpt lat="44.12919" lon="5.937">
        <ele>735</ele>
        <time>2018-05-17T00:40:51Z</time>
      </trkpt>
      <trkpt lat="44.12835" lon="5.93399">
        <ele>797</ele>
        <time>2018-05-17T00:41:51Z</time>
      </trkpt>
      <trkpt lat="44.12848" lon="5.93249">
        <ele>825</ele>
        <time>2018-05-17T00:42:51Z</time>
      </trkpt>
      <trkpt lat="44.12789" lon="5.93039">
        <ele>878</ele>
        <time>2018-05-17T00:43:51Z</time>
      </trkpt>
      <trkpt lat="44.1274" lon="5.9297">
        <ele>896</ele>
        <time>2018-05-17T00:44:51Z</time>
      </trkpt>
      <trkpt lat="44.12706" lon="5.92653">
        <ele>971</ele>
        <time>2018-05-17T00:45:51Z</time>
      </trkpt>
      <trkpt lat="44.12601" lon="5.92399">
        <ele>1041</ele>
        <time>2018-05-17T00:46:51Z</time>
      </trkpt>
      <trkpt lat="44.12546" lon="5.92172">
        <ele>1102</ele>
        <time>2018-05-17T00:47:51Z</time>
      </trkpt>
      <trkpt lat="44.125" lon="5.9209">
        <ele>1124</ele>
        <time>2018-05-17T00:48:51Z</time>
      </trkpt>
      <trkpt lat="44.12481" lon="5.91876">
        <ele>1159</ele>
        <time>2018-05-17T00:49:51Z</time>
      </trkpt>
      <trkpt lat="44.1237" lon="5.9182">
        <ele>1184</ele>
        <time>2018-05-17T00:50:51Z</time>
      </trkpt>
      <trkpt lat="44.12346" lon="5.91769">
        <ele>1186</ele>
        <time>2018-05-17T00:51:51Z</time>
      </trkpt>
      <trkpt lat="44.12235" lon="5.91678">
        <ele>1240</ele>
        <time>2018-05-17T00:52:51Z</time>
      </trkpt>
      <trkpt lat="44.12185" lon="5.91558">
        <ele>1236</ele>
        <time>2018-05-17T00:53:51Z</time>
      </trkpt>
      <trkpt lat="44.12096" lon="5.91451">
        <ele>1259</ele>
        <time>2018-05-17T00:54:51Z</time>
      </trkpt>
      <trkpt lat="44.12044" lon="5.91344">
        <ele>1266</ele>
        <time>2018-05-17T00:55:51Z</time>
      </trkpt>
      <trkpt lat="44.11988" lon="5.91211">
        <ele>1277</ele>
        <time>2018-05-17T00:56:51Z</time>
      </trkpt>
      <trkpt lat="44.11865" lon="5.90975">
        <ele>1300</ele>
        <time>2018-05-17T00:57:51Z</time>
      </trkpt>
      <trkpt lat="44.11729" lon="5.90618">
        <ele>1330</ele>
        <time>2018-05-17T00:58:51Z</time>
      </trkpt>
      <trkpt lat="44.11742" lon="5.90511">
        <ele>1319</ele>
        <time>2018-05-17T00:59:51Z</time>
      </trkpt>
      <trkpt lat="44.11677" lon="5.90404">
        <ele>1322</ele>
        <time>2018-05-17T01:00:51Z</time>
      </trkpt>
      <trkpt lat="44.11683" lon="5.90305">
        <ele>1322</ele>
        <time>2018-05-17T01:01:51Z</time>
      </trkpt>
      <trkpt lat="44.11538" lon="5.89837">
        <ele>1344</ele>
        <time>2018-05-17T01:02:51Z</time>
      </trkpt>
      <trkpt lat="44.11538" lon="5.89739">
        <ele>1354</ele>
        <time>2018-05-17T01:03:51Z</time>
      </trkpt>
      <trkpt lat="44.11489" lon="5.89661">
        <ele>1371</ele>
        <time>2018-05-17T01:04:51Z</time>
      </trkpt>
      <trkpt lat="44.11489" lon="5.89537">
        <ele>1389</ele>
        <time>2018-05-17T01:05:51Z</time>
      </trkpt>
      <trkpt lat="44.11427" lon="5.89391">
        <ele>1388</ele>
        <time>2018-05-17T01:06:51Z</time>
      </trkpt>
      <trkpt lat="44.11452" lon="5.89241">
        <ele>1390</ele>
        <time>2018-05-17T01:07:51Z</time>
      </trkpt>
      <trkpt lat="44.11317" lon="5.88571">
        <ele>1426</ele>
        <time>2018-05-17T01:08:51Z</time>
      </trkpt>
      <trkpt lat="44.1136" lon="5.8837">
        <ele>1409</ele>
        <time>2018-05-17T01:09:51Z</time>
      </trkpt>
      <trkpt lat="44.11357" lon="5.88301">
        <ele>1414</ele>
        <time>2018-05-17T01:10:51Z</time>
      </trkpt>
      <trkpt lat="44.11421" lon="5.88164">
        <ele>1388</ele>
        <time>2018-05-17T01:11:51Z</time>
      </trkpt>
      <trkpt lat="44.11449" lon="5.88185">
        <ele>1361</ele>
        <time>2018-05-17T01:12:51Z</time>
      </trkpt>
      <trkpt lat="44.11477" lon="5.8785">
        <ele>1332</ele>
        <time>2018-05-17T01:13:51Z</time>
      </trkpt>
      <trkpt lat="44.1148" lon="5.87777">
        <ele>1332</ele>
        <time>2018-05-17T01:14:51Z</time>
      </trkpt>
      <trkpt lat="44.11575" lon="5.87601">
        <ele>1286</ele>
        <time>2018-05-17T01:15:51Z</time>
      </trkpt>
      <trkpt lat="44.11609" lon="5.87421">
        <ele>1268</ele>
        <time>2018-05-17T01:16:51Z</time>
      </trkpt>
      <trkpt lat="44.11696" lon="5.87391">
        <ele>1217</ele>
        <time>2018-05-17T01:17:51Z</time>
      </trkpt>
      <trkpt lat="44.11729" lon="5.87408">
        <ele>1197</ele>
        <time>2018-05-17T01:18:51Z</time>
      </trkpt>
      <trkpt lat="44.118" lon="5.87288">
        <ele>1151</ele>
        <time>2018-05-17T01:19:51Z</time>
      </trkpt>
      <trkpt lat="44.11856" lon="5.87357">
        <ele>1120</ele>
        <time>2018-05-17T01:20:51Z</time>
      </trkpt>
      <trkpt lat="44.12062" lon="5.87069">
        <ele>1029</ele>
        <time>2018-05-17T01:21:51Z</time>
      </trkpt>
      <trkpt lat="44.12102" lon="5.87091">
        <ele>1011</ele>
        <time>2018-05-17T01:22:51Z</time>
      </trkpt>
      <trkpt lat="44.12133" lon="5.87211">
        <ele>992</ele>
        <time>2018-05-17T01:23:51Z</time>
      </trkpt>
      <trkpt lat="44.1221" lon="5.87314">
        <ele>962</ele>
        <time>2018-05-17T01:24:51Z</time>
      </trkpt>
      <trkpt lat="44.12167" lon="5.87361">
        <ele>968</ele>
        <time>2018-05-17T01:25:51Z</time>
      </trkpt>
      <trkpt lat="44.12188" lon="5.87404">
        <ele>959</ele>
        <time>2018-05-17T01:26:51Z</time>
      </trkpt>
      <trkpt lat="44.12272" lon="5.87378">
        <ele>941</ele>
        <time>2018-05-17T01:27:51Z</time>
      </trkpt>
      <trkpt lat="44.12247" lon="5.87477">
        <ele>934</ele>
        <time>2018-05-17T01:28:51Z</time>
      </trkpt>
      <trkpt lat="44.1246" lon="5.87601">
        <ele>896</ele>
        <time>2018-05-17T01:29:51Z</time>
      </trkpt>
      <trkpt lat="44.12469" lon="5.87494">
        <ele>898</ele>
        <time>2018-05-17T01:30:51Z</time>
      </trkpt>
      <trkpt lat="44.12503" lon="5.87391">
        <ele>902</ele>
        <time>2018-05-17T01:31:51Z</time>
      </trkpt>
      <trkpt lat="44.12503" lon="5.87284">
        <ele>909</ele>
        <time>2018-05-17T01:32:51Z</time>
      </trkpt>
      <trkpt lat="44.12555" lon="5.86992">
        <ele>917</ele>
        <time>2018-05-17T01:33:51Z</time>
      </trkpt>
      <trkpt lat="44.12558" lon="5.86868">
        <ele>905</ele>
        <time>2018-05-17T01:34:51Z</time>
      </trkpt>
      <trkpt lat="44.12638" lon="5.867">
        <ele>893</ele>
        <time>2018-05-17T01:35:51Z</time>
      </trkpt>
      <trkpt lat="44.12567" lon="5.86606">
        <ele>900</ele>
        <time>2018-05-17T01:36:51Z</time>
      </trkpt>
      <trkpt lat="44.12549" lon="5.86499">
        <ele>904</ele>
        <time>2018-05-17T01:37:51Z</time>
      </trkpt>
      <trkpt lat="44.12614" lon="5.86224">
        <ele>920</ele>
        <time>2018-05-17T01:38:51Z</time>
      </trkpt>
      <trkpt lat="44.12607" lon="5.85988">
        <ele>927</ele>
        <time>2018-05-17T01:39:51Z</time>
      </trkpt>
      <trkpt lat="44.12644" lon="5.85748">
        <ele>939</ele>
        <time>2018-05-17T01:40:51Z</time>
      </trkpt>
      <trkpt lat="44.12691" lon="5.85816">
        <ele>943</ele>
        <time>2018-05-17T01:41:51Z</time>
      </trkpt>
      <trkpt lat="44.12691" lon="5.85632">
        <ele>952</ele>
        <time>2018-05-17T01:42:51Z</time>
      </trkpt>
      <trkpt lat="44.12647" lon="5.85567">
        <ele>951</ele>
        <time>2018-05-17T01:43:51Z</time>
      </trkpt>
      <trkpt lat="44.12657" lon="5.85464">
        <ele>961</ele>
        <time>2018-05-17T01:44:51Z</time>
      </trkpt>
      <trkpt lat="44.12527" lon="5.85142">
        <ele>968</ele>
        <time>2018-05-17T01:45:51Z</time>
      </trkpt>
      <trkpt lat="44.12521" lon="5.85031">
        <ele>964</ele>
        <time>2018-05-17T01:46:51Z</time>
      </trkpt>
      <trkpt lat="44.12478" lon="5.84988">
        <ele>967</ele>
        <time>2018-05-17T01:47:51Z</time>
      </trkpt>
      <trkpt lat="44.12475" lon="5.84928">
        <ele>969</ele>
        <time>2018-05-17T01:48:51Z</time>
      </trkpt>
      <trkpt lat="44.12466" lon="5.84739">
        <ele>970</ele>
        <time>2018-05-17T01:49:51Z</time>
      </trkpt>
      <trkpt lat="44.12549" lon="5.84756">
        <ele>958</ele>
        <time>2018-05-17T01:50:51Z</time>
      </trkpt>
      <trkpt lat="44.12684" lon="5.8464">
        <ele>966</ele>
        <time>2018-05-17T01:51:51Z</time>
      </trkpt>
      <trkpt lat="44.12715" lon="5.84533">
        <ele>977</ele>
        <time>2018-05-17T01:52:51Z</time>
      </trkpt>
      <trkpt lat="44.12691" lon="5.844">
        <ele>995</ele>
        <time>2018-05-17T01:53:51Z</time>
      </trkpt>
      <trkpt lat="44.12721" lon="5.84366">
        <ele>988</ele>
        <time>2018-05-17T01:54:51Z</time>
      </trkpt>
      <trkpt lat="44.12672" lon="5.84104">
        <ele>994</ele>
        <time>2018-05-17T01:55:51Z</time>
      </trkpt>
      <trkpt lat="44.12598" lon="5.84057">
        <ele>993</ele>
        <time>2018-05-17T01:56:51Z</time>
      </trkpt>
      <trkpt lat="44.12644" lon="5.83971">
        <ele>983</ele>
        <time>2018-05-17T01:57:51Z</time>
      </trkpt>
      <trkpt lat="44.12552" lon="5.83846">
        <ele>1002</ele>
        <time>2018-05-17T01:58:51Z</time>
      </trkpt>
      <trkpt lat="44.12601" lon="5.83791">
        <ele>1005</ele>
        <time>2018-05-17T01:59:51Z</time>
      </trkpt>
      <trkpt lat="44.12654" lon="5.83778">
        <ele>1007</ele>
        <time>2018-05-17T02:00:51Z</time>
      </trkpt>
      <trkpt lat="44.12691" lon="5.837">
        <ele>1021</ele>
        <time>2018-05-17T02:01:51Z</time>
      </trkpt>
      <trkpt lat="44.12672" lon="5.83615">
        <ele>1035</ele>
        <time>2018-05-17T02:02:51Z</time>
      </trkpt>
      <trkpt lat="44.12718" lon="5.8358">
        <ele>1029</ele>
        <time>2018-05-17T02:03:51Z</time>
      </trkpt>
      <trkpt lat="44.12721" lon="5.83469">
        <ele>1043</ele>
        <time>2018-05-17T02:04:51Z</time>
      </trkpt>
      <trkpt lat="44.12777" lon="5.83344">
        <ele>1057</ele>
        <time>2018-05-17T02:05:51Z</time>
      </trkpt>
      <trkpt lat="44.12712" lon="5.83344">
        <ele>1068</ele>
        <time>2018-05-17T02:06:51Z</time>
      </trkpt>
      <trkpt lat="44.12731" lon="5.83258">
        <ele>1077</ele>
        <time>2018-05-17T02:07:51Z</time>
      </trkpt>
      <trkpt lat="44.12783" lon="5.8325">
        <ele>1070</ele>
        <time>2018-05-17T02:08:51Z</time>
      </trkpt>
      <trkpt lat="44.12842" lon="5.8328">
        <ele>1059</ele>
        <time>2018-05-17T02:09:51Z</time>
      </trkpt>
      <trkpt lat="44.12891" lon="5.83143">
        <ele>1059</ele>
        <time>2018-05-17T02:10:51Z</time>
      </trkpt>
      <trkpt lat="44.12959" lon="5.82997">
        <ele>1054</ele>
        <time>2018-05-17T02:11:51Z</time>
      </trkpt>
      <trkpt lat="44.12989" lon="5.82997">
        <ele>1050</ele>
        <time>2018-05-17T02:12:51Z</time>
      </trkpt>
      <trkpt lat="44.13091" lon="5.82709">
        <ele>1077</ele>
        <time>2018-05-17T02:13:51Z</time>
      </trkpt>
      <trkpt lat="44.13162" lon="5.82679">
        <ele>1104</ele>
        <time>2018-05-17T02:14:51Z</time>
      </trkpt>
      <trkpt lat="44.13264" lon="5.82671">
        <ele>1127</ele>
        <time>2018-05-17T02:15:51Z</time>
      </trkpt>
      <trkpt lat="44.13294" lon="5.82525">
        <ele>1137</ele>
        <time>2018-05-17T02:16:51Z</time>
      </trkpt>
      <trkpt lat="44.13304" lon="5.82602">
        <ele>1137</ele>
        <time>2018-05-17T02:17:51Z</time>
      </trkpt>
      <trkpt lat="44.13288" lon="5.82696">
        <ele>1133</ele>
        <time>2018-05-17T02:18:51Z</time>
      </trkpt>
      <trkpt lat="44.13313" lon="5.82756">
        <ele>1137</ele>
        <time>2018-05-17T02:19:51Z</time>
      </trkpt>
      <trkpt lat="44.13304" lon="5.82971">
        <ele>1132</ele>
        <time>2018-05-17T02:20:51Z</time>
      </trkpt>
      <trkpt lat="44.13347" lon="5.83151">
        <ele>1125</ele>
        <time>2018-05-17T02:21:51Z</time>
      </trkpt>
      <trkpt lat="44.13411" lon="5.83173">
        <ele>1120</ele>
        <time>2018-05-17T02:22:51Z</time>
      </trkpt>
      <trkpt lat="44.13516" lon="5.83331">
        <ele>1121</ele>
        <time>2018-05-17T02:23:51Z</time>
      </trkpt>
      <trkpt lat="44.1359" lon="5.83323">
        <ele>1116</ele>
        <time>2018-05-17T02:24:51Z</time>
      </trkpt>
      <trkpt lat="44.13704" lon="5.83434">
        <ele>1116</ele>
        <time>2018-05-17T02:25:51Z</time>
      </trkpt>
      <trkpt lat="44.13713" lon="5.83499">
        <ele>1114</ele>
        <time>2018-05-17T02:26:51Z</time>
      </trkpt>
      <trkpt lat="44.13793" lon="5.83589">
        <ele>1104</ele>
        <time>2018-05-17T02:27:51Z</time>
      </trkpt>
      <trkpt lat="44.1383" lon="5.83696">
        <ele>1087</ele>
        <time>2018-05-17T02:28:51Z</time>
      </trkpt>
      <trkpt lat="44.13839" lon="5.83808">
        <ele>1074</ele>
        <time>2018-05-17T02:29:51Z</time>
      </trkpt>
      <trkpt lat="44.13803" lon="5.83855">
        <ele>1105</ele>
        <time>2018-05-17T02:30:51Z</time>
      </trkpt>
      <trkpt lat="44.13987" lon="5.841">
        <ele>1044</ele>
        <time>2018-05-17T02:31:51Z</time>
      </trkpt>
      <trkpt lat="44.14064" lon="5.84147">
        <ele>1034</ele>
        <time>2018-05-17T02:32:51Z</time>
      </trkpt>
      <trkpt lat="44.14117" lon="5.84108">
        <ele>1011</ele>
        <time>2018-05-17T02:33:51Z</time>
      </trkpt>
      <trkpt lat="44.14166" lon="5.8413">
        <ele>1008</ele>
        <time>2018-05-17T02:34:51Z</time>
      </trkpt>
      <trkpt lat="44.14215" lon="5.84091">
        <ele>985</ele>
        <time>2018-05-17T02:35:51Z</time>
      </trkpt>
      <trkpt lat="44.14249" lon="5.84108">
        <ele>982</ele>
        <time>2018-05-17T02:36:51Z</time>
      </trkpt>
      <trkpt lat="44.14283" lon="5.84082">
        <ele>964</ele>
        <time>2018-05-17T02:37:51Z</time>
      </trkpt>
      <trkpt lat="44.14326" lon="5.84147">
        <ele>964</ele>
        <time>2018-05-17T02:38:51Z</time>
      </trkpt>
      <trkpt lat="44.14415" lon="5.84198">
        <ele>952</ele>
        <time>2018-05-17T02:39:51Z</time>
      </trkpt>
      <trkpt lat="44.14412" lon="5.84121">
        <ele>933</ele>
        <time>2018-05-17T02:40:51Z</time>
      </trkpt>
      <trkpt lat="44.14468" lon="5.84104">
        <ele>909</ele>
        <time>2018-05-17T02:41:51Z</time>
      </trkpt>
      <trkpt lat="44.14434" lon="5.84022">
        <ele>902</ele>
        <time>2018-05-17T02:42:51Z</time>
      </trkpt>
      <trkpt lat="44.1444" lon="5.83971">
        <ele>888</ele>
        <time>2018-05-17T02:43:51Z</time>
      </trkpt>
      <trkpt lat="44.14406" lon="5.83928">
        <ele>881</ele>
        <time>2018-05-17T02:44:51Z</time>
      </trkpt>
      <trkpt lat="44.14431" lon="5.83868">
        <ele>861</ele>
        <time>2018-05-17T02:45:51Z</time>
      </trkpt>
      <trkpt lat="44.14385" lon="5.83842">
        <ele>857</ele>
        <time>2018-05-17T02:46:51Z</time>
      </trkpt>
      <trkpt lat="44.14462" lon="5.83769">
        <ele>830</ele>
        <time>2018-05-17T02:47:51Z</time>
      </trkpt>
      <trkpt lat="44.14609" lon="5.83786">
        <ele>802</ele>
        <time>2018-05-17T02:48:51Z</time>
      </trkpt>
      <trkpt lat="44.14677" lon="5.83748">
        <ele>783</ele>
        <time>2018-05-17T02:49:51Z</time>
      </trkpt>
      <trkpt lat="44.14779" lon="5.83778">
        <ele>763</ele>
        <time>2018-05-17T02:50:51Z</time>
      </trkpt>
      <trkpt lat="44.14803" lon="5.83816">
        <ele>761</ele>
        <time>2018-05-17T02:51:51Z</time>
      </trkpt>
      <trkpt lat="44.1493" lon="5.83829">
        <ele>738</ele>
        <time>2018-05-17T02:52:51Z</time>
      </trkpt>
      <trkpt lat="44.14997" lon="5.83872">
        <ele>732</ele>
        <time>2018-05-17T02:53:51Z</time>
      </trkpt>
      <trkpt lat="44.15013" lon="5.83829">
        <ele>719</ele>
        <time>2018-05-17T02:54:51Z</time>
      </trkpt>
      <trkpt lat="44.15056" lon="5.83876">
        <ele>717</ele>
        <time>2018-05-17T02:55:51Z</time>
      </trkpt>
      <trkpt lat="44.15081" lon="5.83829">
        <ele>699</ele>
        <time>2018-05-17T02:56:51Z</time>
      </trkpt>
      <trkpt lat="44.15182" lon="5.83838">
        <ele>679</ele>
        <time>2018-05-17T02:57:51Z</time>
      </trkpt>
      <trkpt lat="44.15179" lon="5.83769">
        <ele>664</ele>
        <time>2018-05-17T02:58:51Z</time>
      </trkpt>
      <trkpt lat="44.15179" lon="5.83658">
        <ele>649</ele>
        <time>2018-05-17T02:59:51Z</time>
      </trkpt>
      <trkpt lat="44.15262" lon="5.83585">
        <ele>644</ele>
        <time>2018-05-17T03:00:51Z</time>
      </trkpt>
      <trkpt lat="44.15432" lon="5.83593">
        <ele>617</ele>
        <time>2018-05-17T03:01:51Z</time>
      </trkpt>
      <trkpt lat="44.15613" lon="5.83314">
        <ele>638</ele>
        <time>2018-05-17T03:02:51Z</time>
      </trkpt>
      <trkpt lat="44.15724" lon="5.83288">
        <ele>635</ele>
        <time>2018-05-17T03:03:51Z</time>
      </trkpt>
      <trkpt lat="44.15826" lon="5.83198">
        <ele>636</ele>
        <time>2018-05-17T03:04:51Z</time>
      </trkpt>
      <trkpt lat="44.15847" lon="5.83108">
        <ele>646</ele>
        <time>2018-05-17T03:05:51Z</time>
      </trkpt>
      <trkpt lat="44.1606" lon="5.82842">
        <ele>617</ele>
        <time>2018-05-17T03:06:51Z</time>
      </trkpt>
      <trkpt lat="44.16272" lon="5.82889">
        <ele>590</ele>
        <time>2018-05-17T03:07:51Z</time>
      </trkpt>
      <trkpt lat="44.16324" lon="5.82864">
        <ele>587</ele>
        <time>2018-05-17T03:08:51Z</time>
      </trkpt>
      <trkpt lat="44.16371" lon="5.82889">
        <ele>578</ele>
        <time>2018-05-17T03:09:51Z</time>
      </trkpt>
      <trkpt lat="44.16374" lon="5.82928">
        <ele>574</ele>
        <time>2018-05-17T03:10:51Z</time>
      </trkpt>
      <trkpt lat="44.16429" lon="5.82889">
        <ele>568</ele>
        <time>2018-05-17T03:11:51Z</time>
      </trkpt>
      <trkpt lat="44.16488" lon="5.82941">
        <ele>557</ele>
        <time>2018-05-17T03:12:51Z</time>
      </trkpt>
      <trkpt lat="44.16475" lon="5.82838">
        <ele>561</ele>
        <time>2018-05-17T03:13:51Z</time>
      </trkpt>
      <trkpt lat="44.16552" lon="5.82804">
        <ele>550</ele>
        <time>2018-05-17T03:14:51Z</time>
      </trkpt>
      <trkpt lat="44.16611" lon="5.82834">
        <ele>545</ele>
        <time>2018-05-17T03:15:51Z</time>
      </trkpt>
      <trkpt lat="44.16746" lon="5.82769">
        <ele>548</ele>
        <time>2018-05-17T03:16:51Z</time>
      </trkpt>
      <trkpt lat="44.16829" lon="5.82872">
        <ele>557</ele>
        <time>2018-05-17T03:17:51Z</time>
      </trkpt>
      <trkpt lat="44.16897" lon="5.82881">
        <ele>568</ele>
        <time>2018-05-17T03:18:51Z</time>
      </trkpt>
      <trkpt lat="44.16959" lon="5.82949">
        <ele>579</ele>
        <time>2018-05-17T03:19:51Z</time>
      </trkpt>
      <trkpt lat="44.16974" lon="5.83018">
        <ele>582</ele>
        <time>2018-05-17T03:20:51Z</time>
      </trkpt>
      <trkpt lat="44.17061" lon="5.8301">
        <ele>597</ele>
        <time>2018-05-17T03:21:51Z</time>
      </trkpt>
      <trkpt lat="44.17144" lon="5.82954">
        <ele>611</ele>
        <time>2018-05-17T03:22:51Z</time>
      </trkpt>
      <trkpt lat="44.17196" lon="5.82992">
        <ele>617</ele>
        <time>2018-05-17T03:23:51Z</time>
      </trkpt>
      <trkpt lat="44.17242" lon="5.82924">
        <ele>626</ele>
        <time>2018-05-17T03:24:51Z</time>
      </trkpt>
      <trkpt lat="44.1739" lon="5.82902">
        <ele>652</ele>
        <time>2018-05-17T03:25:51Z</time>
      </trkpt>
      <trkpt lat="44.17472" lon="5.82859">
        <ele>666</ele>
        <time>2018-05-17T03:26:51Z</time>
      </trkpt>
      <trkpt lat="44.1758" lon="5.82881">
        <ele>683</ele>
        <time>2018-05-17T03:27:51Z</time>
      </trkpt>
      <trkpt lat="44.17915" lon="5.82821">
        <ele>725</ele>
        <time>2018-05-17T03:28:51Z</time>
      </trkpt>
      <trkpt lat="44.17989" lon="5.82761">
        <ele>731</ele>
        <time>2018-05-17T03:29:51Z</time>
      </trkpt>
      <trkpt lat="44.18103" lon="5.82701">
        <ele>741</ele>
        <time>2018-05-17T03:30:51Z</time>
      </trkpt>
      <trkpt lat="44.18183" lon="5.82701">
        <ele>756</ele>
        <time>2018-05-17T03:31:51Z</time>
      </trkpt>
      <trkpt lat="44.18282" lon="5.82671">
        <ele>762</ele>
        <time>2018-05-17T03:32:51Z</time>
      </trkpt>
      <trkpt lat="44.18374" lon="5.82653">
        <ele>780</ele>
        <time>2018-05-17T03:33:51Z</time>
      </trkpt>
      <trkpt lat="44.18435" lon="5.82568">
        <ele>777</ele>
        <time>2018-05-17T03:34:51Z</time>
      </trkpt>
      <trkpt lat="44.18435" lon="5.82516">
        <ele>776</ele>
        <time>2018-05-17T03:35:51Z</time>
      </trkpt>
      <trkpt lat="44.18479" lon="5.82327">
        <ele>786</ele>
        <time>2018-05-17T03:36:51Z</time>
      </trkpt>
      <trkpt lat="44.1846" lon="5.82456">
        <ele>783</ele>
        <time>2018-05-17T03:37:51Z</time>
      </trkpt>
      <trkpt lat="44.18534" lon="5.82499">
        <ele>800</ele>
        <time>2018-05-17T03:38:51Z</time>
      </trkpt>
      <trkpt lat="44.18568" lon="5.82469">
        <ele>805</ele>
        <time>2018-05-17T03:39:51Z</time>
      </trkpt>
      <trkpt lat="44.1858" lon="5.8258">
        <ele>814</ele>
        <time>2018-05-17T03:40:51Z</time>
      </trkpt>
      <trkpt lat="44.18503" lon="5.82636">
        <ele>810</ele>
        <time>2018-05-17T03:41:51Z</time>
      </trkpt>
      <trkpt lat="44.18442" lon="5.82795">
        <ele>825</ele>
        <time>2018-05-17T03:42:51Z</time>
      </trkpt>
      <trkpt lat="44.18605" lon="5.82782">
        <ele>851</ele>
        <time>2018-05-17T03:43:51Z</time>
      </trkpt>
      <trkpt lat="44.18777" lon="5.82701">
        <ele>872</ele>
        <time>2018-05-17T03:44:51Z</time>
      </trkpt>
      <trkpt lat="44.1886" lon="5.82602">
        <ele>866</ele>
        <time>2018-05-17T03:45:51Z</time>
      </trkpt>
      <trkpt lat="44.18897" lon="5.8246">
        <ele>853</ele>
        <time>2018-05-17T03:46:51Z</time>
      </trkpt>
      <trkpt lat="44.18814" lon="5.82113">
        <ele>837</ele>
        <time>2018-05-17T03:47:51Z</time>
      </trkpt>
      <trkpt lat="44.18786" lon="5.81709">
        <ele>845</ele>
        <time>2018-05-17T03:48:51Z</time>
      </trkpt>
      <trkpt lat="44.18765" lon="5.81649">
        <ele>851</ele>
        <time>2018-05-17T03:49:51Z</time>
      </trkpt>
      <trkpt lat="44.18749" lon="5.81211">
        <ele>908</ele>
        <time>2018-05-17T03:50:51Z</time>
      </trkpt>
      <trkpt lat="44.18679" lon="5.81053">
        <ele>911</ele>
        <time>2018-05-17T03:51:51Z</time>
      </trkpt>
      <trkpt lat="44.18654" lon="5.80902">
        <ele>919</ele>
        <time>2018-05-17T03:52:51Z</time>
      </trkpt>
      <trkpt lat="44.18617" lon="5.80829">
        <ele>920</ele>
        <time>2018-05-17T03:53:51Z</time>
      </trkpt>
      <trkpt lat="44.18752" lon="5.80726">
        <ele>901</ele>
        <time>2018-05-17T03:54:51Z</time>
      </trkpt>
      <trkpt lat="44.18746" lon="5.80641">
        <ele>888</ele>
        <time>2018-05-17T03:55:51Z</time>
      </trkpt>
      <trkpt lat="44.18709" lon="5.80611">
        <ele>877</ele>
        <time>2018-05-17T03:56:51Z</time>
      </trkpt>
      <trkpt lat="44.18712" lon="5.80542">
        <ele>870</ele>
        <time>2018-05-17T03:57:51Z</time>
      </trkpt>
      <trkpt lat="44.18654" lon="5.80413">
        <ele>852</ele>
        <time>2018-05-17T03:58:51Z</time>
      </trkpt>
      <trkpt lat="44.1866" lon="5.80345">
        <ele>850</ele>
        <time>2018-05-17T03:59:51Z</time>
      </trkpt>
      <trkpt lat="44.18534" lon="5.80203">
        <ele>826</ele>
        <time>2018-05-17T04:00:51Z</time>
      </trkpt>
      <trkpt lat="44.18488" lon="5.79967">
        <ele>809</ele>
        <time>2018-05-17T04:01:51Z</time>
      </trkpt>
      <trkpt lat="44.18537" lon="5.79915">
        <ele>813</ele>
        <time>2018-05-17T04:02:51Z</time>
      </trkpt>
      <trkpt lat="44.18563" lon="5.79795">
        <ele>814</ele>
        <time>2018-05-17T04:03:51Z</time>
      </trkpt>
      <trkpt lat="44.18532" lon="5.79583">
        <ele>817</ele>
        <time>2018-05-17T04:04:51Z</time>
      </trkpt>
      <trkpt lat="44.18545" lon="5.79525">
        <ele>822</ele>
        <time>2018-05-17T04:05:51Z</time>
      </trkpt>
      <trkpt lat="44.18579" lon="5.79538">
        <ele>824</ele>
        <time>2018-05-17T04:06:51Z</time>
      </trkpt>
      <trkpt lat="44.18629" lon="5.79467">
        <ele>837</ele>
        <time>2018-05-17T04:07:51Z</time>
      </trkpt>
      <trkpt lat="44.18634" lon="5.79415">
        <ele>841</ele>
        <time>2018-05-17T04:08:51Z</time>
      </trkpt>
      <trkpt lat="44.18709" lon="5.79278">
        <ele>860</ele>
        <time>2018-05-17T04:09:51Z</time>
      </trkpt>
      <trkpt lat="44.18791" lon="5.79192">
        <ele>876</ele>
        <time>2018-05-17T04:10:51Z</time>
      </trkpt>
      <trkpt lat="44.18719" lon="5.79162">
        <ele>869</ele>
        <time>2018-05-17T04:11:51Z</time>
      </trkpt>
      <trkpt lat="44.18691" lon="5.791">
        <ele>875</ele>
        <time>2018-05-17T04:12:51Z</time>
      </trkpt>
      <trkpt lat="44.18628" lon="5.79038">
        <ele>870</ele>
        <time>2018-05-17T04:13:51Z</time>
      </trkpt>
      <trkpt lat="44.18642" lon="5.78958">
        <ele>881</ele>
        <time>2018-05-17T04:14:51Z</time>
      </trkpt>
      <trkpt lat="44.18566" lon="5.78808">
        <ele>892</ele>
        <time>2018-05-17T04:15:51Z</time>
      </trkpt>
      <trkpt lat="44.18468" lon="5.78744">
        <ele>903</ele>
        <time>2018-05-17T04:16:51Z</time>
      </trkpt>
      <trkpt lat="44.18371" lon="5.78737">
        <ele>913</ele>
        <time>2018-05-17T04:17:51Z</time>
      </trkpt>
      <trkpt lat="44.18319" lon="5.78774">
        <ele>912</ele>
        <time>2018-05-17T04:18:51Z</time>
      </trkpt>
      <trkpt lat="44.18286" lon="5.7877">
        <ele>916</ele>
        <time>2018-05-17T04:19:51Z</time>
      </trkpt>
      <trkpt lat="44.18346" lon="5.78561">
        <ele>942</ele>
        <time>2018-05-17T04:20:51Z</time>
      </trkpt>
      <trkpt lat="44.183" lon="5.78437">
        <ele>956</ele>
        <time>2018-05-17T04:21:51Z</time>
      </trkpt>
      <trkpt lat="44.18316" lon="5.7839">
        <ele>965</ele>
        <time>2018-05-17T04:22:51Z</time>
      </trkpt>
      <trkpt lat="44.18288" lon="5.78246">
        <ele>981</ele>
        <time>2018-05-17T04:23:51Z</time>
      </trkpt>
      <trkpt lat="44.18323" lon="5.7807">
        <ele>997</ele>
        <time>2018-05-17T04:24:51Z</time>
      </trkpt>
      <trkpt lat="44.18537" lon="5.77958">
        <ele>1040</ele>
        <time>2018-05-17T04:25:51Z</time>
      </trkpt>
      <trkpt lat="44.18603" lon="5.7784">
        <ele>1056</ele>
        <time>2018-05-17T04:26:51Z</time>
      </trkpt>
      <trkpt lat="44.18628" lon="5.77609">
        <ele>1038</ele>
        <time>2018-05-17T04:27:51Z</time>
      </trkpt>
      <trkpt lat="44.18619" lon="5.77486">
        <ele>1029</ele>
        <time>2018-05-17T04:28:51Z</time>
      </trkpt>
      <trkpt lat="44.18591" lon="5.77405">
        <ele>1016</ele>
        <time>2018-05-17T04:29:51Z</time>
      </trkpt>
      <trkpt lat="44.18585" lon="5.77325">
        <ele>1014</ele>
        <time>2018-05-17T04:30:51Z</time>
      </trkpt>
      <trkpt lat="44.18597" lon="5.77261">
        <ele>1012</ele>
        <time>2018-05-17T04:31:51Z</time>
      </trkpt>
      <trkpt lat="44.18571" lon="5.77182">
        <ele>998</ele>
        <time>2018-05-17T04:32:51Z</time>
      </trkpt>
      <trkpt lat="44.18552" lon="5.77053">
        <ele>982</ele>
        <time>2018-05-17T04:33:51Z</time>
      </trkpt>
      <trkpt lat="44.18574" lon="5.76911">
        <ele>972</ele>
        <time>2018-05-17T04:34:51Z</time>
      </trkpt>
      <trkpt lat="44.18551" lon="5.76735">
        <ele>949</ele>
        <time>2018-05-17T04:35:51Z</time>
      </trkpt>
      <trkpt lat="44.18628" lon="5.7677">
        <ele>960</ele>
        <time>2018-05-17T04:36:51Z</time>
      </trkpt>
      <trkpt lat="44.18628" lon="5.76707">
        <ele>947</ele>
        <time>2018-05-17T04:37:51Z</time>
      </trkpt>
      <trkpt lat="44.18571" lon="5.76701">
        <ele>943</ele>
        <time>2018-05-17T04:38:51Z</time>
      </trkpt>
      <trkpt lat="44.18528" lon="5.76656">
        <ele>931</ele>
        <time>2018-05-17T04:39:51Z</time>
      </trkpt>
      <trkpt lat="44.18599" lon="5.76647">
        <ele>931</ele>
        <time>2018-05-17T04:40:51Z</time>
      </trkpt>
      <trkpt lat="44.18566" lon="5.76619">
        <ele>922</ele>
        <time>2018-05-17T04:41:51Z</time>
      </trkpt>
      <trkpt lat="44.1852" lon="5.76626">
        <ele>922</ele>
        <time>2018-05-17T04:42:51Z</time>
      </trkpt>
      <trkpt lat="44.18497" lon="5.76624">
        <ele>920</ele>
        <time>2018-05-17T04:43:51Z</time>
      </trkpt>
      <trkpt lat="44.18463" lon="5.76643">
        <ele>918</ele>
        <time>2018-05-17T04:44:51Z</time>
      </trkpt>
      <trkpt lat="44.18229" lon="5.76649">
        <ele>888</ele>
        <time>2018-05-17T04:45:51Z</time>
      </trkpt>
      <trkpt lat="44.1818" lon="5.76699">
        <ele>877</ele>
        <time>2018-05-17T04:46:51Z</time>
      </trkpt>
      <trkpt lat="44.18143" lon="5.76688">
        <ele>872</ele>
        <time>2018-05-17T04:47:51Z</time>
      </trkpt>
      <trkpt lat="44.18106" lon="5.76649">
        <ele>875</ele>
        <time>2018-05-17T04:48:51Z</time>
      </trkpt>
      <trkpt lat="44.18091" lon="5.76667">
        <ele>866</ele>
        <time>2018-05-17T04:49:51Z</time>
      </trkpt>
      <trkpt lat="44.18123" lon="5.76735">
        <ele>856</ele>
        <time>2018-05-17T04:50:51Z</time>
      </trkpt>
      <trkpt lat="44.18206" lon="5.7672">
        <ele>876</ele>
        <time>2018-05-17T04:51:51Z</time>
      </trkpt>
      <trkpt lat="44.182" lon="5.76763">
        <ele>868</ele>
        <time>2018-05-17T04:52:51Z</time>
      </trkpt>
      <trkpt lat="44.18111" lon="5.7677">
        <ele>845</ele>
        <time>2018-05-17T04:53:51Z</time>
      </trkpt>
      <trkpt lat="44.18022" lon="5.76628">
        <ele>844</ele>
        <time>2018-05-17T04:54:51Z</time>
      </trkpt>
      <trkpt lat="44.17902" lon="5.7648">
        <ele>823</ele>
        <time>2018-05-17T04:55:51Z</time>
      </trkpt>
      <trkpt lat="44.17748" lon="5.76441">
        <ele>788</ele>
        <time>2018-05-17T04:56:51Z</time>
      </trkpt>
      <trkpt lat="44.17671" lon="5.76377">
        <ele>768</ele>
        <time>2018-05-17T04:57:51Z</time>
      </trkpt>
      <trkpt lat="44.17541" lon="5.76371">
        <ele>757</ele>
        <time>2018-05-17T04:58:51Z</time>
      </trkpt>
      <trkpt lat="44.17441" lon="5.76291">
        <ele>738</ele>
        <time>2018-05-17T04:59:51Z</time>
      </trkpt>
      <trkpt lat="44.17411" lon="5.76321">
        <ele>738</ele>
        <time>2018-05-17T05:00:51Z</time>
      </trkpt>
      <trkpt lat="44.17344" lon="5.76212">
        <ele>720</ele>
        <time>2018-05-17T05:01:51Z</time>
      </trkpt>
      <trkpt lat="44.17306" lon="5.76171">
        <ele>709</ele>
        <time>2018-05-17T05:02:51Z</time>
      </trkpt>
      <trkpt lat="44.17158" lon="5.76177">
        <ele>686</ele>
        <time>2018-05-17T05:03:51Z</time>
      </trkpt>
      <trkpt lat="44.17051" lon="5.76042">
        <ele>665</ele>
        <time>2018-05-17T05:04:51Z</time>
      </trkpt>
      <trkpt lat="44.17021" lon="5.76004">
        <ele>656</ele>
        <time>2018-05-17T05:05:51Z</time>
      </trkpt>
      <trkpt lat="44.17001" lon="5.76072">
        <ele>653</ele>
        <time>2018-05-17T05:06:51Z</time>
      </trkpt>
      <trkpt lat="44.16969" lon="5.75963">
        <ele>639</ele>
        <time>2018-05-17T05:07:51Z</time>
      </trkpt>
      <trkpt lat="44.17126" lon="5.75815">
        <ele>633</ele>
        <time>2018-05-17T05:08:51Z</time>
      </trkpt>
      <trkpt lat="44.17027" lon="5.75692">
        <ele>625</ele>
        <time>2018-05-17T05:09:51Z</time>
      </trkpt>
      <trkpt lat="44.16974" lon="5.75708">
        <ele>623</ele>
        <time>2018-05-17T05:10:51Z</time>
      </trkpt>
      <trkpt lat="44.1699" lon="5.75523">
        <ele>624</ele>
        <time>2018-05-17T05:11:51Z</time>
      </trkpt>
      <trkpt lat="44.17018" lon="5.75431">
        <ele>626</ele>
        <time>2018-05-17T05:12:51Z</time>
      </trkpt>
      <trkpt lat="44.17058" lon="5.75177">
        <ele>633</ele>
        <time>2018-05-17T05:13:51Z</time>
      </trkpt>
      <trkpt lat="44.17077" lon="5.75023">
        <ele>640</ele>
        <time>2018-05-17T05:14:51Z</time>
      </trkpt>
      <trkpt lat="44.17101" lon="5.74907">
        <ele>643</ele>
        <time>2018-05-17T05:15:51Z</time>
      </trkpt>
      <trkpt lat="44.1708" lon="5.7477">
        <ele>647</ele>
        <time>2018-05-17T05:16:51Z</time>
      </trkpt>
      <trkpt lat="44.1702" lon="5.74774">
        <ele>648</ele>
        <time>2018-05-17T05:17:51Z</time>
      </trkpt>
      <trkpt lat="44.16921" lon="5.7474">
        <ele>646</ele>
        <time>2018-05-17T05:18:51Z</time>
      </trkpt>
      <trkpt lat="44.16832" lon="5.74688">
        <ele>638</ele>
        <time>2018-05-17T05:19:51Z</time>
      </trkpt>
      <trkpt lat="44.16672" lon="5.74658">
        <ele>623</ele>
        <time>2018-05-17T05:20:51Z</time>
      </trkpt>
      <trkpt lat="44.16604" lon="5.74281">
        <ele>645</ele>
        <time>2018-05-17T05:21:51Z</time>
      </trkpt>
      <trkpt lat="44.16484" lon="5.7395">
        <ele>663</ele>
        <time>2018-05-17T05:22:51Z</time>
      </trkpt>
      <trkpt lat="44.16429" lon="5.73907">
        <ele>665</ele>
        <time>2018-05-17T05:23:51Z</time>
      </trkpt>
      <trkpt lat="44.16349" lon="5.73813">
        <ele>661</ele>
        <time>2018-05-17T05:24:51Z</time>
      </trkpt>
      <trkpt lat="44.16327" lon="5.73675">
        <ele>659</ele>
        <time>2018-05-17T05:25:51Z</time>
      </trkpt>
      <trkpt lat="44.16355" lon="5.7362">
        <ele>666</ele>
        <time>2018-05-17T05:26:51Z</time>
      </trkpt>
      <trkpt lat="44.16315" lon="5.73564">
        <ele>661</ele>
        <time>2018-05-17T05:27:51Z</time>
      </trkpt>
      <trkpt lat="44.16339" lon="5.73478">
        <ele>669</ele>
        <time>2018-05-17T05:28:51Z</time>
      </trkpt>
      <trkpt lat="44.16309" lon="5.73345">
        <ele>675</ele>
        <time>2018-05-17T05:29:51Z</time>
      </trkpt>
      <trkpt lat="44.16272" lon="5.73272">
        <ele>672</ele>
        <time>2018-05-17T05:30:51Z</time>
      </trkpt>
      <trkpt lat="44.16275" lon="5.73173">
        <ele>678</ele>
        <time>2018-05-17T05:31:51Z</time>
      </trkpt>
      <trkpt lat="44.16247" lon="5.73079">
        <ele>670</ele>
        <time>2018-05-17T05:32:51Z</time>
      </trkpt>
      <trkpt lat="44.16253" lon="5.73006">
        <ele>672</ele>
        <time>2018-05-17T05:33:51Z</time>
      </trkpt>
      <trkpt lat="44.16272" lon="5.72912">
        <ele>679</ele>
        <time>2018-05-17T05:34:51Z</time>
      </trkpt>
      <trkpt lat="44.1613" lon="5.7253">
        <ele>677</ele>
        <time>2018-05-17T05:35:51Z</time>
      </trkpt>
      <trkpt lat="44.1609" lon="5.72478">
        <ele>679</ele>
        <time>2018-05-17T05:36:51Z</time>
      </trkpt>
      <trkpt lat="44.1605" lon="5.72409">
        <ele>684</ele>
        <time>2018-05-17T05:37:51Z</time>
      </trkpt>
      <trkpt lat="44.16038" lon="5.72251">
        <ele>699</ele>
        <time>2018-05-17T05:38:51Z</time>
      </trkpt>
      <trkpt lat="44.15985" lon="5.72131">
        <ele>707</ele>
        <time>2018-05-17T05:39:51Z</time>
      </trkpt>
      <trkpt lat="44.15985" lon="5.7207">
        <ele>707</ele>
        <time>2018-05-17T05:40:51Z</time>
      </trkpt>
      <trkpt lat="44.16025" lon="5.71899">
        <ele>714</ele>
        <time>2018-05-17T05:41:51Z</time>
      </trkpt>
      <trkpt lat="44.15961" lon="5.7165">
        <ele>731</ele>
        <time>2018-05-17T05:42:51Z</time>
      </trkpt>
      <trkpt lat="44.15896" lon="5.71392">
        <ele>742</ele>
        <time>2018-05-17T05:43:51Z</time>
      </trkpt>
      <trkpt lat="44.15788" lon="5.71251">
        <ele>751</ele>
        <time>2018-05-17T05:44:51Z</time>
      </trkpt>
      <trkpt lat="44.15791" lon="5.71062">
        <ele>749</ele>
        <time>2018-05-17T05:45:51Z</time>
      </trkpt>
      <trkpt lat="44.15736" lon="5.70899">
        <ele>751</ele>
        <time>2018-05-17T05:46:51Z</time>
      </trkpt>
      <trkpt lat="44.1569" lon="5.70826">
        <ele>754</ele>
        <time>2018-05-17T05:47:51Z</time>
      </trkpt>
      <trkpt lat="44.15659" lon="5.70633">
        <ele>749</ele>
        <time>2018-05-17T05:48:51Z</time>
      </trkpt>
      <trkpt lat="44.15579" lon="5.7056">
        <ele>759</ele>
        <time>2018-05-17T05:49:51Z</time>
      </trkpt>
      <trkpt lat="44.15542" lon="5.70487">
        <ele>757</ele>
        <time>2018-05-17T05:50:51Z</time>
      </trkpt>
      <trkpt lat="44.15499" lon="5.70487">
        <ele>763</ele>
        <time>2018-05-17T05:51:51Z</time>
      </trkpt>
      <trkpt lat="44.15388" lon="5.70401">
        <ele>768</ele>
        <time>2018-05-17T05:52:51Z</time>
      </trkpt>
      <trkpt lat="44.15342" lon="5.70427">
        <ele>778</ele>
        <time>2018-05-17T05:53:51Z</time>
      </trkpt>
      <trkpt lat="44.15326" lon="5.70362">
        <ele>790</ele>
        <time>2018-05-17T05:54:51Z</time>
      </trkpt>
      <trkpt lat="44.15357" lon="5.70289">
        <ele>787</ele>
        <time>2018-05-17T05:55:51Z</time>
      </trkpt>
      <trkpt lat="44.1532" lon="5.70199">
        <ele>811</ele>
        <time>2018-05-17T05:56:51Z</time>
      </trkpt>
      <trkpt lat="44.15268" lon="5.70255">
        <ele>825</ele>
        <time>2018-05-17T05:57:51Z</time>
      </trkpt>
      <trkpt lat="44.15203" lon="5.70229">
        <ele>853</ele>
        <time>2018-05-17T05:58:51Z</time>
      </trkpt>
      <trkpt lat="44.15191" lon="5.70088">
        <ele>874</ele>
        <time>2018-05-17T05:59:51Z</time>
      </trkpt>
      <trkpt lat="44.15" lon="5.70234">
        <ele>934</ele>
        <time>2018-05-17T06:00:51Z</time>
      </trkpt>
      <trkpt lat="44.14969" lon="5.70345">
        <ele>953</ele>
        <time>2018-05-17T06:01:51Z</time>
      </trkpt>
      <trkpt lat="44.14905" lon="5.70397">
        <ele>986</ele>
        <time>2018-05-17T06:02:51Z</time>
      </trkpt>
      <trkpt lat="44.14908" lon="5.70444">
        <ele>988</ele>
        <time>2018-05-17T06:03:51Z</time>
      </trkpt>
      <trkpt lat="44.1496" lon="5.70508">
        <ele>976</ele>
        <time>2018-05-17T06:04:51Z</time>
      </trkpt>
      <trkpt lat="44.14883" lon="5.70547">
        <ele>987</ele>
        <time>2018-05-17T06:05:51Z</time>
      </trkpt>
      <trkpt lat="44.14828" lon="5.70551">
        <ele>1004</ele>
        <time>2018-05-17T06:06:51Z</time>
      </trkpt>
      <trkpt lat="44.14825" lon="5.70508">
        <ele>1017</ele>
        <time>2018-05-17T06:07:51Z</time>
      </trkpt>
      <trkpt lat="44.14744" lon="5.70534">
        <ele>1033</ele>
        <time>2018-05-17T06:08:51Z</time>
      </trkpt>
      <trkpt lat="44.14634" lon="5.70517">
        <ele>1057</ele>
        <time>2018-05-17T06:09:51Z</time>
      </trkpt>
      <trkpt lat="44.14443" lon="5.70564">
        <ele>1088</ele>
        <time>2018-05-17T06:10:51Z</time>
      </trkpt>
      <trkpt lat="44.14316" lon="5.70513">
        <ele>1124</ele>
        <time>2018-05-17T06:11:51Z</time>
      </trkpt>
      <trkpt lat="44.13981" lon="5.70684">
        <ele>1176</ele>
        <time>2018-05-17T06:12:51Z</time>
      </trkpt>
      <trkpt lat="44.14018" lon="5.708">
        <ele>1159</ele>
        <time>2018-05-17T06:13:51Z</time>
      </trkpt>
      <trkpt lat="44.14039" lon="5.70976">
        <ele>1185</ele>
        <time>2018-05-17T06:14:51Z</time>
      </trkpt>
      <trkpt lat="44.13845" lon="5.70693">
        <ele>1242</ele>
        <time>2018-05-17T06:15:51Z</time>
      </trkpt>
      <trkpt lat="44.13861" lon="5.70817">
        <ele>1250</ele>
        <time>2018-05-17T06:16:51Z</time>
      </trkpt>
      <trkpt lat="44.13728" lon="5.70633">
        <ele>1291</ele>
        <time>2018-05-17T06:17:51Z</time>
      </trkpt>
      <trkpt lat="44.1375" lon="5.70534">
        <ele>1293</ele>
        <time>2018-05-17T06:18:51Z</time>
      </trkpt>
      <trkpt lat="44.13546" lon="5.7056">
        <ele>1288</ele>
        <time>2018-05-17T06:19:51Z</time>
      </trkpt>
      <trkpt lat="44.12746" lon="5.7041">
        <ele>1162</ele>
        <time>2018-05-17T06:20:51Z</time>
      </trkpt>
      <trkpt lat="44.12629" lon="5.70345">
        <ele>1149</ele>
        <time>2018-05-17T06:21:51Z</time>
      </trkpt>
      <trkpt lat="44.1245" lon="5.70367">
        <ele>1139</ele>
        <time>2018-05-17T06:22:51Z</time>
      </trkpt>
      <trkpt lat="44.12345" lon="5.70311">
        <ele>1122</ele>
        <time>2018-05-17T06:23:51Z</time>
      </trkpt>
      <trkpt lat="44.12105" lon="5.70298">
        <ele>1077</ele>
        <time>2018-05-17T06:24:51Z</time>
      </trkpt>
      <trkpt lat="44.12003" lon="5.70255">
        <ele>1058</ele>
        <time>2018-05-17T06:25:51Z</time>
      </trkpt>
      <trkpt lat="44.11914" lon="5.70255">
        <ele>1054</ele>
        <time>2018-05-17T06:26:51Z</time>
      </trkpt>
      <trkpt lat="44.11846" lon="5.70281">
        <ele>1054</ele>
        <time>2018-05-17T06:27:51Z</time>
      </trkpt>
      <trkpt lat="44.11797" lon="5.70255">
        <ele>1047</ele>
        <time>2018-05-17T06:28:51Z</time>
      </trkpt>
      <trkpt lat="44.11735" lon="5.70242">
        <ele>1039</ele>
        <time>2018-05-17T06:29:51Z</time>
      </trkpt>
      <trkpt lat="44.1167" lon="5.70182">
        <ele>1027</ele>
        <time>2018-05-17T06:30:51Z</time>
      </trkpt>
      <trkpt lat="44.11624" lon="5.70062">
        <ele>1031</ele>
        <time>2018-05-17T06:31:51Z</time>
      </trkpt>
      <trkpt lat="44.11578" lon="5.70032">
        <ele>1021</ele>
        <time>2018-05-17T06:32:51Z</time>
      </trkpt>
      <trkpt lat="44.11538" lon="5.69993">
        <ele>1018</ele>
        <time>2018-05-17T06:33:51Z</time>
      </trkpt>
      <trkpt lat="44.11002" lon="5.69933">
        <ele>968</ele>
        <time>2018-05-17T06:34:51Z</time>
      </trkpt>
      <trkpt lat="44.10943" lon="5.69933">
        <ele>964</ele>
        <time>2018-05-17T06:35:51Z</time>
      </trkpt>
      <trkpt lat="44.10885" lon="5.69903">
        <ele>960</ele>
        <time>2018-05-17T06:36:51Z</time>
      </trkpt>
      <trkpt lat="44.10808" lon="5.69916">
        <ele>952</ele>
        <time>2018-05-17T06:37:51Z</time>
      </trkpt>
      <trkpt lat="44.10644" lon="5.69972">
        <ele>947</ele>
        <time>2018-05-17T06:38:51Z</time>
      </trkpt>
      <trkpt lat="44.10623" lon="5.69993">
        <ele>941</ele>
        <time>2018-05-17T06:39:51Z</time>
      </trkpt>
      <trkpt lat="44.10573" lon="5.69985">
        <ele>940</ele>
        <time>2018-05-17T06:40:51Z</time>
      </trkpt>
      <trkpt lat="44.10444" lon="5.70045">
        <ele>926</ele>
        <time>2018-05-17T06:41:51Z</time>
      </trkpt>
      <trkpt lat="44.10358" lon="5.70028">
        <ele>932</ele>
        <time>2018-05-17T06:42:51Z</time>
      </trkpt>
      <trkpt lat="44.10308" lon="5.70028">
        <ele>938</ele>
        <time>2018-05-17T06:43:51Z</time>
      </trkpt>
      <trkpt lat="44.1025" lon="5.69972">
        <ele>952</ele>
        <time>2018-05-17T06:44:51Z</time>
      </trkpt>
      <trkpt lat="44.10296" lon="5.69912">
        <ele>964</ele>
        <time>2018-05-17T06:45:51Z</time>
      </trkpt>
      <trkpt lat="44.1041" lon="5.69869">
        <ele>969</ele>
        <time>2018-05-17T06:46:51Z</time>
      </trkpt>
      <trkpt lat="44.1049" lon="5.69796">
        <ele>981</ele>
        <time>2018-05-17T06:47:51Z</time>
      </trkpt>
      <trkpt lat="44.10592" lon="5.69757">
        <ele>982</ele>
        <time>2018-05-17T06:48:51Z</time>
      </trkpt>
      <trkpt lat="44.10734" lon="5.6965">
        <ele>1004</ele>
        <time>2018-05-17T06:49:51Z</time>
      </trkpt>
      <trkpt lat="44.10706" lon="5.6962">
        <ele>1010</ele>
        <time>2018-05-17T06:50:51Z</time>
      </trkpt>
      <trkpt lat="44.1053" lon="5.69611">
        <ele>1011</ele>
        <time>2018-05-17T06:51:51Z</time>
      </trkpt>
      <trkpt lat="44.10447" lon="5.69556">
        <ele>1013</ele>
        <time>2018-05-17T06:52:51Z</time>
      </trkpt>
      <trkpt lat="44.10278" lon="5.69564">
        <ele>1011</ele>
        <time>2018-05-17T06:53:51Z</time>
      </trkpt>
      <trkpt lat="44.10006" lon="5.69457">
        <ele>987</ele>
        <time>2018-05-17T06:54:51Z</time>
      </trkpt>
      <trkpt lat="44.09862" lon="5.69453">
        <ele>973</ele>
        <time>2018-05-17T06:55:51Z</time>
      </trkpt>
      <trkpt lat="44.09634" lon="5.6941">
        <ele>946</ele>
        <time>2018-05-17T06:56:51Z</time>
      </trkpt>
      <trkpt lat="44.09486" lon="5.69418">
        <ele>930</ele>
        <time>2018-05-17T06:57:51Z</time>
      </trkpt>
      <trkpt lat="44.09368" lon="5.6944">
        <ele>915</ele>
        <time>2018-05-17T06:58:51Z</time>
      </trkpt>
      <trkpt lat="44.09208" lon="5.69096">
        <ele>885</ele>
        <time>2018-05-17T06:59:51Z</time>
      </trkpt>
      <trkpt lat="44.09153" lon="5.69062">
        <ele>879</ele>
        <time>2018-05-17T07:00:51Z</time>
      </trkpt>
      <trkpt lat="44.0894" lon="5.69131">
        <ele>873</ele>
        <time>2018-05-17T07:01:51Z</time>
      </trkpt>
      <trkpt lat="44.08971" lon="5.69199">
        <ele>869</ele>
        <time>2018-05-17T07:02:51Z</time>
      </trkpt>
      <trkpt lat="44.08777" lon="5.69384">
        <ele>846</ele>
        <time>2018-05-17T07:03:51Z</time>
      </trkpt>
      <trkpt lat="44.08697" lon="5.69586">
        <ele>857</ele>
        <time>2018-05-17T07:04:51Z</time>
      </trkpt>
      <trkpt lat="44.08644" lon="5.69744">
        <ele>877</ele>
        <time>2018-05-17T07:05:51Z</time>
      </trkpt>
      <trkpt lat="44.08663" lon="5.69856">
        <ele>885</ele>
        <time>2018-05-17T07:06:51Z</time>
      </trkpt>
      <trkpt lat="44.08746" lon="5.69925">
        <ele>892</ele>
        <time>2018-05-17T07:07:51Z</time>
      </trkpt>
      <trkpt lat="44.08733" lon="5.70319">
        <ele>889</ele>
        <time>2018-05-17T07:08:51Z</time>
      </trkpt>
      <trkpt lat="44.0865" lon="5.70431">
        <ele>875</ele>
        <time>2018-05-17T07:09:51Z</time>
      </trkpt>
      <trkpt lat="44.08592" lon="5.70457">
        <ele>866</ele>
        <time>2018-05-17T07:10:51Z</time>
      </trkpt>
      <trkpt lat="44.08595" lon="5.70543">
        <ele>866</ele>
        <time>2018-05-17T07:11:51Z</time>
      </trkpt>
      <trkpt lat="44.08545" lon="5.70607">
        <ele>870</ele>
        <time>2018-05-17T07:12:51Z</time>
      </trkpt>
      <trkpt lat="44.08456" lon="5.70731">
        <ele>894</ele>
        <time>2018-05-17T07:13:51Z</time>
      </trkpt>
      <trkpt lat="44.08401" lon="5.70762">
        <ele>901</ele>
        <time>2018-05-17T07:14:51Z</time>
      </trkpt>
      <trkpt lat="44.08397" lon="5.70937">
        <ele>932</ele>
        <time>2018-05-17T07:15:51Z</time>
      </trkpt>
      <trkpt lat="44.08336" lon="5.71199">
        <ele>968</ele>
        <time>2018-05-17T07:16:51Z</time>
      </trkpt>
      <trkpt lat="44.08336" lon="5.71452">
        <ele>977</ele>
        <time>2018-05-17T07:17:51Z</time>
      </trkpt>
      <trkpt lat="44.0837" lon="5.71543">
        <ele>975</ele>
        <time>2018-05-17T07:18:51Z</time>
      </trkpt>
      <trkpt lat="44.08139" lon="5.71942">
        <ele>947</ele>
        <time>2018-05-17T07:19:51Z</time>
      </trkpt>
      <trkpt lat="44.07793" lon="5.72148">
        <ele>915</ele>
        <time>2018-05-17T07:20:51Z</time>
      </trkpt>
      <trkpt lat="44.07698" lon="5.72173">
        <ele>908</ele>
        <time>2018-05-17T07:21:51Z</time>
      </trkpt>
      <trkpt lat="44.07621" lon="5.72156">
        <ele>903</ele>
        <time>2018-05-17T07:22:51Z</time>
      </trkpt>
      <trkpt lat="44.07035" lon="5.71989">
        <ele>861</ele>
        <time>2018-05-17T07:23:51Z</time>
      </trkpt>
      <trkpt lat="44.07016" lon="5.71942">
        <ele>859</ele>
        <time>2018-05-17T07:24:51Z</time>
      </trkpt>
      <trkpt lat="44.0677" lon="5.71877">
        <ele>843</ele>
        <time>2018-05-17T07:25:51Z</time>
      </trkpt>
      <trkpt lat="44.06569" lon="5.71701">
        <ele>836</ele>
        <time>2018-05-17T07:26:51Z</time>
      </trkpt>
      <trkpt lat="44.06326" lon="5.7159">
        <ele>815</ele>
        <time>2018-05-17T07:27:51Z</time>
      </trkpt>
      <trkpt lat="44.06048" lon="5.71371">
        <ele>796</ele>
        <time>2018-05-17T07:28:51Z</time>
      </trkpt>
      <trkpt lat="44.05875" lon="5.71341">
        <ele>788</ele>
        <time>2018-05-17T07:29:51Z</time>
      </trkpt>
      <trkpt lat="44.05749" lon="5.71246">
        <ele>779</ele>
        <time>2018-05-17T07:30:51Z</time>
      </trkpt>
      <trkpt lat="44.0569" lon="5.71302">
        <ele>776</ele>
        <time>2018-05-17T07:31:51Z</time>
      </trkpt>
      <trkpt lat="44.05678" lon="5.71427">
        <ele>773</ele>
        <time>2018-05-17T07:32:51Z</time>
      </trkpt>
      <trkpt lat="44.05567" lon="5.71371">
        <ele>768</ele>
        <time>2018-05-17T07:33:51Z</time>
      </trkpt>
      <trkpt lat="44.05508" lon="5.71289">
        <ele>763</ele>
        <time>2018-05-17T07:34:51Z</time>
      </trkpt>
      <trkpt lat="44.05329" lon="5.71238">
        <ele>752</ele>
        <time>2018-05-17T07:35:51Z</time>
      </trkpt>
      <trkpt lat="44.05135" lon="5.71173">
        <ele>742</ele>
        <time>2018-05-17T07:36:51Z</time>
      </trkpt>
      <trkpt lat="44.04885" lon="5.71152">
        <ele>731</ele>
        <time>2018-05-17T07:37:51Z</time>
      </trkpt>
      <trkpt lat="44.04691" lon="5.71152">
        <ele>725</ele>
        <time>2018-05-17T07:38:51Z</time>
      </trkpt>
      <trkpt lat="44.04589" lon="5.71191">
        <ele>721</ele>
        <time>2018-05-17T07:39:51Z</time>
      </trkpt>
      <trkpt lat="44.04441" lon="5.71173">
        <ele>717</ele>
        <time>2018-05-17T07:40:51Z</time>
      </trkpt>
      <trkpt lat="44.04025" lon="5.7101">
        <ele>698</ele>
        <time>2018-05-17T07:41:51Z</time>
      </trkpt>
      <trkpt lat="44.03796" lon="5.71083">
        <ele>685</ele>
        <time>2018-05-17T07:42:51Z</time>
      </trkpt>
      <trkpt lat="44.0363" lon="5.71105">
        <ele>683</ele>
        <time>2018-05-17T07:43:51Z</time>
      </trkpt>
      <trkpt lat="44.03556" lon="5.71062">
        <ele>673</ele>
        <time>2018-05-17T07:44:51Z</time>
      </trkpt>
      <trkpt lat="44.0362" lon="5.71015">
        <ele>671</ele>
        <time>2018-05-17T07:45:51Z</time>
      </trkpt>
      <trkpt lat="44.03608" lon="5.70895">
        <ele>672</ele>
        <time>2018-05-17T07:46:51Z</time>
      </trkpt>
      <trkpt lat="44.03691" lon="5.7071">
        <ele>678</ele>
        <time>2018-05-17T07:47:51Z</time>
      </trkpt>
      <trkpt lat="44.03482" lon="5.70804">
        <ele>668</ele>
        <time>2018-05-17T07:48:51Z</time>
      </trkpt>
      <trkpt lat="44.03278" lon="5.70834">
        <ele>661</ele>
        <time>2018-05-17T07:49:51Z</time>
      </trkpt>
      <trkpt lat="44.03074" lon="5.70676">
        <ele>657</ele>
        <time>2018-05-17T07:50:51Z</time>
      </trkpt>
      <trkpt lat="44.02892" lon="5.70568">
        <ele>655</ele>
        <time>2018-05-17T07:51:51Z</time>
      </trkpt>
      <trkpt lat="44.02815" lon="5.70568">
        <ele>652</ele>
        <time>2018-05-17T07:52:51Z</time>
      </trkpt>
      <trkpt lat="44.02815" lon="5.70603">
        <ele>652</ele>
        <time>2018-05-17T07:53:51Z</time>
      </trkpt>
      <trkpt lat="44.02692" lon="5.70701">
        <ele>645</ele>
        <time>2018-05-17T07:54:51Z</time>
      </trkpt>
      <trkpt lat="44.02423" lon="5.70834">
        <ele>637</ele>
        <time>2018-05-17T07:55:51Z</time>
      </trkpt>
      <trkpt lat="44.02386" lon="5.70779">
        <ele>634</ele>
        <time>2018-05-17T07:56:51Z</time>
      </trkpt>
      <trkpt lat="44.02358" lon="5.70448">
        <ele>638</ele>
        <time>2018-05-17T07:57:51Z</time>
      </trkpt>
      <trkpt lat="44.02254" lon="5.70302">
        <ele>645</ele>
        <time>2018-05-17T07:58:51Z</time>
      </trkpt>
      <trkpt lat="44.02195" lon="5.70152">
        <ele>649</ele>
        <time>2018-05-17T07:59:51Z</time>
      </trkpt>
      <trkpt lat="44.0209" lon="5.70101">
        <ele>653</ele>
        <time>2018-05-17T08:00:51Z</time>
      </trkpt>
      <trkpt lat="44.02072" lon="5.70041">
        <ele>657</ele>
        <time>2018-05-17T08:01:51Z</time>
      </trkpt>
      <trkpt lat="44.01859" lon="5.69933">
        <ele>667</ele>
        <time>2018-05-17T08:02:51Z</time>
      </trkpt>
      <trkpt lat="44.01784" lon="5.69959">
        <ele>666</ele>
        <time>2018-05-17T08:03:51Z</time>
      </trkpt>
      <trkpt lat="44.01633" lon="5.69886">
        <ele>668</ele>
        <time>2018-05-17T08:04:51Z</time>
      </trkpt>
      <trkpt lat="44.01464" lon="5.69865">
        <ele>668</ele>
        <time>2018-05-17T08:05:51Z</time>
      </trkpt>
      <trkpt lat="44.01291" lon="5.69925">
        <ele>668</ele>
        <time>2018-05-17T08:06:51Z</time>
      </trkpt>
      <trkpt lat="44.00738" lon="5.70032">
        <ele>674</ele>
        <time>2018-05-17T08:07:51Z</time>
      </trkpt>
      <trkpt lat="44.00337" lon="5.69959">
        <ele>667</ele>
        <time>2018-05-17T08:08:51Z</time>
      </trkpt>
      <trkpt lat="44.00065" lon="5.69667">
        <ele>649</ele>
        <time>2018-05-17T08:09:51Z</time>
      </trkpt>
      <trkpt lat="43.99988" lon="5.69646">
        <ele>638</ele>
        <time>2018-05-17T08:10:51Z</time>
      </trkpt>
      <trkpt lat="43.99939" lon="5.69453">
        <ele>630</ele>
        <time>2018-05-17T08:11:51Z</time>
      </trkpt>
      <trkpt lat="43.99868" lon="5.69272">
        <ele>631</ele>
        <time>2018-05-17T08:12:51Z</time>
      </trkpt>
      <trkpt lat="43.99682" lon="5.69058">
        <ele>610</ele>
        <time>2018-05-17T08:13:51Z</time>
      </trkpt>
      <trkpt lat="43.99525" lon="5.68903">
        <ele>594</ele>
        <time>2018-05-17T08:14:51Z</time>
      </trkpt>
      <trkpt lat="43.99469" lon="5.68809">
        <ele>592</ele>
        <time>2018-05-17T08:15:51Z</time>
      </trkpt>
      <trkpt lat="43.99435" lon="5.68706">
        <ele>589</ele>
        <time>2018-05-17T08:16:51Z</time>
      </trkpt>
      <trkpt lat="43.99346" lon="5.6862">
        <ele>586</ele>
        <time>2018-05-17T08:17:51Z</time>
      </trkpt>
      <trkpt lat="43.99232" lon="5.68611">
        <ele>585</ele>
        <time>2018-05-17T08:18:51Z</time>
      </trkpt>
      <trkpt lat="43.99148" lon="5.68466">
        <ele>583</ele>
        <time>2018-05-17T08:19:51Z</time>
      </trkpt>
      <trkpt lat="43.9908" lon="5.6844">
        <ele>582</ele>
        <time>2018-05-17T08:20:51Z</time>
      </trkpt>
      <trkpt lat="43.99182" lon="5.68251">
        <ele>593</ele>
        <time>2018-05-17T08:21:51Z</time>
      </trkpt>
      <trkpt lat="43.99374" lon="5.68311">
        <ele>604</ele>
        <time>2018-05-17T08:22:51Z</time>
      </trkpt>
      <trkpt lat="43.9946" lon="5.68161">
        <ele>621</ele>
        <time>2018-05-17T08:23:51Z</time>
      </trkpt>
      <trkpt lat="43.99494" lon="5.67852">
        <ele>650</ele>
        <time>2018-05-17T08:24:51Z</time>
      </trkpt>
      <trkpt lat="43.99534" lon="5.67826">
        <ele>654</ele>
        <time>2018-05-17T08:25:51Z</time>
      </trkpt>
      <trkpt lat="43.99516" lon="5.67779">
        <ele>654</ele>
        <time>2018-05-17T08:26:51Z</time>
      </trkpt>
      <trkpt lat="43.99608" lon="5.67684">
        <ele>664</ele>
        <time>2018-05-17T08:27:51Z</time>
      </trkpt>
      <trkpt lat="43.99531" lon="5.67637">
        <ele>664</ele>
        <time>2018-05-17T08:28:51Z</time>
      </trkpt>
      <trkpt lat="43.99506" lon="5.67603">
        <ele>666</ele>
        <time>2018-05-17T08:29:51Z</time>
      </trkpt>
      <trkpt lat="43.99469" lon="5.67436">
        <ele>666</ele>
        <time>2018-05-17T08:30:51Z</time>
      </trkpt>
      <trkpt lat="43.99469" lon="5.67328">
        <ele>668</ele>
        <time>2018-05-17T08:31:51Z</time>
      </trkpt>
      <trkpt lat="43.99503" lon="5.67169">
        <ele>675</ele>
        <time>2018-05-17T08:32:51Z</time>
      </trkpt>
      <trkpt lat="43.99605" lon="5.66839">
        <ele>687</ele>
        <time>2018-05-17T08:33:51Z</time>
      </trkpt>
      <trkpt lat="43.9963" lon="5.6674">
        <ele>694</ele>
        <time>2018-05-17T08:34:51Z</time>
      </trkpt>
      <trkpt lat="43.99565" lon="5.66444">
        <ele>701</ele>
        <time>2018-05-17T08:35:51Z</time>
      </trkpt>
      <trkpt lat="43.99676" lon="5.66135">
        <ele>700</ele>
        <time>2018-05-17T08:36:51Z</time>
      </trkpt>
      <trkpt lat="43.99738" lon="5.66097">
        <ele>706</ele>
        <time>2018-05-17T08:37:51Z</time>
      </trkpt>
      <trkpt lat="43.99905" lon="5.66075">
        <ele>721</ele>
        <time>2018-05-17T08:38:51Z</time>
      </trkpt>
      <trkpt lat="44.00037" lon="5.66105">
        <ele>723</ele>
        <time>2018-05-17T08:39:51Z</time>
      </trkpt>
      <trkpt lat="44.00133" lon="5.66238">
        <ele>730</ele>
        <time>2018-05-17T08:40:51Z</time>
      </trkpt>
      <trkpt lat="44.00201" lon="5.66251">
        <ele>732</ele>
        <time>2018-05-17T08:41:51Z</time>
      </trkpt>
      <trkpt lat="44.00269" lon="5.66298">
        <ele>738</ele>
        <time>2018-05-17T08:42:51Z</time>
      </trkpt>
      <trkpt lat="44.00337" lon="5.66298">
        <ele>744</ele>
        <time>2018-05-17T08:43:51Z</time>
      </trkpt>
      <trkpt lat="44.00556" lon="5.6641">
        <ele>758</ele>
        <time>2018-05-17T08:44:51Z</time>
      </trkpt>
      <trkpt lat="44.00562" lon="5.66453">
        <ele>755</ele>
        <time>2018-05-17T08:45:51Z</time>
      </trkpt>
      <trkpt lat="44.00615" lon="5.66423">
        <ele>762</ele>
        <time>2018-05-17T08:46:51Z</time>
      </trkpt>
      <trkpt lat="44.00643" lon="5.66444">
        <ele>762</ele>
        <time>2018-05-17T08:47:51Z</time>
      </trkpt>
      <trkpt lat="44.00751" lon="5.66315">
        <ele>785</ele>
        <time>2018-05-17T08:48:51Z</time>
      </trkpt>
      <trkpt lat="44.00884" lon="5.66243">
        <ele>798</ele>
        <time>2018-05-17T08:49:51Z</time>
      </trkpt>
      <trkpt lat="44.00911" lon="5.66157">
        <ele>802</ele>
        <time>2018-05-17T08:50:51Z</time>
      </trkpt>
      <trkpt lat="44.00991" lon="5.66049">
        <ele>810</ele>
        <time>2018-05-17T08:51:51Z</time>
      </trkpt>
      <trkpt lat="44.01028" lon="5.65916">
        <ele>818</ele>
        <time>2018-05-17T08:52:51Z</time>
      </trkpt>
      <trkpt lat="44.01248" lon="5.65784">
        <ele>840</ele>
        <time>2018-05-17T08:53:51Z</time>
      </trkpt>
      <trkpt lat="44.01362" lon="5.6577">
        <ele>854</ele>
        <time>2018-05-17T08:54:51Z</time>
      </trkpt>
      <trkpt lat="44.01433" lon="5.65698">
        <ele>866</ele>
        <time>2018-05-17T08:55:51Z</time>
      </trkpt>
      <trkpt lat="44.01568" lon="5.65719">
        <ele>869</ele>
        <time>2018-05-17T08:56:51Z</time>
      </trkpt>
      <trkpt lat="44.0167" lon="5.65672">
        <ele>873</ele>
        <time>2018-05-17T08:57:51Z</time>
      </trkpt>
      <trkpt lat="44.01871" lon="5.6571">
        <ele>864</ele>
        <time>2018-05-17T08:58:51Z</time>
      </trkpt>
      <trkpt lat="44.02053" lon="5.65564">
        <ele>849</ele>
        <time>2018-05-17T08:59:51Z</time>
      </trkpt>
      <trkpt lat="44.02405" lon="5.65496">
        <ele>833</ele>
        <time>2018-05-17T09:00:51Z</time>
      </trkpt>
      <trkpt lat="44.02522" lon="5.65522">
        <ele>823</ele>
        <time>2018-05-17T09:01:51Z</time>
      </trkpt>
      <trkpt lat="44.02815" lon="5.65393">
        <ele>807</ele>
        <time>2018-05-17T09:02:51Z</time>
      </trkpt>
      <trkpt lat="44.02982" lon="5.65419">
        <ele>806</ele>
        <time>2018-05-17T09:03:51Z</time>
      </trkpt>
      <trkpt lat="44.03158" lon="5.65406">
        <ele>800</ele>
        <time>2018-05-17T09:04:51Z</time>
      </trkpt>
      <trkpt lat="44.03207" lon="5.65298">
        <ele>796</ele>
        <time>2018-05-17T09:05:51Z</time>
      </trkpt>
      <trkpt lat="44.03349" lon="5.6517">
        <ele>797</ele>
        <time>2018-05-17T09:06:51Z</time>
      </trkpt>
      <trkpt lat="44.03543" lon="5.65105">
        <ele>802</ele>
        <time>2018-05-17T09:07:51Z</time>
      </trkpt>
      <trkpt lat="44.03667" lon="5.64835">
        <ele>797</ele>
        <time>2018-05-17T09:08:51Z</time>
      </trkpt>
      <trkpt lat="44.03682" lon="5.64719">
        <ele>791</ele>
        <time>2018-05-17T09:09:51Z</time>
      </trkpt>
      <trkpt lat="44.03645" lon="5.64565">
        <ele>774</ele>
        <time>2018-05-17T09:10:51Z</time>
      </trkpt>
      <trkpt lat="44.03722" lon="5.64612">
        <ele>768</ele>
        <time>2018-05-17T09:11:51Z</time>
      </trkpt>
      <trkpt lat="44.03775" lon="5.64719">
        <ele>774</ele>
        <time>2018-05-17T09:12:51Z</time>
      </trkpt>
      <trkpt lat="44.03869" lon="5.64792">
        <ele>771</ele>
        <time>2018-05-17T09:13:51Z</time>
      </trkpt>
      <trkpt lat="44.03653" lon="5.64427">
        <ele>738</ele>
        <time>2018-05-17T09:14:51Z</time>
      </trkpt>
      <trkpt lat="44.0377" lon="5.64384">
        <ele>726</ele>
        <time>2018-05-17T09:15:51Z</time>
      </trkpt>
      <trkpt lat="44.03841" lon="5.63702">
        <ele>744</ele>
        <time>2018-05-17T09:16:51Z</time>
      </trkpt>
      <trkpt lat="44.03798" lon="5.63569">
        <ele>751</ele>
        <time>2018-05-17T09:17:51Z</time>
      </trkpt>
      <trkpt lat="44.03742" lon="5.63487">
        <ele>754</ele>
        <time>2018-05-17T09:18:51Z</time>
      </trkpt>
      <trkpt lat="44.03644" lon="5.63062">
        <ele>774</ele>
        <time>2018-05-17T09:19:51Z</time>
      </trkpt>
      <trkpt lat="44.03622" lon="5.62857">
        <ele>772</ele>
        <time>2018-05-17T09:20:51Z</time>
      </trkpt>
      <trkpt lat="44.03563" lon="5.62693">
        <ele>773</ele>
        <time>2018-05-17T09:21:51Z</time>
      </trkpt>
      <trkpt lat="44.03619" lon="5.62582">
        <ele>784</ele>
        <time>2018-05-17T09:22:51Z</time>
      </trkpt>
      <trkpt lat="44.03459" lon="5.62638">
        <ele>786</ele>
        <time>2018-05-17T09:23:51Z</time>
      </trkpt>
      <trkpt lat="44.03355" lon="5.62599">
        <ele>800</ele>
        <time>2018-05-17T09:24:51Z</time>
      </trkpt>
      <trkpt lat="44.03173" lon="5.62457">
        <ele>826</ele>
        <time>2018-05-17T09:25:51Z</time>
      </trkpt>
      <trkpt lat="44.03379" lon="5.61822">
        <ele>836</ele>
        <time>2018-05-17T09:26:51Z</time>
      </trkpt>
      <trkpt lat="44.03392" lon="5.61736">
        <ele>833</ele>
        <time>2018-05-17T09:27:51Z</time>
      </trkpt>
      <trkpt lat="44.03318" lon="5.61685">
        <ele>828</ele>
        <time>2018-05-17T09:28:51Z</time>
      </trkpt>
      <trkpt lat="44.0342" lon="5.61629">
        <ele>842</ele>
        <time>2018-05-17T09:29:51Z</time>
      </trkpt>
      <trkpt lat="44.03771" lon="5.61745">
        <ele>880</ele>
        <time>2018-05-17T09:30:51Z</time>
      </trkpt>
      <trkpt lat="44.03892" lon="5.61646">
        <ele>900</ele>
        <time>2018-05-17T09:31:51Z</time>
      </trkpt>
      <trkpt lat="44.0378" lon="5.61535">
        <ele>908</ele>
        <time>2018-05-17T09:32:51Z</time>
      </trkpt>
      <trkpt lat="44.03756" lon="5.61483">
        <ele>910</ele>
        <time>2018-05-17T09:33:51Z</time>
      </trkpt>
      <trkpt lat="44.03907" lon="5.61256">
        <ele>920</ele>
        <time>2018-05-17T09:34:51Z</time>
      </trkpt>
      <trkpt lat="44.03953" lon="5.61118">
        <ele>926</ele>
        <time>2018-05-17T09:35:51Z</time>
      </trkpt>
      <trkpt lat="44.04033" lon="5.61179">
        <ele>934</ele>
        <time>2018-05-17T09:36:51Z</time>
      </trkpt>
      <trkpt lat="44.04086" lon="5.61209">
        <ele>939</ele>
        <time>2018-05-17T09:37:51Z</time>
      </trkpt>
      <trkpt lat="44.04123" lon="5.6126">
        <ele>942</ele>
        <time>2018-05-17T09:38:51Z</time>
      </trkpt>
      <trkpt lat="44.0432" lon="5.61342">
        <ele>949</ele>
        <time>2018-05-17T09:39:51Z</time>
      </trkpt>
      <trkpt lat="44.04425" lon="5.61333">
        <ele>952</ele>
        <time>2018-05-17T09:40:51Z</time>
      </trkpt>
      <trkpt lat="44.04552" lon="5.61363">
        <ele>953</ele>
        <time>2018-05-17T09:41:51Z</time>
      </trkpt>
      <trkpt lat="44.04743" lon="5.61367">
        <ele>947</ele>
        <time>2018-05-17T09:42:51Z</time>
      </trkpt>
      <trkpt lat="44.04888" lon="5.6147">
        <ele>950</ele>
        <time>2018-05-17T09:43:51Z</time>
      </trkpt>
      <trkpt lat="44.0486" lon="5.61513">
        <ele>952</ele>
        <time>2018-05-17T09:44:51Z</time>
      </trkpt>
      <trkpt lat="44.04922" lon="5.61539">
        <ele>950</ele>
        <time>2018-05-17T09:45:51Z</time>
      </trkpt>
      <trkpt lat="44.0528" lon="5.61496">
        <ele>947</ele>
        <time>2018-05-17T09:46:51Z</time>
      </trkpt>
      <trkpt lat="44.05381" lon="5.61513">
        <ele>951</ele>
        <time>2018-05-17T09:47:51Z</time>
      </trkpt>
      <trkpt lat="44.05496" lon="5.61573">
        <ele>958</ele>
        <time>2018-05-17T09:48:51Z</time>
      </trkpt>
      <trkpt lat="44.05755" lon="5.61552">
        <ele>979</ele>
        <time>2018-05-17T09:49:51Z</time>
      </trkpt>
      <trkpt lat="44.05853" lon="5.61625">
        <ele>988</ele>
        <time>2018-05-17T09:50:51Z</time>
      </trkpt>
      <trkpt lat="44.06205" lon="5.61638">
        <ele>997</ele>
        <time>2018-05-17T09:51:51Z</time>
      </trkpt>
      <trkpt lat="44.06291" lon="5.61603">
        <ele>996</ele>
        <time>2018-05-17T09:52:51Z</time>
      </trkpt>
      <trkpt lat="44.06424" lon="5.61578">
        <ele>995</ele>
        <time>2018-05-17T09:53:51Z</time>
      </trkpt>
      <trkpt lat="44.06498" lon="5.6153">
        <ele>997</ele>
        <time>2018-05-17T09:54:51Z</time>
      </trkpt>
      <trkpt lat="44.06732" lon="5.61548">
        <ele>1004</ele>
        <time>2018-05-17T09:55:51Z</time>
      </trkpt>
      <trkpt lat="44.068" lon="5.61556">
        <ele>1007</ele>
        <time>2018-05-17T09:56:51Z</time>
      </trkpt>
      <trkpt lat="44.06769" lon="5.61638">
        <ele>996</ele>
        <time>2018-05-17T09:57:51Z</time>
      </trkpt>
      <trkpt lat="44.07037" lon="5.61852">
        <ele>980</ele>
        <time>2018-05-17T09:58:51Z</time>
      </trkpt>
      <trkpt lat="44.07142" lon="5.61942">
        <ele>968</ele>
        <time>2018-05-17T09:59:51Z</time>
      </trkpt>
      <trkpt lat="44.07229" lon="5.61977">
        <ele>961</ele>
        <time>2018-05-17T10:00:51Z</time>
      </trkpt>
      <trkpt lat="44.07238" lon="5.62071">
        <ele>952</ele>
        <time>2018-05-17T10:01:51Z</time>
      </trkpt>
      <trkpt lat="44.07278" lon="5.62114">
        <ele>960</ele>
        <time>2018-05-17T10:02:51Z</time>
      </trkpt>
      <trkpt lat="44.07358" lon="5.62088">
        <ele>973</ele>
        <time>2018-05-17T10:03:51Z</time>
      </trkpt>
      <trkpt lat="44.07525" lon="5.62097">
        <ele>995</ele>
        <time>2018-05-17T10:04:51Z</time>
      </trkpt>
      <trkpt lat="44.07599" lon="5.62075">
        <ele>991</ele>
        <time>2018-05-17T10:05:51Z</time>
      </trkpt>
      <trkpt lat="44.07494" lon="5.62144">
        <ele>1007</ele>
        <time>2018-05-17T10:06:51Z</time>
      </trkpt>
      <trkpt lat="44.07414" lon="5.62196">
        <ele>1006</ele>
        <time>2018-05-17T10:07:51Z</time>
      </trkpt>
      <trkpt lat="44.07488" lon="5.62196">
        <ele>1018</ele>
        <time>2018-05-17T10:08:51Z</time>
      </trkpt>
      <trkpt lat="44.07691" lon="5.6235">
        <ele>1044</ele>
        <time>2018-05-17T10:09:51Z</time>
      </trkpt>
      <trkpt lat="44.07882" lon="5.62372">
        <ele>1070</ele>
        <time>2018-05-17T10:10:51Z</time>
      </trkpt>
      <trkpt lat="44.08018" lon="5.62337">
        <ele>1090</ele>
        <time>2018-05-17T10:11:51Z</time>
      </trkpt>
      <trkpt lat="44.08098" lon="5.62367">
        <ele>1101</ele>
        <time>2018-05-17T10:12:51Z</time>
      </trkpt>
      <trkpt lat="44.08557" lon="5.62342">
        <ele>1123</ele>
        <time>2018-05-17T10:13:51Z</time>
      </trkpt>
      <trkpt lat="44.08933" lon="5.62475">
        <ele>1128</ele>
        <time>2018-05-17T10:14:51Z</time>
      </trkpt>
      <trkpt lat="44.09627" lon="5.62299">
        <ele>1150</ele>
        <time>2018-05-17T10:15:51Z</time>
      </trkpt>
      <trkpt lat="44.09837" lon="5.62273">
        <ele>1145</ele>
        <time>2018-05-17T10:16:51Z</time>
      </trkpt>
      <trkpt lat="44.09929" lon="5.62342">
        <ele>1145</ele>
        <time>2018-05-17T10:17:51Z</time>
      </trkpt>
      <trkpt lat="44.1" lon="5.62342">
        <ele>1150</ele>
        <time>2018-05-17T10:18:51Z</time>
      </trkpt>
      <trkpt lat="44.10225" lon="5.6226">
        <ele>1162</ele>
        <time>2018-05-17T10:19:51Z</time>
      </trkpt>
      <trkpt lat="44.10379" lon="5.62217">
        <ele>1143</ele>
        <time>2018-05-17T10:20:51Z</time>
      </trkpt>
      <trkpt lat="44.10499" lon="5.62157">
        <ele>1130</ele>
        <time>2018-05-17T10:21:51Z</time>
      </trkpt>
      <trkpt lat="44.10521" lon="5.62105">
        <ele>1129</ele>
        <time>2018-05-17T10:22:51Z</time>
      </trkpt>
      <trkpt lat="44.10598" lon="5.62028">
        <ele>1135</ele>
        <time>2018-05-17T10:23:51Z</time>
      </trkpt>
      <trkpt lat="44.10758" lon="5.62054">
        <ele>1142</ele>
        <time>2018-05-17T10:24:51Z</time>
      </trkpt>
      <trkpt lat="44.10931" lon="5.622">
        <ele>1154</ele>
        <time>2018-05-17T10:25:51Z</time>
      </trkpt>
      <trkpt lat="44.11137" lon="5.62311">
        <ele>1178</ele>
        <time>2018-05-17T10:26:51Z</time>
      </trkpt>
      <trkpt lat="44.1118" lon="5.62359">
        <ele>1183</ele>
        <time>2018-05-17T10:27:51Z</time>
      </trkpt>
      <trkpt lat="44.11276" lon="5.6235">
        <ele>1186</ele>
        <time>2018-05-17T10:28:51Z</time>
      </trkpt>
      <trkpt lat="44.11387" lon="5.6241">
        <ele>1194</ele>
        <time>2018-05-17T10:29:51Z</time>
      </trkpt>
      <trkpt lat="44.11538" lon="5.62423">
        <ele>1200</ele>
        <time>2018-05-17T10:30:51Z</time>
      </trkpt>
      <trkpt lat="44.11627" lon="5.62427">
        <ele>1205</ele>
        <time>2018-05-17T10:31:51Z</time>
      </trkpt>
      <trkpt lat="44.11713" lon="5.62466">
        <ele>1211</ele>
        <time>2018-05-17T10:32:51Z</time>
      </trkpt>
      <trkpt lat="44.11806" lon="5.62603">
        <ele>1218</ele>
        <time>2018-05-17T10:33:51Z</time>
      </trkpt>
      <trkpt lat="44.11873" lon="5.62625">
        <ele>1217</ele>
        <time>2018-05-17T10:34:51Z</time>
      </trkpt>
      <trkpt lat="44.11981" lon="5.62715">
        <ele>1216</ele>
        <time>2018-05-17T10:35:51Z</time>
      </trkpt>
      <trkpt lat="44.12117" lon="5.62719">
        <ele>1223</ele>
        <time>2018-05-17T10:36:51Z</time>
      </trkpt>
      <trkpt lat="44.12265" lon="5.62633">
        <ele>1245</ele>
        <time>2018-05-17T10:37:51Z</time>
      </trkpt>
      <trkpt lat="44.12323" lon="5.62651">
        <ele>1249</ele>
        <time>2018-05-17T10:38:51Z</time>
      </trkpt>
      <trkpt lat="44.12363" lon="5.62603">
        <ele>1257</ele>
        <time>2018-05-17T10:39:51Z</time>
      </trkpt>
      <trkpt lat="44.12425" lon="5.62582">
        <ele>1267</ele>
        <time>2018-05-17T10:40:51Z</time>
      </trkpt>
      <trkpt lat="44.12526" lon="5.62565">
        <ele>1282</ele>
        <time>2018-05-17T10:41:51Z</time>
      </trkpt>
      <trkpt lat="44.12671" lon="5.62625">
        <ele>1289</ele>
        <time>2018-05-17T10:42:51Z</time>
      </trkpt>
      <trkpt lat="44.12813" lon="5.62569">
        <ele>1287</ele>
        <time>2018-05-17T10:43:51Z</time>
      </trkpt>
      <trkpt lat="44.13106" lon="5.6253">
        <ele>1290</ele>
        <time>2018-05-17T10:44:51Z</time>
      </trkpt>
      <trkpt lat="44.13358" lon="5.62397">
        <ele>1281</ele>
        <time>2018-05-17T10:45:51Z</time>
      </trkpt>
      <trkpt lat="44.1346" lon="5.62397">
        <ele>1288</ele>
        <time>2018-05-17T10:46:51Z</time>
      </trkpt>
      <trkpt lat="44.13537" lon="5.62487">
        <ele>1298</ele>
        <time>2018-05-17T10:47:51Z</time>
      </trkpt>
      <trkpt lat="44.13605" lon="5.62414">
        <ele>1295</ele>
        <time>2018-05-17T10:48:51Z</time>
      </trkpt>
      <trkpt lat="44.13626" lon="5.62251">
        <ele>1295</ele>
        <time>2018-05-17T10:49:51Z</time>
      </trkpt>
      <trkpt lat="44.13752" lon="5.62084">
        <ele>1303</ele>
        <time>2018-05-17T10:50:51Z</time>
      </trkpt>
      <trkpt lat="44.14042" lon="5.61972">
        <ele>1297</ele>
        <time>2018-05-17T10:51:51Z</time>
      </trkpt>
      <trkpt lat="44.14322" lon="5.62063">
        <ele>1296</ele>
        <time>2018-05-17T10:52:51Z</time>
      </trkpt>
      <trkpt lat="44.1451" lon="5.61754">
        <ele>1269</ele>
        <time>2018-05-17T10:53:51Z</time>
      </trkpt>
      <trkpt lat="44.14612" lon="5.61676">
        <ele>1261</ele>
        <time>2018-05-17T10:54:51Z</time>
      </trkpt>
      <trkpt lat="44.14689" lon="5.61685">
        <ele>1259</ele>
        <time>2018-05-17T10:55:51Z</time>
      </trkpt>
      <trkpt lat="44.14784" lon="5.61766">
        <ele>1269</ele>
        <time>2018-05-17T10:56:51Z</time>
      </trkpt>
      <trkpt lat="44.14827" lon="5.61638">
        <ele>1255</ele>
        <time>2018-05-17T10:57:51Z</time>
      </trkpt>
      <trkpt lat="44.15" lon="5.61505">
        <ele>1240</ele>
        <time>2018-05-17T10:58:51Z</time>
      </trkpt>
      <trkpt lat="44.15191" lon="5.61153">
        <ele>1238</ele>
        <time>2018-05-17T10:59:51Z</time>
      </trkpt>
      <trkpt lat="44.15237" lon="5.61153">
        <ele>1239</ele>
        <time>2018-05-17T11:00:51Z</time>
      </trkpt>
      <trkpt lat="44.15477" lon="5.6087">
        <ele>1195</ele>
        <time>2018-05-17T11:01:51Z</time>
      </trkpt>
      <trkpt lat="44.15443" lon="5.60994">
        <ele>1200</ele>
        <time>2018-05-17T11:02:51Z</time>
      </trkpt>
      <trkpt lat="44.15323" lon="5.61123">
        <ele>1211</ele>
        <time>2018-05-17T11:03:51Z</time>
      </trkpt>
      <trkpt lat="44.15308" lon="5.61251">
        <ele>1193</ele>
        <time>2018-05-17T11:04:51Z</time>
      </trkpt>
      <trkpt lat="44.15351" lon="5.61166">
        <ele>1180</ele>
        <time>2018-05-17T11:05:51Z</time>
      </trkpt>
      <trkpt lat="44.15495" lon="5.61011">
        <ele>1161</ele>
        <time>2018-05-17T11:06:51Z</time>
      </trkpt>
      <trkpt lat="44.15388" lon="5.61213">
        <ele>1147</ele>
        <time>2018-05-17T11:07:51Z</time>
      </trkpt>
      <trkpt lat="44.15585" lon="5.61037">
        <ele>1097</ele>
        <time>2018-05-17T11:08:51Z</time>
      </trkpt>
      <trkpt lat="44.15711" lon="5.60552">
        <ele>1067</ele>
        <time>2018-05-17T11:09:51Z</time>
      </trkpt>
      <trkpt lat="44.15711" lon="5.60775">
        <ele>1047</ele>
        <time>2018-05-17T11:10:51Z</time>
      </trkpt>
      <trkpt lat="44.15788" lon="5.60895">
        <ele>1016</ele>
        <time>2018-05-17T11:11:51Z</time>
      </trkpt>
      <trkpt lat="44.15834" lon="5.60882">
        <ele>1007</ele>
        <time>2018-05-17T11:12:51Z</time>
      </trkpt>
      <trkpt lat="44.15766" lon="5.60758">
        <ele>1022</ele>
        <time>2018-05-17T11:13:51Z</time>
      </trkpt>
      <trkpt lat="44.15809" lon="5.60638">
        <ele>1012</ele>
        <time>2018-05-17T11:14:51Z</time>
      </trkpt>
      <trkpt lat="44.15914" lon="5.60616">
        <ele>978</ele>
        <time>2018-05-17T11:15:51Z</time>
      </trkpt>
      <trkpt lat="44.15886" lon="5.60522">
        <ele>994</ele>
        <time>2018-05-17T11:16:51Z</time>
      </trkpt>
      <trkpt lat="44.15957" lon="5.60629">
        <ele>965</ele>
        <time>2018-05-17T11:17:51Z</time>
      </trkpt>
      <trkpt lat="44.15923" lon="5.60724">
        <ele>973</ele>
        <time>2018-05-17T11:18:51Z</time>
      </trkpt>
      <trkpt lat="44.16102" lon="5.60715">
        <ele>942</ele>
        <time>2018-05-17T11:19:51Z</time>
      </trkpt>
      <trkpt lat="44.16385" lon="5.60805">
        <ele>897</ele>
        <time>2018-05-17T11:20:51Z</time>
      </trkpt>
      <trkpt lat="44.16385" lon="5.60878">
        <ele>897</ele>
        <time>2018-05-17T11:21:51Z</time>
      </trkpt>
      <trkpt lat="44.16444" lon="5.60805">
        <ele>884</ele>
        <time>2018-05-17T11:22:51Z</time>
      </trkpt>
      <trkpt lat="44.16354" lon="5.60698">
        <ele>892</ele>
        <time>2018-05-17T11:23:51Z</time>
      </trkpt>
      <trkpt lat="44.16558" lon="5.60681">
        <ele>870</ele>
        <time>2018-05-17T11:24:51Z</time>
      </trkpt>
      <trkpt lat="44.16484" lon="5.60741">
        <ele>874</ele>
        <time>2018-05-17T11:25:51Z</time>
      </trkpt>
      <trkpt lat="44.16514" lon="5.60895">
        <ele>869</ele>
        <time>2018-05-17T11:26:51Z</time>
      </trkpt>
      <trkpt lat="44.16681" lon="5.60985">
        <ele>850</ele>
        <time>2018-05-17T11:27:51Z</time>
      </trkpt>
      <trkpt lat="44.16724" lon="5.6111">
        <ele>844</ele>
        <time>2018-05-17T11:28:51Z</time>
      </trkpt>
      <trkpt lat="44.17269" lon="5.6147">
        <ele>809</ele>
        <time>2018-05-17T11:29:51Z</time>
      </trkpt>
      <trkpt lat="44.17296" lon="5.61719">
        <ele>809</ele>
        <time>2018-05-17T11:30:51Z</time>
      </trkpt>
      <trkpt lat="44.17336" lon="5.61689">
        <ele>803</ele>
        <time>2018-05-17T11:31:51Z</time>
      </trkpt>
      <trkpt lat="44.17373" lon="5.61706">
        <ele>806</ele>
        <time>2018-05-17T11:32:51Z</time>
      </trkpt>
      <trkpt lat="44.17382" lon="5.6144">
        <ele>815</ele>
        <time>2018-05-17T11:33:51Z</time>
      </trkpt>
      <trkpt lat="44.17543" lon="5.61359">
        <ele>843</ele>
        <time>2018-05-17T11:34:51Z</time>
      </trkpt>
      <trkpt lat="44.17506" lon="5.6153">
        <ele>851</ele>
        <time>2018-05-17T11:35:51Z</time>
      </trkpt>
      <trkpt lat="44.17546" lon="5.61659">
        <ele>856</ele>
        <time>2018-05-17T11:36:51Z</time>
      </trkpt>
      <trkpt lat="44.17619" lon="5.61745">
        <ele>877</ele>
        <time>2018-05-17T11:37:51Z</time>
      </trkpt>
      <trkpt lat="44.17607" lon="5.61818">
        <ele>870</ele>
        <time>2018-05-17T11:38:51Z</time>
      </trkpt>
      <trkpt lat="44.17733" lon="5.62037">
        <ele>884</ele>
        <time>2018-05-17T11:39:51Z</time>
      </trkpt>
      <trkpt lat="44.17915" lon="5.61895">
        <ele>882</ele>
        <time>2018-05-17T11:40:51Z</time>
      </trkpt>
      <trkpt lat="44.17995" lon="5.61895">
        <ele>888</ele>
        <time>2018-05-17T11:41:51Z</time>
      </trkpt>
      <trkpt lat="44.18057" lon="5.62226">
        <ele>884</ele>
        <time>2018-05-17T11:42:51Z</time>
      </trkpt>
      <trkpt lat="44.18204" lon="5.62187">
        <ele>894</ele>
        <time>2018-05-17T11:43:51Z</time>
      </trkpt>
      <trkpt lat="44.18284" lon="5.62208">
        <ele>895</ele>
        <time>2018-05-17T11:44:51Z</time>
      </trkpt>
      <trkpt lat="44.18352" lon="5.6229">
        <ele>901</ele>
        <time>2018-05-17T11:45:51Z</time>
      </trkpt>
      <trkpt lat="44.18229" lon="5.62462">
        <ele>879</ele>
        <time>2018-05-17T11:46:51Z</time>
      </trkpt>
      <trkpt lat="44.18195" lon="5.62599">
        <ele>872</ele>
        <time>2018-05-17T11:47:51Z</time>
      </trkpt>
      <trkpt lat="44.18143" lon="5.62698">
        <ele>872</ele>
        <time>2018-05-17T11:48:51Z</time>
      </trkpt>
      <trkpt lat="44.1805" lon="5.62754">
        <ele>858</ele>
        <time>2018-05-17T11:49:51Z</time>
      </trkpt>
      <trkpt lat="44.18004" lon="5.62887">
        <ele>854</ele>
        <time>2018-05-17T11:50:51Z</time>
      </trkpt>
      <trkpt lat="44.18026" lon="5.63221">
        <ele>816</ele>
        <time>2018-05-17T11:51:51Z</time>
      </trkpt>
      <trkpt lat="44.18097" lon="5.63299">
        <ele>818</ele>
        <time>2018-05-17T11:52:51Z</time>
      </trkpt>
      <trkpt lat="44.18029" lon="5.63299">
        <ele>808</ele>
        <time>2018-05-17T11:53:51Z</time>
      </trkpt>
      <trkpt lat="44.18001" lon="5.63436">
        <ele>811</ele>
        <time>2018-05-17T11:54:51Z</time>
      </trkpt>
      <trkpt lat="44.17933" lon="5.63539">
        <ele>795</ele>
        <time>2018-05-17T11:55:51Z</time>
      </trkpt>
      <trkpt lat="44.17884" lon="5.63745">
        <ele>782</ele>
        <time>2018-05-17T11:56:51Z</time>
      </trkpt>
      <trkpt lat="44.17635" lon="5.63852">
        <ele>749</ele>
        <time>2018-05-17T11:57:51Z</time>
      </trkpt>
      <trkpt lat="44.17506" lon="5.63839">
        <ele>755</ele>
        <time>2018-05-17T11:58:51Z</time>
      </trkpt>
      <trkpt lat="44.17287" lon="5.63934">
        <ele>739</ele>
        <time>2018-05-17T11:59:51Z</time>
      </trkpt>
      <trkpt lat="44.17219" lon="5.63917">
        <ele>741</ele>
        <time>2018-05-17T12:00:51Z</time>
      </trkpt>
      <trkpt lat="44.17029" lon="5.64144">
        <ele>756</ele>
        <time>2018-05-17T12:01:51Z</time>
      </trkpt>
      <trkpt lat="44.16967" lon="5.64208">
        <ele>756</ele>
        <time>2018-05-17T12:02:51Z</time>
      </trkpt>
      <trkpt lat="44.16868" lon="5.64226">
        <ele>760</ele>
        <time>2018-05-17T12:03:51Z</time>
      </trkpt>
      <trkpt lat="44.16816" lon="5.64208">
        <ele>768</ele>
        <time>2018-05-17T12:04:51Z</time>
      </trkpt>
      <trkpt lat="44.16711" lon="5.64251">
        <ele>772</ele>
        <time>2018-05-17T12:05:51Z</time>
      </trkpt>
      <trkpt lat="44.16607" lon="5.64187">
        <ele>799</ele>
        <time>2018-05-17T12:06:51Z</time>
      </trkpt>
      <trkpt lat="44.16561" lon="5.64178">
        <ele>798</ele>
        <time>2018-05-17T12:07:51Z</time>
      </trkpt>
      <trkpt lat="44.1649" lon="5.64157">
        <ele>793</ele>
        <time>2018-05-17T12:08:51Z</time>
      </trkpt>
      <trkpt lat="44.16293" lon="5.64316">
        <ele>808</ele>
        <time>2018-05-17T12:09:51Z</time>
      </trkpt>
      <trkpt lat="44.16305" lon="5.64384">
        <ele>816</ele>
        <time>2018-05-17T12:10:51Z</time>
      </trkpt>
      <trkpt lat="44.16348" lon="5.64393">
        <ele>820</ele>
        <time>2018-05-17T12:11:51Z</time>
      </trkpt>
      <trkpt lat="44.16357" lon="5.64453">
        <ele>823</ele>
        <time>2018-05-17T12:12:51Z</time>
      </trkpt>
      <trkpt lat="44.1632" lon="5.64565">
        <ele>817</ele>
        <time>2018-05-17T12:13:51Z</time>
      </trkpt>
      <trkpt lat="44.1633" lon="5.64637">
        <ele>812</ele>
        <time>2018-05-17T12:14:51Z</time>
      </trkpt>
      <trkpt lat="44.16305" lon="5.64702">
        <ele>809</ele>
        <time>2018-05-17T12:15:51Z</time>
      </trkpt>
      <trkpt lat="44.1625" lon="5.64719">
        <ele>812</ele>
        <time>2018-05-17T12:16:51Z</time>
      </trkpt>
      <trkpt lat="44.16274" lon="5.64813">
        <ele>810</ele>
        <time>2018-05-17T12:17:51Z</time>
      </trkpt>
      <trkpt lat="44.16142" lon="5.64934">
        <ele>818</ele>
        <time>2018-05-17T12:18:51Z</time>
      </trkpt>
      <trkpt lat="44.16059" lon="5.65191">
        <ele>829</ele>
        <time>2018-05-17T12:19:51Z</time>
      </trkpt>
      <trkpt lat="44.16062" lon="5.65324">
        <ele>824</ele>
        <time>2018-05-17T12:20:51Z</time>
      </trkpt>
      <trkpt lat="44.1605" lon="5.65376">
        <ele>826</ele>
        <time>2018-05-17T12:21:51Z</time>
      </trkpt>
      <trkpt lat="44.16077" lon="5.65479">
        <ele>829</ele>
        <time>2018-05-17T12:22:51Z</time>
      </trkpt>
      <trkpt lat="44.16077" lon="5.65552">
        <ele>837</ele>
        <time>2018-05-17T12:23:51Z</time>
      </trkpt>
      <trkpt lat="44.16117" lon="5.65676">
        <ele>839</ele>
        <time>2018-05-17T12:24:51Z</time>
      </trkpt>
      <trkpt lat="44.16071" lon="5.65895">
        <ele>835</ele>
        <time>2018-05-17T12:25:51Z</time>
      </trkpt>
      <trkpt lat="44.16013" lon="5.65951">
        <ele>844</ele>
        <time>2018-05-17T12:26:51Z</time>
      </trkpt>
      <trkpt lat="44.16056" lon="5.66324">
        <ele>850</ele>
        <time>2018-05-17T12:27:51Z</time>
      </trkpt>
      <trkpt lat="44.16025" lon="5.6641">
        <ele>851</ele>
        <time>2018-05-17T12:28:51Z</time>
      </trkpt>
      <trkpt lat="44.1604" lon="5.66659">
        <ele>859</ele>
        <time>2018-05-17T12:29:51Z</time>
      </trkpt>
      <trkpt lat="44.16" lon="5.66749">
        <ele>861</ele>
        <time>2018-05-17T12:30:51Z</time>
      </trkpt>
      <trkpt lat="44.16136" lon="5.67002">
        <ele>879</ele>
        <time>2018-05-17T12:31:51Z</time>
      </trkpt>
      <trkpt lat="44.16157" lon="5.67281">
        <ele>891</ele>
        <time>2018-05-17T12:32:51Z</time>
      </trkpt>
      <trkpt lat="44.16154" lon="5.67448">
        <ele>900</ele>
        <time>2018-05-17T12:33:51Z</time>
      </trkpt>
      <trkpt lat="44.1609" lon="5.67676">
        <ele>910</ele>
        <time>2018-05-17T12:34:51Z</time>
      </trkpt>
      <trkpt lat="44.16068" lon="5.6774">
        <ele>912</ele>
        <time>2018-05-17T12:35:51Z</time>
      </trkpt>
      <trkpt lat="44.16065" lon="5.67809">
        <ele>916</ele>
        <time>2018-05-17T12:36:51Z</time>
      </trkpt>
      <trkpt lat="44.15988" lon="5.68019">
        <ele>929</ele>
        <time>2018-05-17T12:37:51Z</time>
      </trkpt>
      <trkpt lat="44.15973" lon="5.68131">
        <ele>938</ele>
        <time>2018-05-17T12:38:51Z</time>
      </trkpt>
      <trkpt lat="44.15905" lon="5.68225">
        <ele>945</ele>
        <time>2018-05-17T12:39:51Z</time>
      </trkpt>
      <trkpt lat="44.15893" lon="5.6832">
        <ele>949</ele>
        <time>2018-05-17T12:40:51Z</time>
      </trkpt>
      <trkpt lat="44.15797" lon="5.68603">
        <ele>962</ele>
        <time>2018-05-17T12:41:51Z</time>
      </trkpt>
      <trkpt lat="44.15748" lon="5.68697">
        <ele>962</ele>
        <time>2018-05-17T12:42:51Z</time>
      </trkpt>
      <trkpt lat="44.15757" lon="5.68796">
        <ele>974</ele>
        <time>2018-05-17T12:43:51Z</time>
      </trkpt>
      <trkpt lat="44.15711" lon="5.68873">
        <ele>963</ele>
        <time>2018-05-17T12:44:51Z</time>
      </trkpt>
      <trkpt lat="44.15736" lon="5.69011">
        <ele>962</ele>
        <time>2018-05-17T12:45:51Z</time>
      </trkpt>
      <trkpt lat="44.15628" lon="5.69311">
        <ele>936</ele>
        <time>2018-05-17T12:46:51Z</time>
      </trkpt>
      <trkpt lat="44.15631" lon="5.69547">
        <ele>934</ele>
        <time>2018-05-17T12:47:51Z</time>
      </trkpt>
      <trkpt lat="44.15754" lon="5.69702">
        <ele>926</ele>
        <time>2018-05-17T12:48:51Z</time>
      </trkpt>
      <trkpt lat="44.15779" lon="5.69774">
        <ele>907</ele>
        <time>2018-05-17T12:49:51Z</time>
      </trkpt>
      <trkpt lat="44.15926" lon="5.69865">
        <ele>861</ele>
        <time>2018-05-17T12:50:51Z</time>
      </trkpt>
      <trkpt lat="44.16059" lon="5.69912">
        <ele>835</ele>
        <time>2018-05-17T12:51:51Z</time>
      </trkpt>
      <trkpt lat="44.16123" lon="5.69895">
        <ele>836</ele>
        <time>2018-05-17T12:52:51Z</time>
      </trkpt>
      <trkpt lat="44.16419" lon="5.70002">
        <ele>775</ele>
        <time>2018-05-17T12:53:51Z</time>
      </trkpt>
      <trkpt lat="44.16536" lon="5.69976">
        <ele>758</ele>
        <time>2018-05-17T12:54:51Z</time>
      </trkpt>
      <trkpt lat="44.16585" lon="5.70002">
        <ele>747</ele>
        <time>2018-05-17T12:55:51Z</time>
      </trkpt>
      <trkpt lat="44.16699" lon="5.69942">
        <ele>738</ele>
        <time>2018-05-17T12:56:51Z</time>
      </trkpt>
      <trkpt lat="44.16761" lon="5.69942">
        <ele>728</ele>
        <time>2018-05-17T12:57:51Z</time>
      </trkpt>
      <trkpt lat="44.16791" lon="5.7001">
        <ele>720</ele>
        <time>2018-05-17T12:58:51Z</time>
      </trkpt>
      <trkpt lat="44.16715" lon="5.70113">
        <ele>721</ele>
        <time>2018-05-17T12:59:51Z</time>
      </trkpt>
      <trkpt lat="44.16641" lon="5.70144">
        <ele>728</ele>
        <time>2018-05-17T13:00:51Z</time>
      </trkpt>
      <trkpt lat="44.16567" lon="5.70259">
        <ele>734</ele>
        <time>2018-05-17T13:01:51Z</time>
      </trkpt>
      <trkpt lat="44.16317" lon="5.70354">
        <ele>728</ele>
        <time>2018-05-17T13:02:51Z</time>
      </trkpt>
      <trkpt lat="44.16194" lon="5.70358">
        <ele>727</ele>
        <time>2018-05-17T13:03:51Z</time>
      </trkpt>
      <trkpt lat="44.15963" lon="5.7047">
        <ele>734</ele>
        <time>2018-05-17T13:04:51Z</time>
      </trkpt>
      <trkpt lat="44.15757" lon="5.70414">
        <ele>750</ele>
        <time>2018-05-17T13:05:51Z</time>
      </trkpt>
      <trkpt lat="44.15677" lon="5.70414">
        <ele>748</ele>
        <time>2018-05-17T13:06:51Z</time>
      </trkpt>
      <trkpt lat="44.15486" lon="5.70268">
        <ele>761</ele>
        <time>2018-05-17T13:07:51Z</time>
      </trkpt>
      <trkpt lat="44.15354" lon="5.70388">
        <ele>778</ele>
        <time>2018-05-17T13:08:51Z</time>
      </trkpt>
      <trkpt lat="44.15307" lon="5.7038">
        <ele>799</ele>
        <time>2018-05-17T13:09:51Z</time>
      </trkpt>
      <trkpt lat="44.1535" lon="5.70298">
        <ele>788</ele>
        <time>2018-05-17T13:10:51Z</time>
      </trkpt>
      <trkpt lat="44.15316" lon="5.70195">
        <ele>813</ele>
        <time>2018-05-17T13:11:51Z</time>
      </trkpt>
      <trkpt lat="44.1527" lon="5.70247">
        <ele>825</ele>
        <time>2018-05-17T13:12:51Z</time>
      </trkpt>
      <trkpt lat="44.15205" lon="5.70225">
        <ele>852</ele>
        <time>2018-05-17T13:13:51Z</time>
      </trkpt>
      <trkpt lat="44.15184" lon="5.70088">
        <ele>877</ele>
        <time>2018-05-17T13:14:51Z</time>
      </trkpt>
      <trkpt lat="44.14999" lon="5.70234">
        <ele>934</ele>
        <time>2018-05-17T13:15:51Z</time>
      </trkpt>
      <trkpt lat="44.14975" lon="5.70337">
        <ele>949</ele>
        <time>2018-05-17T13:16:51Z</time>
      </trkpt>
      <trkpt lat="44.14904" lon="5.70392">
        <ele>986</ele>
        <time>2018-05-17T13:17:51Z</time>
      </trkpt>
      <trkpt lat="44.14898" lon="5.70444">
        <ele>993</ele>
        <time>2018-05-17T13:18:51Z</time>
      </trkpt>
      <trkpt lat="44.14959" lon="5.70504">
        <ele>978</ele>
        <time>2018-05-17T13:19:51Z</time>
      </trkpt>
      <trkpt lat="44.14833" lon="5.70564">
        <ele>999</ele>
        <time>2018-05-17T13:20:51Z</time>
      </trkpt>
      <trkpt lat="44.1483" lon="5.70508">
        <ele>1016</ele>
        <time>2018-05-17T13:21:51Z</time>
      </trkpt>
      <trkpt lat="44.14734" lon="5.70538">
        <ele>1033</ele>
        <time>2018-05-17T13:22:51Z</time>
      </trkpt>
      <trkpt lat="44.14633" lon="5.70521">
        <ele>1056</ele>
        <time>2018-05-17T13:23:51Z</time>
      </trkpt>
      <trkpt lat="44.14445" lon="5.70564">
        <ele>1087</ele>
        <time>2018-05-17T13:24:51Z</time>
      </trkpt>
      <trkpt lat="44.14325" lon="5.70513">
        <ele>1122</ele>
        <time>2018-05-17T13:25:51Z</time>
      </trkpt>
      <trkpt lat="44.1414" lon="5.70603">
        <ele>1135</ele>
        <time>2018-05-17T13:26:51Z</time>
      </trkpt>
      <trkpt lat="44.13977" lon="5.70684">
        <ele>1178</ele>
        <time>2018-05-17T13:27:51Z</time>
      </trkpt>
      <trkpt lat="44.1402" lon="5.70809">
        <ele>1159</ele>
        <time>2018-05-17T13:28:51Z</time>
      </trkpt>
      <trkpt lat="44.14035" lon="5.70959">
        <ele>1183</ele>
        <time>2018-05-17T13:29:51Z</time>
      </trkpt>
      <trkpt lat="44.13841" lon="5.70693">
        <ele>1244</ele>
        <time>2018-05-17T13:30:51Z</time>
      </trkpt>
      <trkpt lat="44.13857" lon="5.70817">
        <ele>1252</ele>
        <time>2018-05-17T13:31:51Z</time>
      </trkpt>
      <trkpt lat="44.1373" lon="5.70633">
        <ele>1290</ele>
        <time>2018-05-17T13:32:51Z</time>
      </trkpt>
      <trkpt lat="44.13743" lon="5.70534">
        <ele>1293</ele>
        <time>2018-05-17T13:33:51Z</time>
      </trkpt>
      <trkpt lat="44.13549" lon="5.70568">
        <ele>1289</ele>
        <time>2018-05-17T13:34:51Z</time>
      </trkpt>
      <trkpt lat="44.12982" lon="5.70461">
        <ele>1199</ele>
        <time>2018-05-17T13:35:51Z</time>
      </trkpt>
      <trkpt lat="44.12742" lon="5.7041">
        <ele>1162</ele>
        <time>2018-05-17T13:36:51Z</time>
      </trkpt>
      <trkpt lat="44.12609" lon="5.7035">
        <ele>1148</ele>
        <time>2018-05-17T13:37:51Z</time>
      </trkpt>
      <trkpt lat="44.12449" lon="5.70367">
        <ele>1139</ele>
        <time>2018-05-17T13:38:51Z</time>
      </trkpt>
      <trkpt lat="44.12363" lon="5.70315">
        <ele>1124</ele>
        <time>2018-05-17T13:39:51Z</time>
      </trkpt>
      <trkpt lat="44.12113" lon="5.70307">
        <ele>1080</ele>
        <time>2018-05-17T13:40:51Z</time>
      </trkpt>
      <trkpt lat="44.1199" lon="5.70255">
        <ele>1057</ele>
        <time>2018-05-17T13:41:51Z</time>
      </trkpt>
      <trkpt lat="44.11842" lon="5.70277">
        <ele>1054</ele>
        <time>2018-05-17T13:42:51Z</time>
      </trkpt>
      <trkpt lat="44.1174" lon="5.70242">
        <ele>1039</ele>
        <time>2018-05-17T13:43:51Z</time>
      </trkpt>
      <trkpt lat="44.11666" lon="5.70178">
        <ele>1026</ele>
        <time>2018-05-17T13:44:51Z</time>
      </trkpt>
      <trkpt lat="44.11623" lon="5.70075">
        <ele>1027</ele>
        <time>2018-05-17T13:45:51Z</time>
      </trkpt>
      <trkpt lat="44.1154" lon="5.70002">
        <ele>1015</ele>
        <time>2018-05-17T13:46:51Z</time>
      </trkpt>
      <trkpt lat="44.11287" lon="5.6998">
        <ele>994</ele>
        <time>2018-05-17T13:47:51Z</time>
      </trkpt>
      <trkpt lat="44.11103" lon="5.69938">
        <ele>976</ele>
        <time>2018-05-17T13:48:51Z</time>
      </trkpt>
      <trkpt lat="44.10939" lon="5.69933">
        <ele>963</ele>
        <time>2018-05-17T13:49:51Z</time>
      </trkpt>
      <trkpt lat="44.10871" lon="5.69907">
        <ele>958</ele>
        <time>2018-05-17T13:50:51Z</time>
      </trkpt>
      <trkpt lat="44.10659" lon="5.69963">
        <ele>949</ele>
        <time>2018-05-17T13:51:51Z</time>
      </trkpt>
      <trkpt lat="44.10619" lon="5.69998">
        <ele>940</ele>
        <time>2018-05-17T13:52:51Z</time>
      </trkpt>
      <trkpt lat="44.1057" lon="5.69989">
        <ele>939</ele>
        <time>2018-05-17T13:53:51Z</time>
      </trkpt>
      <trkpt lat="44.10449" lon="5.70045">
        <ele>927</ele>
        <time>2018-05-17T13:54:51Z</time>
      </trkpt>
      <trkpt lat="44.10304" lon="5.70032">
        <ele>938</ele>
        <time>2018-05-17T13:55:51Z</time>
      </trkpt>
      <trkpt lat="44.10249" lon="5.69968">
        <ele>953</ele>
        <time>2018-05-17T13:56:51Z</time>
      </trkpt>
      <trkpt lat="44.10314" lon="5.69912">
        <ele>963</ele>
        <time>2018-05-17T13:57:51Z</time>
      </trkpt>
      <trkpt lat="44.104" lon="5.69873">
        <ele>968</ele>
        <time>2018-05-17T13:58:51Z</time>
      </trkpt>
      <trkpt lat="44.10489" lon="5.698">
        <ele>980</ele>
        <time>2018-05-17T13:59:51Z</time>
      </trkpt>
      <trkpt lat="44.10582" lon="5.69757">
        <ele>982</ele>
        <time>2018-05-17T14:00:51Z</time>
      </trkpt>
      <trkpt lat="44.10736" lon="5.6965">
        <ele>1005</ele>
        <time>2018-05-17T14:01:51Z</time>
      </trkpt>
      <trkpt lat="44.10696" lon="5.69611">
        <ele>1011</ele>
        <time>2018-05-17T14:02:51Z</time>
      </trkpt>
      <trkpt lat="44.10526" lon="5.69603">
        <ele>1012</ele>
        <time>2018-05-17T14:03:51Z</time>
      </trkpt>
      <trkpt lat="44.1044" lon="5.69556">
        <ele>1013</ele>
        <time>2018-05-17T14:04:51Z</time>
      </trkpt>
      <trkpt lat="44.10301" lon="5.69564">
        <ele>1011</ele>
        <time>2018-05-17T14:05:51Z</time>
      </trkpt>
      <trkpt lat="44.09996" lon="5.69453">
        <ele>986</ele>
        <time>2018-05-17T14:06:51Z</time>
      </trkpt>
      <trkpt lat="44.09821" lon="5.69444">
        <ele>968</ele>
        <time>2018-05-17T14:07:51Z</time>
      </trkpt>
      <trkpt lat="44.09639" lon="5.6941">
        <ele>947</ele>
        <time>2018-05-17T14:08:51Z</time>
      </trkpt>
      <trkpt lat="44.09361" lon="5.69435">
        <ele>914</ele>
        <time>2018-05-17T14:09:51Z</time>
      </trkpt>
      <trkpt lat="44.09235" lon="5.69165">
        <ele>890</ele>
        <time>2018-05-17T14:10:51Z</time>
      </trkpt>
      <trkpt lat="44.09192" lon="5.69079">
        <ele>883</ele>
        <time>2018-05-17T14:11:51Z</time>
      </trkpt>
      <trkpt lat="44.09146" lon="5.69062">
        <ele>879</ele>
        <time>2018-05-17T14:12:51Z</time>
      </trkpt>
      <trkpt lat="44.08924" lon="5.69131">
        <ele>873</ele>
        <time>2018-05-17T14:13:51Z</time>
      </trkpt>
      <trkpt lat="44.08958" lon="5.69204">
        <ele>868</ele>
        <time>2018-05-17T14:14:51Z</time>
      </trkpt>
      <trkpt lat="44.08828" lon="5.69315">
        <ele>852</ele>
        <time>2018-05-17T14:15:51Z</time>
      </trkpt>
      <trkpt lat="44.08717" lon="5.695">
        <ele>845</ele>
        <time>2018-05-17T14:16:51Z</time>
      </trkpt>
      <trkpt lat="44.08646" lon="5.69753">
        <ele>878</ele>
        <time>2018-05-17T14:17:51Z</time>
      </trkpt>
      <trkpt lat="44.08656" lon="5.69865">
        <ele>883</ele>
        <time>2018-05-17T14:18:51Z</time>
      </trkpt>
      <trkpt lat="44.08751" lon="5.69946">
        <ele>892</ele>
        <time>2018-05-17T14:19:51Z</time>
      </trkpt>
      <trkpt lat="44.08733" lon="5.70311">
        <ele>889</ele>
        <time>2018-05-17T14:20:51Z</time>
      </trkpt>
      <trkpt lat="44.08643" lon="5.70435">
        <ele>874</ele>
        <time>2018-05-17T14:21:51Z</time>
      </trkpt>
      <trkpt lat="44.08582" lon="5.70457">
        <ele>865</ele>
        <time>2018-05-17T14:22:51Z</time>
      </trkpt>
      <trkpt lat="44.08591" lon="5.70547">
        <ele>866</ele>
        <time>2018-05-17T14:23:51Z</time>
      </trkpt>
      <trkpt lat="44.08504" lon="5.70701">
        <ele>887</ele>
        <time>2018-05-17T14:24:51Z</time>
      </trkpt>
      <trkpt lat="44.08394" lon="5.70766">
        <ele>903</ele>
        <time>2018-05-17T14:25:51Z</time>
      </trkpt>
      <trkpt lat="44.08384" lon="5.70989">
        <ele>943</ele>
        <time>2018-05-17T14:26:51Z</time>
      </trkpt>
      <trkpt lat="44.08335" lon="5.71216">
        <ele>968</ele>
        <time>2018-05-17T14:27:51Z</time>
      </trkpt>
      <trkpt lat="44.08338" lon="5.71461">
        <ele>977</ele>
        <time>2018-05-17T14:28:51Z</time>
      </trkpt>
      <trkpt lat="44.08369" lon="5.71547">
        <ele>975</ele>
        <time>2018-05-17T14:29:51Z</time>
      </trkpt>
      <trkpt lat="44.0815" lon="5.71937">
        <ele>947</ele>
        <time>2018-05-17T14:30:51Z</time>
      </trkpt>
      <trkpt lat="44.07746" lon="5.72161">
        <ele>911</ele>
        <time>2018-05-17T14:31:51Z</time>
      </trkpt>
      <trkpt lat="44.07684" lon="5.72173">
        <ele>907</ele>
        <time>2018-05-17T14:32:51Z</time>
      </trkpt>
      <trkpt lat="44.07037" lon="5.71993">
        <ele>861</ele>
        <time>2018-05-17T14:33:51Z</time>
      </trkpt>
      <trkpt lat="44.07015" lon="5.71942">
        <ele>859</ele>
        <time>2018-05-17T14:34:51Z</time>
      </trkpt>
      <trkpt lat="44.06759" lon="5.71873">
        <ele>842</ele>
        <time>2018-05-17T14:35:51Z</time>
      </trkpt>
      <trkpt lat="44.06568" lon="5.71706">
        <ele>836</ele>
        <time>2018-05-17T14:36:51Z</time>
      </trkpt>
      <trkpt lat="44.06328" lon="5.71581">
        <ele>815</ele>
        <time>2018-05-17T14:37:51Z</time>
      </trkpt>
      <trkpt lat="44.0605" lon="5.71375">
        <ele>796</ele>
        <time>2018-05-17T14:38:51Z</time>
      </trkpt>
      <trkpt lat="44.05871" lon="5.71337">
        <ele>788</ele>
        <time>2018-05-17T14:39:51Z</time>
      </trkpt>
      <trkpt lat="44.05742" lon="5.71251">
        <ele>779</ele>
        <time>2018-05-17T14:40:51Z</time>
      </trkpt>
      <trkpt lat="44.05686" lon="5.71298">
        <ele>776</ele>
        <time>2018-05-17T14:41:51Z</time>
      </trkpt>
      <trkpt lat="44.0564" lon="5.71422">
        <ele>772</ele>
        <time>2018-05-17T14:42:51Z</time>
      </trkpt>
      <trkpt lat="44.05492" lon="5.71663">
        <ele>776</ele>
        <time>2018-05-17T14:43:51Z</time>
      </trkpt>
      <trkpt lat="44.05501" lon="5.71976">
        <ele>784</ele>
        <time>2018-05-17T14:44:51Z</time>
      </trkpt>
      <trkpt lat="44.05372" lon="5.72427">
        <ele>792</ele>
        <time>2018-05-17T14:45:51Z</time>
      </trkpt>
      <trkpt lat="44.05384" lon="5.72521">
        <ele>804</ele>
        <time>2018-05-17T14:46:51Z</time>
      </trkpt>
      <trkpt lat="44.05473" lon="5.7268">
        <ele>821</ele>
        <time>2018-05-17T14:47:51Z</time>
      </trkpt>
      <trkpt lat="44.0551" lon="5.72899">
        <ele>844</ele>
        <time>2018-05-17T14:48:51Z</time>
      </trkpt>
      <trkpt lat="44.05609" lon="5.73195">
        <ele>850</ele>
        <time>2018-05-17T14:49:51Z</time>
      </trkpt>
      <trkpt lat="44.05618" lon="5.73422">
        <ele>831</ele>
        <time>2018-05-17T14:50:51Z</time>
      </trkpt>
      <trkpt lat="44.05662" lon="5.73521">
        <ele>824</ele>
        <time>2018-05-17T14:51:51Z</time>
      </trkpt>
      <trkpt lat="44.05622" lon="5.73607">
        <ele>822</ele>
        <time>2018-05-17T14:52:51Z</time>
      </trkpt>
      <trkpt lat="44.05523" lon="5.73641">
        <ele>827</ele>
        <time>2018-05-17T14:53:51Z</time>
      </trkpt>
      <trkpt lat="44.05514" lon="5.73723">
        <ele>838</ele>
        <time>2018-05-17T14:54:51Z</time>
      </trkpt>
      <trkpt lat="44.05258" lon="5.738">
        <ele>870</ele>
        <time>2018-05-17T14:55:51Z</time>
      </trkpt>
      <trkpt lat="44.05005" lon="5.74083">
        <ele>906</ele>
        <time>2018-05-17T14:56:51Z</time>
      </trkpt>
      <trkpt lat="44.05048" lon="5.74156">
        <ele>910</ele>
        <time>2018-05-17T14:57:51Z</time>
      </trkpt>
      <trkpt lat="44.04965" lon="5.74208">
        <ele>899</ele>
        <time>2018-05-17T14:58:51Z</time>
      </trkpt>
      <trkpt lat="44.04965" lon="5.74345">
        <ele>900</ele>
        <time>2018-05-17T14:59:51Z</time>
      </trkpt>
      <trkpt lat="44.04736" lon="5.74555">
        <ele>901</ele>
        <time>2018-05-17T15:00:51Z</time>
      </trkpt>
      <trkpt lat="44.04644" lon="5.74744">
        <ele>897</ele>
        <time>2018-05-17T15:01:51Z</time>
      </trkpt>
      <trkpt lat="44.04647" lon="5.74869">
        <ele>891</ele>
        <time>2018-05-17T15:02:51Z</time>
      </trkpt>
      <trkpt lat="44.04641" lon="5.75147">
        <ele>882</ele>
        <time>2018-05-17T15:03:51Z</time>
      </trkpt>
      <trkpt lat="44.04681" lon="5.75268">
        <ele>878</ele>
        <time>2018-05-17T15:04:51Z</time>
      </trkpt>
      <trkpt lat="44.04783" lon="5.75362">
        <ele>870</ele>
        <time>2018-05-17T15:05:51Z</time>
      </trkpt>
      <trkpt lat="44.04875" lon="5.75409">
        <ele>871</ele>
        <time>2018-05-17T15:06:51Z</time>
      </trkpt>
      <trkpt lat="44.04783" lon="5.75559">
        <ele>865</ele>
        <time>2018-05-17T15:07:51Z</time>
      </trkpt>
      <trkpt lat="44.04767" lon="5.75761">
        <ele>859</ele>
        <time>2018-05-17T15:08:51Z</time>
      </trkpt>
      <trkpt lat="44.04776" lon="5.75937">
        <ele>846</ele>
        <time>2018-05-17T15:09:51Z</time>
      </trkpt>
      <trkpt lat="44.04823" lon="5.76139">
        <ele>836</ele>
        <time>2018-05-17T15:10:51Z</time>
      </trkpt>
      <trkpt lat="44.04863" lon="5.76229">
        <ele>834</ele>
        <time>2018-05-17T15:11:51Z</time>
      </trkpt>
      <trkpt lat="44.04832" lon="5.76444">
        <ele>815</ele>
        <time>2018-05-17T15:12:51Z</time>
      </trkpt>
      <trkpt lat="44.04835" lon="5.76692">
        <ele>790</ele>
        <time>2018-05-17T15:13:51Z</time>
      </trkpt>
      <trkpt lat="44.0481" lon="5.76744">
        <ele>782</ele>
        <time>2018-05-17T15:14:51Z</time>
      </trkpt>
      <trkpt lat="44.04773" lon="5.76804">
        <ele>771</ele>
        <time>2018-05-17T15:15:51Z</time>
      </trkpt>
      <trkpt lat="44.04789" lon="5.76924">
        <ele>760</ele>
        <time>2018-05-17T15:16:51Z</time>
      </trkpt>
      <trkpt lat="44.04761" lon="5.77061">
        <ele>744</ele>
        <time>2018-05-17T15:17:51Z</time>
      </trkpt>
      <trkpt lat="44.04779" lon="5.77177">
        <ele>737</ele>
        <time>2018-05-17T15:18:51Z</time>
      </trkpt>
      <trkpt lat="44.04733" lon="5.77259">
        <ele>726</ele>
        <time>2018-05-17T15:19:51Z</time>
      </trkpt>
      <trkpt lat="44.04665" lon="5.7734">
        <ele>714</ele>
        <time>2018-05-17T15:20:51Z</time>
      </trkpt>
      <trkpt lat="44.04635" lon="5.77499">
        <ele>705</ele>
        <time>2018-05-17T15:21:51Z</time>
      </trkpt>
      <trkpt lat="44.0465" lon="5.77615">
        <ele>701</ele>
        <time>2018-05-17T15:22:51Z</time>
      </trkpt>
      <trkpt lat="44.04597" lon="5.7774">
        <ele>693</ele>
        <time>2018-05-17T15:23:51Z</time>
      </trkpt>
      <trkpt lat="44.04548" lon="5.7777">
        <ele>689</ele>
        <time>2018-05-17T15:24:51Z</time>
      </trkpt>
      <trkpt lat="44.04554" lon="5.78031">
        <ele>695</ele>
        <time>2018-05-17T15:25:51Z</time>
      </trkpt>
      <trkpt lat="44.04258" lon="5.78156">
        <ele>672</ele>
        <time>2018-05-17T15:26:51Z</time>
      </trkpt>
      <trkpt lat="44.04181" lon="5.78469">
        <ele>669</ele>
        <time>2018-05-17T15:27:51Z</time>
      </trkpt>
      <trkpt lat="44.04138" lon="5.78525">
        <ele>667</ele>
        <time>2018-05-17T15:28:51Z</time>
      </trkpt>
      <trkpt lat="44.04147" lon="5.78752">
        <ele>669</ele>
        <time>2018-05-17T15:29:51Z</time>
      </trkpt>
      <trkpt lat="44.04045" lon="5.78915">
        <ele>664</ele>
        <time>2018-05-17T15:30:51Z</time>
      </trkpt>
      <trkpt lat="44.04011" lon="5.79104">
        <ele>661</ele>
        <time>2018-05-17T15:31:51Z</time>
      </trkpt>
      <trkpt lat="44.04005" lon="5.79242">
        <ele>657</ele>
        <time>2018-05-17T15:32:51Z</time>
      </trkpt>
      <trkpt lat="44.03962" lon="5.79555">
        <ele>654</ele>
        <time>2018-05-17T15:33:51Z</time>
      </trkpt>
      <trkpt lat="44.04027" lon="5.79722">
        <ele>655</ele>
        <time>2018-05-17T15:34:51Z</time>
      </trkpt>
      <trkpt lat="44.0415" lon="5.79825">
        <ele>662</ele>
        <time>2018-05-17T15:35:51Z</time>
      </trkpt>
      <trkpt lat="44.04203" lon="5.79988">
        <ele>663</ele>
        <time>2018-05-17T15:36:51Z</time>
      </trkpt>
      <trkpt lat="44.04178" lon="5.80053">
        <ele>662</ele>
        <time>2018-05-17T15:37:51Z</time>
      </trkpt>
      <trkpt lat="44.04227" lon="5.80194">
        <ele>663</ele>
        <time>2018-05-17T15:38:51Z</time>
      </trkpt>
      <trkpt lat="44.04024" lon="5.80744">
        <ele>662</ele>
        <time>2018-05-17T15:39:51Z</time>
      </trkpt>
      <trkpt lat="44.03962" lon="5.80744">
        <ele>673</ele>
        <time>2018-05-17T15:40:51Z</time>
      </trkpt>
      <trkpt lat="44.03882" lon="5.80812">
        <ele>674</ele>
        <time>2018-05-17T15:41:51Z</time>
      </trkpt>
      <trkpt lat="44.03808" lon="5.80726">
        <ele>687</ele>
        <time>2018-05-17T15:42:51Z</time>
      </trkpt>
      <trkpt lat="44.03598" lon="5.80636">
        <ele>690</ele>
        <time>2018-05-17T15:43:51Z</time>
      </trkpt>
      <trkpt lat="44.03546" lon="5.80589">
        <ele>697</ele>
        <time>2018-05-17T15:44:51Z</time>
      </trkpt>
      <trkpt lat="44.03468" lon="5.80701">
        <ele>706</ele>
        <time>2018-05-17T15:45:51Z</time>
      </trkpt>
      <trkpt lat="44.03379" lon="5.80782">
        <ele>718</ele>
        <time>2018-05-17T15:46:51Z</time>
      </trkpt>
      <trkpt lat="44.03379" lon="5.80864">
        <ele>715</ele>
        <time>2018-05-17T15:47:51Z</time>
      </trkpt>
      <trkpt lat="44.03209" lon="5.80954">
        <ele>723</ele>
        <time>2018-05-17T15:48:51Z</time>
      </trkpt>
      <trkpt lat="44.03064" lon="5.80988">
        <ele>719</ele>
        <time>2018-05-17T15:49:51Z</time>
      </trkpt>
      <trkpt lat="44.02993" lon="5.8095">
        <ele>722</ele>
        <time>2018-05-17T15:50:51Z</time>
      </trkpt>
      <trkpt lat="44.02935" lon="5.80877">
        <ele>729</ele>
        <time>2018-05-17T15:51:51Z</time>
      </trkpt>
      <trkpt lat="44.02864" lon="5.80907">
        <ele>735</ele>
        <time>2018-05-17T15:52:51Z</time>
      </trkpt>
      <trkpt lat="44.02833" lon="5.81005">
        <ele>738</ele>
        <time>2018-05-17T15:53:51Z</time>
      </trkpt>
      <trkpt lat="44.02861" lon="5.811">
        <ele>730</ele>
        <time>2018-05-17T15:54:51Z</time>
      </trkpt>
      <trkpt lat="44.02777" lon="5.81147">
        <ele>744</ele>
        <time>2018-05-17T15:55:51Z</time>
      </trkpt>
      <trkpt lat="44.02765" lon="5.8125">
        <ele>748</ele>
        <time>2018-05-17T15:56:51Z</time>
      </trkpt>
      <trkpt lat="44.02783" lon="5.81336">
        <ele>745</ele>
        <time>2018-05-17T15:57:51Z</time>
      </trkpt>
      <trkpt lat="44.02722" lon="5.81465">
        <ele>743</ele>
        <time>2018-05-17T15:58:51Z</time>
      </trkpt>
      <trkpt lat="44.02558" lon="5.8149">
        <ele>747</ele>
        <time>2018-05-17T15:59:51Z</time>
      </trkpt>
      <trkpt lat="44.02537" lon="5.8143">
        <ele>762</ele>
        <time>2018-05-17T16:00:51Z</time>
      </trkpt>
      <trkpt lat="44.02453" lon="5.81542">
        <ele>754</ele>
        <time>2018-05-17T16:01:51Z</time>
      </trkpt>
      <trkpt lat="44.02392" lon="5.8152">
        <ele>764</ele>
        <time>2018-05-17T16:02:51Z</time>
      </trkpt>
      <trkpt lat="44.02287" lon="5.81709">
        <ele>760</ele>
        <time>2018-05-17T16:03:51Z</time>
      </trkpt>
      <trkpt lat="44.02287" lon="5.81847">
        <ele>753</ele>
        <time>2018-05-17T16:04:51Z</time>
      </trkpt>
      <trkpt lat="44.02138" lon="5.82078">
        <ele>743</ele>
        <time>2018-05-17T16:05:51Z</time>
      </trkpt>
      <trkpt lat="44.02185" lon="5.82091">
        <ele>743</ele>
        <time>2018-05-17T16:06:51Z</time>
      </trkpt>
      <trkpt lat="44.02253" lon="5.82177">
        <ele>745</ele>
        <time>2018-05-17T16:07:51Z</time>
      </trkpt>
      <trkpt lat="44.02351" lon="5.82224">
        <ele>747</ele>
        <time>2018-05-17T16:08:51Z</time>
      </trkpt>
      <trkpt lat="44.02496" lon="5.82293">
        <ele>751</ele>
        <time>2018-05-17T16:09:51Z</time>
      </trkpt>
      <trkpt lat="44.02154" lon="5.82456">
        <ele>777</ele>
        <time>2018-05-17T16:10:51Z</time>
      </trkpt>
      <trkpt lat="44.02064" lon="5.82932">
        <ele>778</ele>
        <time>2018-05-17T16:11:51Z</time>
      </trkpt>
      <trkpt lat="44.02114" lon="5.83164">
        <ele>776</ele>
        <time>2018-05-17T16:12:51Z</time>
      </trkpt>
      <trkpt lat="44.02049" lon="5.8322">
        <ele>763</ele>
        <time>2018-05-17T16:13:51Z</time>
      </trkpt>
      <trkpt lat="44.02037" lon="5.83155">
        <ele>765</ele>
        <time>2018-05-17T16:14:51Z</time>
      </trkpt>
      <trkpt lat="44.02006" lon="5.83254">
        <ele>754</ele>
        <time>2018-05-17T16:15:51Z</time>
      </trkpt>
      <trkpt lat="44.01907" lon="5.83306">
        <ele>740</ele>
        <time>2018-05-17T16:16:51Z</time>
      </trkpt>
      <trkpt lat="44.01645" lon="5.83816">
        <ele>672</ele>
        <time>2018-05-17T16:17:51Z</time>
      </trkpt>
      <trkpt lat="44.01666" lon="5.83868">
        <ele>672</ele>
        <time>2018-05-17T16:18:51Z</time>
      </trkpt>
      <trkpt lat="44.01487" lon="5.8407">
        <ele>653</ele>
        <time>2018-05-17T16:19:51Z</time>
      </trkpt>
      <trkpt lat="44.01404" lon="5.84091">
        <ele>645</ele>
        <time>2018-05-17T16:20:51Z</time>
      </trkpt>
      <trkpt lat="44.0133" lon="5.8407">
        <ele>637</ele>
        <time>2018-05-17T16:21:51Z</time>
      </trkpt>
      <trkpt lat="44.01009" lon="5.84134">
        <ele>595</ele>
        <time>2018-05-17T16:22:51Z</time>
      </trkpt>
      <trkpt lat="44.00765" lon="5.84057">
        <ele>574</ele>
        <time>2018-05-17T16:23:51Z</time>
      </trkpt>
      <trkpt lat="44.00629" lon="5.84052">
        <ele>567</ele>
        <time>2018-05-17T16:24:51Z</time>
      </trkpt>
      <trkpt lat="44.00546" lon="5.84005">
        <ele>550</ele>
        <time>2018-05-17T16:25:51Z</time>
      </trkpt>
      <trkpt lat="44.00478" lon="5.84044">
        <ele>545</ele>
        <time>2018-05-17T16:26:51Z</time>
      </trkpt>
      <trkpt lat="44.00268" lon="5.84048">
        <ele>523</ele>
        <time>2018-05-17T16:27:51Z</time>
      </trkpt>
      <trkpt lat="44.002" lon="5.84027">
        <ele>514</ele>
        <time>2018-05-17T16:28:51Z</time>
      </trkpt>
      <trkpt lat="43.99956" lon="5.8407">
        <ele>502</ele>
        <time>2018-05-17T16:29:51Z</time>
      </trkpt>
      <trkpt lat="43.99719" lon="5.84061">
        <ele>496</ele>
        <time>2018-05-17T16:30:51Z</time>
      </trkpt>
      <trkpt lat="43.9954" lon="5.84134">
        <ele>484</ele>
        <time>2018-05-17T16:31:51Z</time>
      </trkpt>
      <trkpt lat="43.99178" lon="5.84117">
        <ele>474</ele>
        <time>2018-05-17T16:32:51Z</time>
      </trkpt>
      <trkpt lat="43.99046" lon="5.84065">
        <ele>477</ele>
        <time>2018-05-17T16:33:51Z</time>
      </trkpt>
      <trkpt lat="43.99002" lon="5.84014">
        <ele>477</ele>
        <time>2018-05-17T16:34:51Z</time>
      </trkpt>
      <trkpt lat="43.98916" lon="5.8404">
        <ele>486</ele>
        <time>2018-05-17T16:35:51Z</time>
      </trkpt>
      <trkpt lat="43.98975" lon="5.83945">
        <ele>480</ele>
        <time>2018-05-17T16:36:51Z</time>
      </trkpt>
      <trkpt lat="43.98913" lon="5.83949">
        <ele>487</ele>
        <time>2018-05-17T16:37:51Z</time>
      </trkpt>
      <trkpt lat="43.98749" lon="5.83911">
        <ele>500</ele>
        <time>2018-05-17T16:38:51Z</time>
      </trkpt>
      <trkpt lat="43.98527" lon="5.83799">
        <ele>508</ele>
        <time>2018-05-17T16:39:51Z</time>
      </trkpt>
      <trkpt lat="43.98518" lon="5.83705">
        <ele>512</ele>
        <time>2018-05-17T16:40:51Z</time>
      </trkpt>
      <trkpt lat="43.98443" lon="5.83786">
        <ele>517</ele>
        <time>2018-05-17T16:41:51Z</time>
      </trkpt>
      <trkpt lat="43.9828" lon="5.83821">
        <ele>519</ele>
        <time>2018-05-17T16:42:51Z</time>
      </trkpt>
      <trkpt lat="43.98224" lon="5.83782">
        <ele>527</ele>
        <time>2018-05-17T16:43:51Z</time>
      </trkpt>
      <trkpt lat="43.979" lon="5.83949">
        <ele>545</ele>
        <time>2018-05-17T16:44:51Z</time>
      </trkpt>
      <trkpt lat="43.97847" lon="5.83782">
        <ele>546</ele>
        <time>2018-05-17T16:45:51Z</time>
      </trkpt>
      <trkpt lat="43.97637" lon="5.83628">
        <ele>531</ele>
        <time>2018-05-17T16:46:51Z</time>
      </trkpt>
      <trkpt lat="43.9744" lon="5.83666">
        <ele>531</ele>
        <time>2018-05-17T16:47:51Z</time>
      </trkpt>
      <trkpt lat="43.97384" lon="5.83709">
        <ele>530</ele>
        <time>2018-05-17T16:48:51Z</time>
      </trkpt>
      <trkpt lat="43.97298" lon="5.83705">
        <ele>529</ele>
        <time>2018-05-17T16:49:51Z</time>
      </trkpt>
      <trkpt lat="43.97153" lon="5.83761">
        <ele>527</ele>
        <time>2018-05-17T16:50:51Z</time>
      </trkpt>
      <trkpt lat="43.96992" lon="5.83958">
        <ele>518</ele>
        <time>2018-05-17T16:51:51Z</time>
      </trkpt>
      <trkpt lat="43.96745" lon="5.84044">
        <ele>508</ele>
        <time>2018-05-17T16:52:51Z</time>
      </trkpt>
      <trkpt lat="43.96729" lon="5.84104">
        <ele>507</ele>
        <time>2018-05-17T16:53:51Z</time>
      </trkpt>
      <trkpt lat="43.96649" lon="5.84001">
        <ele>504</ele>
        <time>2018-05-17T16:54:51Z</time>
      </trkpt>
      <trkpt lat="43.96485" lon="5.84005">
        <ele>488</ele>
        <time>2018-05-17T16:55:51Z</time>
      </trkpt>
      <trkpt lat="43.96427" lon="5.83945">
        <ele>482</ele>
        <time>2018-05-17T16:56:51Z</time>
      </trkpt>
      <trkpt lat="43.96248" lon="5.83902">
        <ele>456</ele>
        <time>2018-05-17T16:57:51Z</time>
      </trkpt>
      <trkpt lat="43.9621" lon="5.83834">
        <ele>454</ele>
        <time>2018-05-17T16:58:51Z</time>
      </trkpt>
      <trkpt lat="43.96133" lon="5.83778">
        <ele>449</ele>
        <time>2018-05-17T16:59:51Z</time>
      </trkpt>
      <trkpt lat="43.96127" lon="5.83658">
        <ele>451</ele>
        <time>2018-05-17T17:00:51Z</time>
      </trkpt>
      <trkpt lat="43.96102" lon="5.83563">
        <ele>450</ele>
        <time>2018-05-17T17:01:51Z</time>
      </trkpt>
      <trkpt lat="43.9613" lon="5.83353">
        <ele>453</ele>
        <time>2018-05-17T17:02:51Z</time>
      </trkpt>
      <trkpt lat="43.96204" lon="5.83276">
        <ele>457</ele>
        <time>2018-05-17T17:03:51Z</time>
      </trkpt>
      <trkpt lat="43.96275" lon="5.83147">
        <ele>460</ele>
        <time>2018-05-17T17:04:51Z</time>
      </trkpt>
      <trkpt lat="43.96334" lon="5.8313">
        <ele>463</ele>
        <time>2018-05-17T17:05:51Z</time>
      </trkpt>
      <trkpt lat="43.96331" lon="5.8307">
        <ele>462</ele>
        <time>2018-05-17T17:06:51Z</time>
      </trkpt>
      <trkpt lat="43.96461" lon="5.82838">
        <ele>474</ele>
        <time>2018-05-17T17:07:51Z</time>
      </trkpt>
      <trkpt lat="43.96495" lon="5.82756">
        <ele>477</ele>
        <time>2018-05-17T17:08:51Z</time>
      </trkpt>
      <trkpt lat="43.96556" lon="5.82743">
        <ele>476</ele>
        <time>2018-05-17T17:09:51Z</time>
      </trkpt>
      <trkpt lat="43.96621" lon="5.82675">
        <ele>481</ele>
        <time>2018-05-17T17:10:51Z</time>
      </trkpt>
      <trkpt lat="43.96868" lon="5.82533">
        <ele>490</ele>
        <time>2018-05-17T17:11:51Z</time>
      </trkpt>
      <trkpt lat="43.96902" lon="5.82426">
        <ele>494</ele>
        <time>2018-05-17T17:12:51Z</time>
      </trkpt>
      <trkpt lat="43.96859" lon="5.824">
        <ele>496</ele>
        <time>2018-05-17T17:13:51Z</time>
      </trkpt>
      <trkpt lat="43.96964" lon="5.82173">
        <ele>512</ele>
        <time>2018-05-17T17:14:51Z</time>
      </trkpt>
      <trkpt lat="43.96986" lon="5.81838">
        <ele>524</ele>
        <time>2018-05-17T17:15:51Z</time>
      </trkpt>
      <trkpt lat="43.97094" lon="5.81825">
        <ele>528</ele>
        <time>2018-05-17T17:16:51Z</time>
      </trkpt>
      <trkpt lat="43.97279" lon="5.8146">
        <ele>557</ele>
        <time>2018-05-17T17:17:51Z</time>
      </trkpt>
      <trkpt lat="43.9727" lon="5.81405">
        <ele>562</ele>
        <time>2018-05-17T17:18:51Z</time>
      </trkpt>
      <trkpt lat="43.97307" lon="5.8134">
        <ele>566</ele>
        <time>2018-05-17T17:19:51Z</time>
      </trkpt>
      <trkpt lat="43.97248" lon="5.8104">
        <ele>564</ele>
        <time>2018-05-17T17:20:51Z</time>
      </trkpt>
      <trkpt lat="43.97128" lon="5.80941">
        <ele>556</ele>
        <time>2018-05-17T17:21:51Z</time>
      </trkpt>
      <trkpt lat="43.97072" lon="5.80877">
        <ele>552</ele>
        <time>2018-05-17T17:22:51Z</time>
      </trkpt>
      <trkpt lat="43.97029" lon="5.80868">
        <ele>550</ele>
        <time>2018-05-17T17:23:51Z</time>
      </trkpt>
      <trkpt lat="43.96992" lon="5.80851">
        <ele>548</ele>
        <time>2018-05-17T17:24:51Z</time>
      </trkpt>
      <trkpt lat="43.9685" lon="5.80911">
        <ele>537</ele>
        <time>2018-05-17T17:25:51Z</time>
      </trkpt>
      <trkpt lat="43.96933" lon="5.80812">
        <ele>543</ele>
        <time>2018-05-17T17:26:51Z</time>
      </trkpt>
      <trkpt lat="43.96884" lon="5.80774">
        <ele>540</ele>
        <time>2018-05-17T17:27:51Z</time>
      </trkpt>
      <trkpt lat="43.96893" lon="5.80284">
        <ele>501</ele>
        <time>2018-05-17T17:28:51Z</time>
      </trkpt>
      <trkpt lat="43.96868" lon="5.8019">
        <ele>488</ele>
        <time>2018-05-17T17:29:51Z</time>
      </trkpt>
      <trkpt lat="43.9681" lon="5.8016">
        <ele>481</ele>
        <time>2018-05-17T17:30:51Z</time>
      </trkpt>
      <trkpt lat="43.9676" lon="5.80078">
        <ele>475</ele>
        <time>2018-05-17T17:31:51Z</time>
      </trkpt>
      <trkpt lat="43.96831" lon="5.80044">
        <ele>478</ele>
        <time>2018-05-17T17:32:51Z</time>
      </trkpt>
      <trkpt lat="43.96853" lon="5.79988">
        <ele>482</ele>
        <time>2018-05-17T17:33:51Z</time>
      </trkpt>
      <trkpt lat="43.96924" lon="5.80005">
        <ele>482</ele>
        <time>2018-05-17T17:34:51Z</time>
      </trkpt>
      <trkpt lat="43.97026" lon="5.79902">
        <ele>485</ele>
        <time>2018-05-17T17:35:51Z</time>
      </trkpt>
      <trkpt lat="43.97082" lon="5.79898">
        <ele>480</ele>
        <time>2018-05-17T17:36:51Z</time>
      </trkpt>
      <trkpt lat="43.97221" lon="5.79705">
        <ele>499</ele>
        <time>2018-05-17T17:37:51Z</time>
      </trkpt>
      <trkpt lat="43.97258" lon="5.79563">
        <ele>499</ele>
        <time>2018-05-17T17:38:51Z</time>
      </trkpt>
      <trkpt lat="43.97205" lon="5.79525">
        <ele>498</ele>
        <time>2018-05-17T17:39:51Z</time>
      </trkpt>
      <trkpt lat="43.96973" lon="5.79589">
        <ele>534</ele>
        <time>2018-05-17T17:40:51Z</time>
      </trkpt>
      <trkpt lat="43.96893" lon="5.79533">
        <ele>541</ele>
        <time>2018-05-17T17:41:51Z</time>
      </trkpt>
      <trkpt lat="43.96807" lon="5.79533">
        <ele>538</ele>
        <time>2018-05-17T17:42:51Z</time>
      </trkpt>
      <trkpt lat="43.96757" lon="5.79473">
        <ele>537</ele>
        <time>2018-05-17T17:43:51Z</time>
      </trkpt>
      <trkpt lat="43.96785" lon="5.79396">
        <ele>544</ele>
        <time>2018-05-17T17:44:51Z</time>
      </trkpt>
      <trkpt lat="43.96689" lon="5.79379">
        <ele>541</ele>
        <time>2018-05-17T17:45:51Z</time>
      </trkpt>
      <trkpt lat="43.96646" lon="5.79074">
        <ele>554</ele>
        <time>2018-05-17T17:46:51Z</time>
      </trkpt>
      <trkpt lat="43.96757" lon="5.79156">
        <ele>560</ele>
        <time>2018-05-17T17:47:51Z</time>
      </trkpt>
      <trkpt lat="43.96964" lon="5.7889">
        <ele>575</ele>
        <time>2018-05-17T17:48:51Z</time>
      </trkpt>
      <trkpt lat="43.96977" lon="5.78679">
        <ele>595</ele>
        <time>2018-05-17T17:49:51Z</time>
      </trkpt>
      <trkpt lat="43.97038" lon="5.78473">
        <ele>609</ele>
        <time>2018-05-17T17:50:51Z</time>
      </trkpt>
      <trkpt lat="43.97245" lon="5.78074">
        <ele>625</ele>
        <time>2018-05-17T17:51:51Z</time>
      </trkpt>
      <trkpt lat="43.97542" lon="5.77688">
        <ele>666</ele>
        <time>2018-05-17T17:52:51Z</time>
      </trkpt>
      <trkpt lat="43.97431" lon="5.77675">
        <ele>664</ele>
        <time>2018-05-17T17:53:51Z</time>
      </trkpt>
      <trkpt lat="43.97276" lon="5.77551">
        <ele>660</ele>
        <time>2018-05-17T17:54:51Z</time>
      </trkpt>
      <trkpt lat="43.97165" lon="5.77679">
        <ele>647</ele>
        <time>2018-05-17T17:55:51Z</time>
      </trkpt>
      <trkpt lat="43.97069" lon="5.77534">
        <ele>646</ele>
        <time>2018-05-17T17:56:51Z</time>
      </trkpt>
      <trkpt lat="43.96733" lon="5.77607">
        <ele>638</ele>
        <time>2018-05-17T17:57:51Z</time>
      </trkpt>
      <trkpt lat="43.96467" lon="5.77516">
        <ele>613</ele>
        <time>2018-05-17T17:58:51Z</time>
      </trkpt>
      <trkpt lat="43.96065" lon="5.77267">
        <ele>577</ele>
        <time>2018-05-17T17:59:51Z</time>
      </trkpt>
      <trkpt lat="43.95902" lon="5.77315">
        <ele>554</ele>
        <time>2018-05-17T18:00:51Z</time>
      </trkpt>
      <trkpt lat="43.95719" lon="5.77332">
        <ele>532</ele>
        <time>2018-05-17T18:01:51Z</time>
      </trkpt>
      <trkpt lat="43.95846" lon="5.77169">
        <ele>507</ele>
        <time>2018-05-17T18:02:51Z</time>
      </trkpt>
      <trkpt lat="43.95898" lon="5.77079">
        <ele>508</ele>
        <time>2018-05-17T18:03:51Z</time>
      </trkpt>
      <trkpt lat="43.95803" lon="5.77053">
        <ele>516</ele>
        <time>2018-05-17T18:04:51Z</time>
      </trkpt>
      <trkpt lat="43.95865" lon="5.76903">
        <ele>533</ele>
        <time>2018-05-17T18:05:51Z</time>
      </trkpt>
      <trkpt lat="43.95886" lon="5.76546">
        <ele>576</ele>
        <time>2018-05-17T18:06:51Z</time>
      </trkpt>
      <trkpt lat="43.95852" lon="5.76401">
        <ele>585</ele>
        <time>2018-05-17T18:07:51Z</time>
      </trkpt>
      <trkpt lat="43.95926" lon="5.76083">
        <ele>605</ele>
        <time>2018-05-17T18:08:51Z</time>
      </trkpt>
      <trkpt lat="43.95926" lon="5.75959">
        <ele>611</ele>
        <time>2018-05-17T18:09:51Z</time>
      </trkpt>
      <trkpt lat="43.95806" lon="5.75911">
        <ele>620</ele>
        <time>2018-05-17T18:10:51Z</time>
      </trkpt>
      <trkpt lat="43.95793" lon="5.75795">
        <ele>620</ele>
        <time>2018-05-17T18:11:51Z</time>
      </trkpt>
      <trkpt lat="43.95722" lon="5.75727">
        <ele>619</ele>
        <time>2018-05-17T18:12:51Z</time>
      </trkpt>
      <trkpt lat="43.95614" lon="5.75439">
        <ele>620</ele>
        <time>2018-05-17T18:13:51Z</time>
      </trkpt>
      <trkpt lat="43.95562" lon="5.75388">
        <ele>621</ele>
        <time>2018-05-17T18:14:51Z</time>
      </trkpt>
      <trkpt lat="43.95577" lon="5.74954">
        <ele>633</ele>
        <time>2018-05-17T18:15:51Z</time>
      </trkpt>
      <trkpt lat="43.95701" lon="5.74903">
        <ele>618</ele>
        <time>2018-05-17T18:16:51Z</time>
      </trkpt>
      <trkpt lat="43.95744" lon="5.74688">
        <ele>584</ele>
        <time>2018-05-17T18:17:51Z</time>
      </trkpt>
      <trkpt lat="43.95861" lon="5.74667">
        <ele>580</ele>
        <time>2018-05-17T18:18:51Z</time>
      </trkpt>
      <trkpt lat="43.95951" lon="5.74577">
        <ele>560</ele>
        <time>2018-05-17T18:19:51Z</time>
      </trkpt>
      <trkpt lat="43.9605" lon="5.74306">
        <ele>545</ele>
        <time>2018-05-17T18:20:51Z</time>
      </trkpt>
      <trkpt lat="43.96365" lon="5.74229">
        <ele>513</ele>
        <time>2018-05-17T18:21:51Z</time>
      </trkpt>
      <trkpt lat="43.96411" lon="5.7404">
        <ele>475</ele>
        <time>2018-05-17T18:22:51Z</time>
      </trkpt>
      <trkpt lat="43.96479" lon="5.73993">
        <ele>472</ele>
        <time>2018-05-17T18:23:51Z</time>
      </trkpt>
      <trkpt lat="43.96399" lon="5.7392">
        <ele>470</ele>
        <time>2018-05-17T18:24:51Z</time>
      </trkpt>
      <trkpt lat="43.963" lon="5.73581">
        <ele>503</ele>
        <time>2018-05-17T18:25:51Z</time>
      </trkpt>
      <trkpt lat="43.9635" lon="5.73457">
        <ele>518</ele>
        <time>2018-05-17T18:26:51Z</time>
      </trkpt>
      <trkpt lat="43.96374" lon="5.73251">
        <ele>539</ele>
        <time>2018-05-17T18:27:51Z</time>
      </trkpt>
      <trkpt lat="43.96417" lon="5.73212">
        <ele>545</ele>
        <time>2018-05-17T18:28:51Z</time>
      </trkpt>
      <trkpt lat="43.96461" lon="5.72688">
        <ele>587</ele>
        <time>2018-05-17T18:29:51Z</time>
      </trkpt>
      <trkpt lat="43.96322" lon="5.72706">
        <ele>597</ele>
        <time>2018-05-17T18:30:51Z</time>
      </trkpt>
      <trkpt lat="43.9626" lon="5.72671">
        <ele>616</ele>
        <time>2018-05-17T18:31:51Z</time>
      </trkpt>
      <trkpt lat="43.9613" lon="5.7283">
        <ele>620</ele>
        <time>2018-05-17T18:32:51Z</time>
      </trkpt>
      <trkpt lat="43.95985" lon="5.72839">
        <ele>639</ele>
        <time>2018-05-17T18:33:51Z</time>
      </trkpt>
      <trkpt lat="43.95932" lon="5.7286">
        <ele>644</ele>
        <time>2018-05-17T18:34:51Z</time>
      </trkpt>
      <trkpt lat="43.95793" lon="5.72783">
        <ele>655</ele>
        <time>2018-05-17T18:35:51Z</time>
      </trkpt>
      <trkpt lat="43.95701" lon="5.72667">
        <ele>665</ele>
        <time>2018-05-17T18:36:51Z</time>
      </trkpt>
      <trkpt lat="43.95522" lon="5.72607">
        <ele>679</ele>
        <time>2018-05-17T18:37:51Z</time>
      </trkpt>
      <trkpt lat="43.95302" lon="5.7256">
        <ele>670</ele>
        <time>2018-05-17T18:38:51Z</time>
      </trkpt>
      <trkpt lat="43.95185" lon="5.72517">
        <ele>659</ele>
        <time>2018-05-17T18:39:51Z</time>
      </trkpt>
      <trkpt lat="43.94953" lon="5.7265">
        <ele>646</ele>
        <time>2018-05-17T18:40:51Z</time>
      </trkpt>
      <trkpt lat="43.94891" lon="5.72645">
        <ele>651</ele>
        <time>2018-05-17T18:41:51Z</time>
      </trkpt>
      <trkpt lat="43.94718" lon="5.72869">
        <ele>656</ele>
        <time>2018-05-17T18:42:51Z</time>
      </trkpt>
      <trkpt lat="43.94517" lon="5.72873">
        <ele>653</ele>
        <time>2018-05-17T18:43:51Z</time>
      </trkpt>
      <trkpt lat="43.94354" lon="5.728">
        <ele>646</ele>
        <time>2018-05-17T18:44:51Z</time>
      </trkpt>
      <trkpt lat="43.94301" lon="5.72774">
        <ele>646</ele>
        <time>2018-05-17T18:45:51Z</time>
      </trkpt>
      <trkpt lat="43.94249" lon="5.72809">
        <ele>641</ele>
        <time>2018-05-17T18:46:51Z</time>
      </trkpt>
      <trkpt lat="43.94103" lon="5.7277">
        <ele>626</ele>
        <time>2018-05-17T18:47:51Z</time>
      </trkpt>
      <trkpt lat="43.94039" lon="5.728">
        <ele>616</ele>
        <time>2018-05-17T18:48:51Z</time>
      </trkpt>
      <trkpt lat="43.94005" lon="5.72748">
        <ele>613</ele>
        <time>2018-05-17T18:49:51Z</time>
      </trkpt>
      <trkpt lat="43.94023" lon="5.72658">
        <ele>616</ele>
        <time>2018-05-17T18:50:51Z</time>
      </trkpt>
      <trkpt lat="43.93977" lon="5.72658">
        <ele>614</ele>
        <time>2018-05-17T18:51:51Z</time>
      </trkpt>
      <trkpt lat="43.93927" lon="5.72693">
        <ele>612</ele>
        <time>2018-05-17T18:52:51Z</time>
      </trkpt>
      <trkpt lat="43.93899" lon="5.72929">
        <ele>592</ele>
        <time>2018-05-17T18:53:51Z</time>
      </trkpt>
      <trkpt lat="43.93847" lon="5.73088">
        <ele>579</ele>
        <time>2018-05-17T18:54:51Z</time>
      </trkpt>
      <trkpt lat="43.93847" lon="5.7316">
        <ele>573</ele>
        <time>2018-05-17T18:55:51Z</time>
      </trkpt>
      <trkpt lat="43.93804" lon="5.73259">
        <ele>567</ele>
        <time>2018-05-17T18:56:51Z</time>
      </trkpt>
      <trkpt lat="43.93631" lon="5.73354">
        <ele>558</ele>
        <time>2018-05-17T18:57:51Z</time>
      </trkpt>
      <trkpt lat="43.93578" lon="5.73371">
        <ele>557</ele>
        <time>2018-05-17T18:58:51Z</time>
      </trkpt>
      <trkpt lat="43.93507" lon="5.73345">
        <ele>562</ele>
        <time>2018-05-17T18:59:51Z</time>
      </trkpt>
      <trkpt lat="43.93331" lon="5.73362">
        <ele>566</ele>
        <time>2018-05-17T19:00:51Z</time>
      </trkpt>
      <trkpt lat="43.93402" lon="5.73285">
        <ele>568</ele>
        <time>2018-05-17T19:01:51Z</time>
      </trkpt>
      <trkpt lat="43.93374" lon="5.731">
        <ele>566</ele>
        <time>2018-05-17T19:02:51Z</time>
      </trkpt>
      <trkpt lat="43.93257" lon="5.7313">
        <ele>554</ele>
        <time>2018-05-17T19:03:51Z</time>
      </trkpt>
      <trkpt lat="43.93186" lon="5.73169">
        <ele>549</ele>
        <time>2018-05-17T19:04:51Z</time>
      </trkpt>
      <trkpt lat="43.92836" lon="5.73216">
        <ele>510</ele>
        <time>2018-05-17T19:05:51Z</time>
      </trkpt>
      <trkpt lat="43.9287" lon="5.73088">
        <ele>504</ele>
        <time>2018-05-17T19:06:51Z</time>
      </trkpt>
      <trkpt lat="43.92846" lon="5.73027">
        <ele>504</ele>
        <time>2018-05-17T19:07:51Z</time>
      </trkpt>
      <trkpt lat="43.92855" lon="5.7277">
        <ele>524</ele>
        <time>2018-05-17T19:08:51Z</time>
      </trkpt>
      <trkpt lat="43.92895" lon="5.72379">
        <ele>565</ele>
        <time>2018-05-17T19:09:51Z</time>
      </trkpt>
      <trkpt lat="43.92805" lon="5.72161">
        <ele>587</ele>
        <time>2018-05-17T19:10:51Z</time>
      </trkpt>
      <trkpt lat="43.92589" lon="5.72229">
        <ele>585</ele>
        <time>2018-05-17T19:11:51Z</time>
      </trkpt>
      <trkpt lat="43.92475" lon="5.72173">
        <ele>583</ele>
        <time>2018-05-17T19:12:51Z</time>
      </trkpt>
      <trkpt lat="43.92363" lon="5.72173">
        <ele>576</ele>
        <time>2018-05-17T19:13:51Z</time>
      </trkpt>
      <trkpt lat="43.9232" lon="5.72105">
        <ele>566</ele>
        <time>2018-05-17T19:14:51Z</time>
      </trkpt>
      <trkpt lat="43.9223" lon="5.72105">
        <ele>560</ele>
        <time>2018-05-17T19:15:51Z</time>
      </trkpt>
      <trkpt lat="43.92166" lon="5.71903">
        <ele>551</ele>
        <time>2018-05-17T19:16:51Z</time>
      </trkpt>
      <trkpt lat="43.91962" lon="5.71894">
        <ele>542</ele>
        <time>2018-05-17T19:17:51Z</time>
      </trkpt>
      <trkpt lat="43.91785" lon="5.71847">
        <ele>534</ele>
        <time>2018-05-17T19:18:51Z</time>
      </trkpt>
      <trkpt lat="43.91665" lon="5.71779">
        <ele>527</ele>
        <time>2018-05-17T19:19:51Z</time>
      </trkpt>
      <trkpt lat="43.91557" lon="5.71761">
        <ele>531</ele>
        <time>2018-05-17T19:20:51Z</time>
      </trkpt>
      <trkpt lat="43.9134" lon="5.7165">
        <ele>543</ele>
        <time>2018-05-17T19:21:51Z</time>
      </trkpt>
      <trkpt lat="43.91235" lon="5.71671">
        <ele>550</ele>
        <time>2018-05-17T19:22:51Z</time>
      </trkpt>
      <trkpt lat="43.91121" lon="5.71654">
        <ele>559</ele>
        <time>2018-05-17T19:23:51Z</time>
      </trkpt>
      <trkpt lat="43.91019" lon="5.71568">
        <ele>573</ele>
        <time>2018-05-17T19:24:51Z</time>
      </trkpt>
      <trkpt lat="43.90849" lon="5.71676">
        <ele>558</ele>
        <time>2018-05-17T19:25:51Z</time>
      </trkpt>
      <trkpt lat="43.90598" lon="5.71452">
        <ele>542</ele>
        <time>2018-05-17T19:26:51Z</time>
      </trkpt>
      <trkpt lat="43.90468" lon="5.71401">
        <ele>551</ele>
        <time>2018-05-17T19:27:51Z</time>
      </trkpt>
      <trkpt lat="43.90045" lon="5.71182">
        <ele>551</ele>
        <time>2018-05-17T19:28:51Z</time>
      </trkpt>
      <trkpt lat="43.89949" lon="5.71053">
        <ele>549</ele>
        <time>2018-05-17T19:29:51Z</time>
      </trkpt>
      <trkpt lat="43.89844" lon="5.70942">
        <ele>553</ele>
        <time>2018-05-17T19:30:51Z</time>
      </trkpt>
      <trkpt lat="43.89735" lon="5.7077">
        <ele>560</ele>
        <time>2018-05-17T19:31:51Z</time>
      </trkpt>
      <trkpt lat="43.89565" lon="5.70646">
        <ele>560</ele>
        <time>2018-05-17T19:32:51Z</time>
      </trkpt>
      <trkpt lat="43.89429" lon="5.70624">
        <ele>561</ele>
        <time>2018-05-17T19:33:51Z</time>
      </trkpt>
      <trkpt lat="43.89352" lon="5.70628">
        <ele>561</ele>
        <time>2018-05-17T19:34:51Z</time>
      </trkpt>
      <trkpt lat="43.89253" lon="5.70594">
        <ele>562</ele>
        <time>2018-05-17T19:35:51Z</time>
      </trkpt>
      <trkpt lat="43.89142" lon="5.70641">
        <ele>567</ele>
        <time>2018-05-17T19:36:51Z</time>
      </trkpt>
      <trkpt lat="43.89098" lon="5.70641">
        <ele>567</ele>
        <time>2018-05-17T19:37:51Z</time>
      </trkpt>
      <trkpt lat="43.88981" lon="5.70684">
        <ele>575</ele>
        <time>2018-05-17T19:38:51Z</time>
      </trkpt>
      <trkpt lat="43.88925" lon="5.70813">
        <ele>573</ele>
        <time>2018-05-17T19:39:51Z</time>
      </trkpt>
      <trkpt lat="43.88743" lon="5.70865">
        <ele>548</ele>
        <time>2018-05-17T19:40:51Z</time>
      </trkpt>
      <trkpt lat="43.88699" lon="5.70865">
        <ele>544</ele>
        <time>2018-05-17T19:41:51Z</time>
      </trkpt>
      <trkpt lat="43.88622" lon="5.70929">
        <ele>530</ele>
        <time>2018-05-17T19:42:51Z</time>
      </trkpt>
      <trkpt lat="43.88591" lon="5.70783">
        <ele>528</ele>
        <time>2018-05-17T19:43:51Z</time>
      </trkpt>
      <trkpt lat="43.88588" lon="5.70659">
        <ele>528</ele>
        <time>2018-05-17T19:44:51Z</time>
      </trkpt>
      <trkpt lat="43.88501" lon="5.70637">
        <ele>514</ele>
        <time>2018-05-17T19:45:51Z</time>
      </trkpt>
      <trkpt lat="43.88344" lon="5.70568">
        <ele>492</ele>
        <time>2018-05-17T19:46:51Z</time>
      </trkpt>
      <trkpt lat="43.88232" lon="5.70538">
        <ele>478</ele>
        <time>2018-05-17T19:47:51Z</time>
      </trkpt>
      <trkpt lat="43.8813" lon="5.70581">
        <ele>464</ele>
        <time>2018-05-17T19:48:51Z</time>
      </trkpt>
      <trkpt lat="43.88019" lon="5.70594">
        <ele>451</ele>
        <time>2018-05-17T19:49:51Z</time>
      </trkpt>
      <trkpt lat="43.87951" lon="5.70332">
        <ele>444</ele>
        <time>2018-05-17T19:50:51Z</time>
      </trkpt>
      <trkpt lat="43.87846" lon="5.70384">
        <ele>445</ele>
        <time>2018-05-17T19:51:51Z</time>
      </trkpt>
      <trkpt lat="43.87691" lon="5.70328">
        <ele>473</ele>
        <time>2018-05-17T19:52:51Z</time>
      </trkpt>
      <trkpt lat="43.87629" lon="5.70388">
        <ele>471</ele>
        <time>2018-05-17T19:53:51Z</time>
      </trkpt>
      <trkpt lat="43.87521" lon="5.70302">
        <ele>470</ele>
        <time>2018-05-17T19:54:51Z</time>
      </trkpt>
      <trkpt lat="43.87301" lon="5.70247">
        <ele>460</ele>
        <time>2018-05-17T19:55:51Z</time>
      </trkpt>
      <trkpt lat="43.87208" lon="5.70212">
        <ele>458</ele>
        <time>2018-05-17T19:56:51Z</time>
      </trkpt>
      <trkpt lat="43.87181" lon="5.70144">
        <ele>458</ele>
        <time>2018-05-17T19:57:51Z</time>
      </trkpt>
      <trkpt lat="43.87137" lon="5.70144">
        <ele>456</ele>
        <time>2018-05-17T19:58:51Z</time>
      </trkpt>
      <trkpt lat="43.87116" lon="5.70199">
        <ele>455</ele>
        <time>2018-05-17T19:59:51Z</time>
      </trkpt>
      <trkpt lat="43.87069" lon="5.70199">
        <ele>454</ele>
        <time>2018-05-17T20:00:51Z</time>
      </trkpt>
      <trkpt lat="43.87032" lon="5.70148">
        <ele>457</ele>
        <time>2018-05-17T20:01:51Z</time>
      </trkpt>
      <trkpt lat="43.86952" lon="5.70122">
        <ele>461</ele>
        <time>2018-05-17T20:02:51Z</time>
      </trkpt>
      <trkpt lat="43.86865" lon="5.70075">
        <ele>464</ele>
        <time>2018-05-17T20:03:51Z</time>
      </trkpt>
      <trkpt lat="43.86772" lon="5.70075">
        <ele>467</ele>
        <time>2018-05-17T20:04:51Z</time>
      </trkpt>
      <trkpt lat="43.86617" lon="5.70131">
        <ele>474</ele>
        <time>2018-05-17T20:05:51Z</time>
      </trkpt>
      <trkpt lat="43.86549" lon="5.70135">
        <ele>478</ele>
        <time>2018-05-17T20:06:51Z</time>
      </trkpt>
      <trkpt lat="43.86367" lon="5.70165">
        <ele>489</ele>
        <time>2018-05-17T20:07:51Z</time>
      </trkpt>
      <trkpt lat="43.86228" lon="5.70118">
        <ele>498</ele>
        <time>2018-05-17T20:08:51Z</time>
      </trkpt>
      <trkpt lat="43.86175" lon="5.70075">
        <ele>504</ele>
        <time>2018-05-17T20:09:51Z</time>
      </trkpt>
      <trkpt lat="43.86156" lon="5.69976">
        <ele>508</ele>
        <time>2018-05-17T20:10:51Z</time>
      </trkpt>
      <trkpt lat="43.85986" lon="5.70126">
        <ele>549</ele>
        <time>2018-05-17T20:11:51Z</time>
      </trkpt>
      <trkpt lat="43.85912" lon="5.69929">
        <ele>566</ele>
        <time>2018-05-17T20:12:51Z</time>
      </trkpt>
      <trkpt lat="43.85906" lon="5.70045">
        <ele>574</ele>
        <time>2018-05-17T20:13:51Z</time>
      </trkpt>
      <trkpt lat="43.8585" lon="5.70062">
        <ele>581</ele>
        <time>2018-05-17T20:14:51Z</time>
      </trkpt>
      <trkpt lat="43.85794" lon="5.70113">
        <ele>582</ele>
        <time>2018-05-17T20:15:51Z</time>
      </trkpt>
      <trkpt lat="43.85794" lon="5.70182">
        <ele>577</ele>
        <time>2018-05-17T20:16:51Z</time>
      </trkpt>
      <trkpt lat="43.85748" lon="5.70337">
        <ele>582</ele>
        <time>2018-05-17T20:17:51Z</time>
      </trkpt>
      <trkpt lat="43.8568" lon="5.70388">
        <ele>587</ele>
        <time>2018-05-17T20:18:51Z</time>
      </trkpt>
      <trkpt lat="43.85556" lon="5.70581">
        <ele>591</ele>
        <time>2018-05-17T20:19:51Z</time>
      </trkpt>
      <trkpt lat="43.85401" lon="5.70586">
        <ele>605</ele>
        <time>2018-05-17T20:20:51Z</time>
      </trkpt>
      <trkpt lat="43.85358" lon="5.70616">
        <ele>611</ele>
        <time>2018-05-17T20:21:51Z</time>
      </trkpt>
      <trkpt lat="43.85086" lon="5.70633">
        <ele>641</ele>
        <time>2018-05-17T20:22:51Z</time>
      </trkpt>
      <trkpt lat="43.84897" lon="5.70538">
        <ele>648</ele>
        <time>2018-05-17T20:23:51Z</time>
      </trkpt>
      <trkpt lat="43.84789" lon="5.70422">
        <ele>658</ele>
        <time>2018-05-17T20:24:51Z</time>
      </trkpt>
      <trkpt lat="43.84696" lon="5.70272">
        <ele>672</ele>
        <time>2018-05-17T20:25:51Z</time>
      </trkpt>
      <trkpt lat="43.84637" lon="5.70118">
        <ele>666</ele>
        <time>2018-05-17T20:26:51Z</time>
      </trkpt>
      <trkpt lat="43.84597" lon="5.69869">
        <ele>649</ele>
        <time>2018-05-17T20:27:51Z</time>
      </trkpt>
      <trkpt lat="43.84519" lon="5.69766">
        <ele>645</ele>
        <time>2018-05-17T20:28:51Z</time>
      </trkpt>
      <trkpt lat="43.84433" lon="5.69736">
        <ele>646</ele>
        <time>2018-05-17T20:29:51Z</time>
      </trkpt>
      <trkpt lat="43.84408" lon="5.69646">
        <ele>644</ele>
        <time>2018-05-17T20:30:51Z</time>
      </trkpt>
      <trkpt lat="43.84278" lon="5.6932">
        <ele>649</ele>
        <time>2018-05-17T20:31:51Z</time>
      </trkpt>
      <trkpt lat="43.84113" lon="5.69212">
        <ele>648</ele>
        <time>2018-05-17T20:32:51Z</time>
      </trkpt>
    </trkseg>
  </trk>
</gpx>